<?xml version="1.0" encoding="UTF-8"?>
<gpx xmlns="http://www.topografix.com/GPX/1/1" xmlns:gpsies="https://www.gpsies.com/GPX/1/0" creator="GPSies https://www.gpsies.com - RNC 2" version="1.1" xmlns:xsi="http://www.w3.org/2001/XMLSchema-instance" xsi:schemaLocation="http://www.topografix.com/GPX/1/1 http://www.topografix.com/GPX/1/1/gpx.xsd https://www.gpsies.com/GPX/1/0 https://www.gpsies.com/gpsies.xsd">
  <metadata>
    <name>RNC 2</name>
    <author>
      <name>MT90</name>
      <link href="https://www.gpsies.com/mapUser.do?username=MT90">
        <text>MT90 on GPSies.com</text>
        <type>GPSiesUserOnWeb</type>
      </link>
    </author>
    <link href="https://www.gpsies.com/map.do?fileId=ynnnpvvpewrtstvl">
      <text>RNC 2 on GPSies.com</text>
      <type>trackOnWeb</type>
    </link>
    <time>2019-07-16T11:37:57Z</time>
    <extensions>
      <gpsies:property>round trip</gpsies:property>
      <gpsies:trackLengthMeter>89445.05130776744</gpsies:trackLengthMeter>
      <gpsies:totalAscentMeter>1689.0</gpsies:totalAscentMeter>
      <gpsies:totalDescentMeter>1689.0</gpsies:totalDescentMeter>
      <gpsies:minHeightMeter>103.0</gpsies:minHeightMeter>
      <gpsies:maxHeightMeter>544.0</gpsies:maxHeightMeter>
    </extensions>
  </metadata>
  <trk>
    <name>RNC 2 on GPSies.com</name>
    <link href="https://www.gpsies.com/map.do?fileId=ynnnpvvpewrtstvl">
      <type>trackOnWeb</type>
    </link>
    <link href="https://www.gpsies.com/charts/yn/map/ynnnpvvpewrtstvl_map.png">
      <type>elevationChartUrlMap</type>
    </link>
    <link href="https://www.gpsies.com/charts/yn/mapThumb/ynnnpvvpewrtstvl_mapThumb.png">
      <type>elevationChartUrlMapThumb</type>
    </link>
    <link href="https://www.gpsies.com/charts/yn/tab/ynnnpvvpewrtstvl_tab.png">
      <type>elevationChartUrlTab</type>
    </link>
    <trkseg>
      <trkpt lat="43.55827770" lon="13.02231350">
        <ele>122.00000</ele>
        <time>2010-01-01T00:00:00Z</time>
      </trkpt>
      <trkpt lat="43.55812870" lon="13.02205200">
        <ele>122.00000</ele>
        <time>2010-01-01T00:00:09Z</time>
      </trkpt>
      <trkpt lat="43.55771000" lon="13.02112000">
        <ele>127.00000</ele>
        <time>2010-01-01T00:00:41Z</time>
      </trkpt>
      <trkpt lat="43.55766000" lon="13.02086000">
        <ele>128.00000</ele>
        <time>2010-01-01T00:00:49Z</time>
      </trkpt>
      <trkpt lat="43.55768000" lon="13.02016000">
        <ele>131.00000</ele>
        <time>2010-01-01T00:01:09Z</time>
      </trkpt>
      <trkpt lat="43.55764000" lon="13.01991000">
        <ele>131.00000</ele>
        <time>2010-01-01T00:01:17Z</time>
      </trkpt>
      <trkpt lat="43.55756000" lon="13.01977000">
        <ele>130.00000</ele>
        <time>2010-01-01T00:01:22Z</time>
      </trkpt>
      <trkpt lat="43.55747000" lon="13.01969000">
        <ele>131.00000</ele>
        <time>2010-01-01T00:01:26Z</time>
      </trkpt>
      <trkpt lat="43.55554000" lon="13.01838000">
        <ele>142.00000</ele>
        <time>2010-01-01T00:02:52Z</time>
      </trkpt>
      <trkpt lat="43.55533000" lon="13.01830000">
        <ele>144.00000</ele>
        <time>2010-01-01T00:03:01Z</time>
      </trkpt>
      <trkpt lat="43.55363000" lon="13.01793000">
        <ele>151.00000</ele>
        <time>2010-01-01T00:04:10Z</time>
      </trkpt>
      <trkpt lat="43.55325000" lon="13.01782000">
        <ele>154.00000</ele>
        <time>2010-01-01T00:04:25Z</time>
      </trkpt>
      <trkpt lat="43.55162000" lon="13.01711000">
        <ele>166.00000</ele>
        <time>2010-01-01T00:05:34Z</time>
      </trkpt>
      <trkpt lat="43.55134000" lon="13.01694000">
        <ele>167.00000</ele>
        <time>2010-01-01T00:05:46Z</time>
      </trkpt>
      <trkpt lat="43.55101000" lon="13.01664000">
        <ele>167.00000</ele>
        <time>2010-01-01T00:06:02Z</time>
      </trkpt>
      <trkpt lat="43.55044000" lon="13.01595000">
        <ele>171.00000</ele>
        <time>2010-01-01T00:06:32Z</time>
      </trkpt>
      <trkpt lat="43.55021000" lon="13.01580000">
        <ele>172.00000</ele>
        <time>2010-01-01T00:06:42Z</time>
      </trkpt>
      <trkpt lat="43.54930000" lon="13.01536000">
        <ele>174.00000</ele>
        <time>2010-01-01T00:07:21Z</time>
      </trkpt>
      <trkpt lat="43.54915000" lon="13.01527000">
        <ele>175.00000</ele>
        <time>2010-01-01T00:07:27Z</time>
      </trkpt>
      <trkpt lat="43.54894000" lon="13.01509000">
        <ele>177.00000</ele>
        <time>2010-01-01T00:07:37Z</time>
      </trkpt>
      <trkpt lat="43.54636000" lon="13.01254000">
        <ele>194.00000</ele>
        <time>2010-01-01T00:09:44Z</time>
      </trkpt>
      <trkpt lat="43.54612000" lon="13.01228000">
        <ele>195.00000</ele>
        <time>2010-01-01T00:09:57Z</time>
      </trkpt>
      <trkpt lat="43.54590000" lon="13.01195000">
        <ele>196.00000</ele>
        <time>2010-01-01T00:10:10Z</time>
      </trkpt>
      <trkpt lat="43.54572000" lon="13.01162000">
        <ele>198.00000</ele>
        <time>2010-01-01T00:10:22Z</time>
      </trkpt>
      <trkpt lat="43.54561000" lon="13.01132000">
        <ele>199.00000</ele>
        <time>2010-01-01T00:10:31Z</time>
      </trkpt>
      <trkpt lat="43.54552000" lon="13.01101000">
        <ele>200.00000</ele>
        <time>2010-01-01T00:10:41Z</time>
      </trkpt>
      <trkpt lat="43.54548000" lon="13.01080000">
        <ele>201.00000</ele>
        <time>2010-01-01T00:10:47Z</time>
      </trkpt>
      <trkpt lat="43.54545000" lon="13.01045000">
        <ele>202.00000</ele>
        <time>2010-01-01T00:10:58Z</time>
      </trkpt>
      <trkpt lat="43.54545000" lon="13.01007000">
        <ele>204.00000</ele>
        <time>2010-01-01T00:11:09Z</time>
      </trkpt>
      <trkpt lat="43.54546000" lon="13.00969000">
        <ele>205.00000</ele>
        <time>2010-01-01T00:11:20Z</time>
      </trkpt>
      <trkpt lat="43.54569000" lon="13.00795000">
        <ele>209.00000</ele>
        <time>2010-01-01T00:12:11Z</time>
      </trkpt>
      <trkpt lat="43.54634000" lon="13.00339000">
        <ele>221.00000</ele>
        <time>2010-01-01T00:14:26Z</time>
      </trkpt>
      <trkpt lat="43.54636000" lon="13.00311000">
        <ele>223.00000</ele>
        <time>2010-01-01T00:14:34Z</time>
      </trkpt>
      <trkpt lat="43.54636000" lon="13.00273000">
        <ele>223.00000</ele>
        <time>2010-01-01T00:14:45Z</time>
      </trkpt>
      <trkpt lat="43.54632000" lon="13.00242000">
        <ele>223.00000</ele>
        <time>2010-01-01T00:14:54Z</time>
      </trkpt>
      <trkpt lat="43.54621000" lon="13.00194000">
        <ele>220.00000</ele>
        <time>2010-01-01T00:15:09Z</time>
      </trkpt>
      <trkpt lat="43.54563000" lon="13.00021000">
        <ele>224.00000</ele>
        <time>2010-01-01T00:16:04Z</time>
      </trkpt>
      <trkpt lat="43.54563000" lon="13.00020000">
        <ele>224.00000</ele>
        <time>2010-01-01T00:16:04Z</time>
      </trkpt>
      <trkpt lat="43.54561000" lon="13.00014000">
        <ele>224.00000</ele>
        <time>2010-01-01T00:16:06Z</time>
      </trkpt>
      <trkpt lat="43.54550220" lon="12.99978930">
        <ele>225.00000</ele>
        <time>2010-01-01T00:16:17Z</time>
      </trkpt>
      <trkpt lat="43.54521420" lon="12.99913190">
        <ele>227.00000</ele>
        <time>2010-01-01T00:16:40Z</time>
      </trkpt>
      <trkpt lat="43.54481700" lon="12.99868090">
        <ele>227.00000</ele>
        <time>2010-01-01T00:17:00Z</time>
      </trkpt>
      <trkpt lat="43.54463380" lon="12.99838310">
        <ele>231.00000</ele>
        <time>2010-01-01T00:17:11Z</time>
      </trkpt>
      <trkpt lat="43.54476660" lon="12.99797130">
        <ele>232.00000</ele>
        <time>2010-01-01T00:17:25Z</time>
      </trkpt>
      <trkpt lat="43.54528520" lon="12.99757150">
        <ele>242.00000</ele>
        <time>2010-01-01T00:17:48Z</time>
      </trkpt>
      <trkpt lat="43.54544730" lon="12.99730670">
        <ele>242.00000</ele>
        <time>2010-01-01T00:17:58Z</time>
      </trkpt>
      <trkpt lat="43.54553870" lon="12.99688100">
        <ele>240.00000</ele>
        <time>2010-01-01T00:18:11Z</time>
      </trkpt>
      <trkpt lat="43.54550200" lon="12.99657280">
        <ele>238.00000</ele>
        <time>2010-01-01T00:18:20Z</time>
      </trkpt>
      <trkpt lat="43.54544730" lon="12.99621520">
        <ele>240.00000</ele>
        <time>2010-01-01T00:18:31Z</time>
      </trkpt>
      <trkpt lat="43.54521400" lon="12.99588640">
        <ele>241.00000</ele>
        <time>2010-01-01T00:18:44Z</time>
      </trkpt>
      <trkpt lat="43.54491870" lon="12.99558810">
        <ele>245.00000</ele>
        <time>2010-01-01T00:18:59Z</time>
      </trkpt>
      <trkpt lat="43.54442240" lon="12.99539960">
        <ele>248.00000</ele>
        <time>2010-01-01T00:19:20Z</time>
      </trkpt>
      <trkpt lat="43.54420110" lon="12.99510290">
        <ele>252.00000</ele>
        <time>2010-01-01T00:19:32Z</time>
      </trkpt>
      <trkpt lat="43.54395560" lon="12.99492710">
        <ele>251.00000</ele>
        <time>2010-01-01T00:19:43Z</time>
      </trkpt>
      <trkpt lat="43.54387280" lon="12.99480410">
        <ele>250.00000</ele>
        <time>2010-01-01T00:19:48Z</time>
      </trkpt>
      <trkpt lat="43.54381560" lon="12.99471880">
        <ele>250.00000</ele>
        <time>2010-01-01T00:19:51Z</time>
      </trkpt>
      <trkpt lat="43.54375300" lon="12.99465890">
        <ele>250.00000</ele>
        <time>2010-01-01T00:19:54Z</time>
      </trkpt>
      <trkpt lat="43.54365000" lon="12.99449000">
        <ele>250.00000</ele>
        <time>2010-01-01T00:20:01Z</time>
      </trkpt>
      <trkpt lat="43.54323000" lon="12.99387000">
        <ele>251.00000</ele>
        <time>2010-01-01T00:20:25Z</time>
      </trkpt>
      <trkpt lat="43.54305000" lon="12.99364000">
        <ele>250.00000</ele>
        <time>2010-01-01T00:20:35Z</time>
      </trkpt>
      <trkpt lat="43.54291000" lon="12.99349000">
        <ele>251.00000</ele>
        <time>2010-01-01T00:20:42Z</time>
      </trkpt>
      <trkpt lat="43.54272000" lon="12.99334000">
        <ele>252.00000</ele>
        <time>2010-01-01T00:20:51Z</time>
      </trkpt>
      <trkpt lat="43.54251000" lon="12.99324000">
        <ele>252.00000</ele>
        <time>2010-01-01T00:21:00Z</time>
      </trkpt>
      <trkpt lat="43.54160000" lon="12.99293000">
        <ele>256.00000</ele>
        <time>2010-01-01T00:21:37Z</time>
      </trkpt>
      <trkpt lat="43.54143000" lon="12.99289000">
        <ele>256.00000</ele>
        <time>2010-01-01T00:21:44Z</time>
      </trkpt>
      <trkpt lat="43.54103000" lon="12.99284000">
        <ele>255.00000</ele>
        <time>2010-01-01T00:22:00Z</time>
      </trkpt>
      <trkpt lat="43.54073000" lon="12.99287000">
        <ele>255.00000</ele>
        <time>2010-01-01T00:22:12Z</time>
      </trkpt>
      <trkpt lat="43.54001000" lon="12.99312000">
        <ele>253.00000</ele>
        <time>2010-01-01T00:22:42Z</time>
      </trkpt>
      <trkpt lat="43.53923000" lon="12.99333000">
        <ele>262.00000</ele>
        <time>2010-01-01T00:23:14Z</time>
      </trkpt>
      <trkpt lat="43.53895000" lon="12.99338000">
        <ele>261.00000</ele>
        <time>2010-01-01T00:23:25Z</time>
      </trkpt>
      <trkpt lat="43.53863000" lon="12.99334000">
        <ele>260.00000</ele>
        <time>2010-01-01T00:23:38Z</time>
      </trkpt>
      <trkpt lat="43.53835000" lon="12.99322000">
        <ele>258.00000</ele>
        <time>2010-01-01T00:23:50Z</time>
      </trkpt>
      <trkpt lat="43.53775000" lon="12.99271000">
        <ele>258.00000</ele>
        <time>2010-01-01T00:24:18Z</time>
      </trkpt>
      <trkpt lat="43.53751000" lon="12.99242000">
        <ele>261.00000</ele>
        <time>2010-01-01T00:24:31Z</time>
      </trkpt>
      <trkpt lat="43.53733000" lon="12.99211000">
        <ele>264.00000</ele>
        <time>2010-01-01T00:24:42Z</time>
      </trkpt>
      <trkpt lat="43.53733000" lon="12.99210000">
        <ele>264.00000</ele>
        <time>2010-01-01T00:24:43Z</time>
      </trkpt>
      <trkpt lat="43.53726000" lon="12.99192000">
        <ele>266.00000</ele>
        <time>2010-01-01T00:24:49Z</time>
      </trkpt>
      <trkpt lat="43.53719000" lon="12.99167000">
        <ele>268.00000</ele>
        <time>2010-01-01T00:24:56Z</time>
      </trkpt>
      <trkpt lat="43.53704000" lon="12.99088000">
        <ele>268.00000</ele>
        <time>2010-01-01T00:25:20Z</time>
      </trkpt>
      <trkpt lat="43.53694000" lon="12.99044000">
        <ele>272.00000</ele>
        <time>2010-01-01T00:25:33Z</time>
      </trkpt>
      <trkpt lat="43.53679000" lon="12.99006000">
        <ele>274.00000</ele>
        <time>2010-01-01T00:25:46Z</time>
      </trkpt>
      <trkpt lat="43.53626000" lon="12.98909000">
        <ele>272.00000</ele>
        <time>2010-01-01T00:26:21Z</time>
      </trkpt>
      <trkpt lat="43.53578000" lon="12.98829000">
        <ele>275.00000</ele>
        <time>2010-01-01T00:26:51Z</time>
      </trkpt>
      <trkpt lat="43.53558000" lon="12.98783000">
        <ele>274.00000</ele>
        <time>2010-01-01T00:27:07Z</time>
      </trkpt>
      <trkpt lat="43.53549000" lon="12.98746000">
        <ele>273.00000</ele>
        <time>2010-01-01T00:27:18Z</time>
      </trkpt>
      <trkpt lat="43.53544000" lon="12.98709000">
        <ele>273.00000</ele>
        <time>2010-01-01T00:27:29Z</time>
      </trkpt>
      <trkpt lat="43.53547000" lon="12.98664000">
        <ele>273.00000</ele>
        <time>2010-01-01T00:27:42Z</time>
      </trkpt>
      <trkpt lat="43.53555000" lon="12.98630000">
        <ele>272.00000</ele>
        <time>2010-01-01T00:27:53Z</time>
      </trkpt>
      <trkpt lat="43.53569000" lon="12.98600000">
        <ele>273.00000</ele>
        <time>2010-01-01T00:28:03Z</time>
      </trkpt>
      <trkpt lat="43.53594000" lon="12.98563000">
        <ele>275.00000</ele>
        <time>2010-01-01T00:28:18Z</time>
      </trkpt>
      <trkpt lat="43.53600000" lon="12.98546000">
        <ele>275.00000</ele>
        <time>2010-01-01T00:28:23Z</time>
      </trkpt>
      <trkpt lat="43.53604000" lon="12.98528000">
        <ele>275.00000</ele>
        <time>2010-01-01T00:28:29Z</time>
      </trkpt>
      <trkpt lat="43.53602000" lon="12.98507000">
        <ele>275.00000</ele>
        <time>2010-01-01T00:28:35Z</time>
      </trkpt>
      <trkpt lat="43.53599000" lon="12.98489000">
        <ele>275.00000</ele>
        <time>2010-01-01T00:28:40Z</time>
      </trkpt>
      <trkpt lat="43.53592000" lon="12.98472000">
        <ele>274.00000</ele>
        <time>2010-01-01T00:28:46Z</time>
      </trkpt>
      <trkpt lat="43.53556000" lon="12.98396000">
        <ele>277.00000</ele>
        <time>2010-01-01T00:29:12Z</time>
      </trkpt>
      <trkpt lat="43.53528000" lon="12.98343000">
        <ele>275.00000</ele>
        <time>2010-01-01T00:29:31Z</time>
      </trkpt>
      <trkpt lat="43.53521000" lon="12.98333000">
        <ele>273.00000</ele>
        <time>2010-01-01T00:29:35Z</time>
      </trkpt>
      <trkpt lat="43.53398000" lon="12.98205000">
        <ele>270.00000</ele>
        <time>2010-01-01T00:30:37Z</time>
      </trkpt>
      <trkpt lat="43.53379000" lon="12.98183000">
        <ele>269.00000</ele>
        <time>2010-01-01T00:30:47Z</time>
      </trkpt>
      <trkpt lat="43.53362000" lon="12.98158000">
        <ele>269.00000</ele>
        <time>2010-01-01T00:30:57Z</time>
      </trkpt>
      <trkpt lat="43.53348000" lon="12.98119000">
        <ele>268.00000</ele>
        <time>2010-01-01T00:31:09Z</time>
      </trkpt>
      <trkpt lat="43.53341000" lon="12.98082000">
        <ele>268.00000</ele>
        <time>2010-01-01T00:31:20Z</time>
      </trkpt>
      <trkpt lat="43.53337000" lon="12.98045000">
        <ele>266.00000</ele>
        <time>2010-01-01T00:31:31Z</time>
      </trkpt>
      <trkpt lat="43.53338000" lon="12.98030000">
        <ele>266.00000</ele>
        <time>2010-01-01T00:31:36Z</time>
      </trkpt>
      <trkpt lat="43.53349000" lon="12.97979000">
        <ele>268.00000</ele>
        <time>2010-01-01T00:31:51Z</time>
      </trkpt>
      <trkpt lat="43.53389000" lon="12.97853000">
        <ele>273.00000</ele>
        <time>2010-01-01T00:32:31Z</time>
      </trkpt>
      <trkpt lat="43.53379000" lon="12.97846000">
        <ele>273.00000</ele>
        <time>2010-01-01T00:32:36Z</time>
      </trkpt>
      <trkpt lat="43.53395000" lon="12.97795000">
        <ele>275.00000</ele>
        <time>2010-01-01T00:32:52Z</time>
      </trkpt>
      <trkpt lat="43.53406000" lon="12.97802000">
        <ele>274.00000</ele>
        <time>2010-01-01T00:32:57Z</time>
      </trkpt>
      <trkpt lat="43.53483000" lon="12.97561000">
        <ele>284.00000</ele>
        <time>2010-01-01T00:34:13Z</time>
      </trkpt>
      <trkpt lat="43.53529000" lon="12.97424000">
        <ele>289.00000</ele>
        <time>2010-01-01T00:34:57Z</time>
      </trkpt>
      <trkpt lat="43.53544000" lon="12.97389000">
        <ele>292.00000</ele>
        <time>2010-01-01T00:35:09Z</time>
      </trkpt>
      <trkpt lat="43.53559000" lon="12.97363000">
        <ele>292.00000</ele>
        <time>2010-01-01T00:35:18Z</time>
      </trkpt>
      <trkpt lat="43.53565000" lon="12.97349000">
        <ele>293.00000</ele>
        <time>2010-01-01T00:35:23Z</time>
      </trkpt>
      <trkpt lat="43.53567000" lon="12.97336000">
        <ele>293.00000</ele>
        <time>2010-01-01T00:35:27Z</time>
      </trkpt>
      <trkpt lat="43.53568000" lon="12.97319000">
        <ele>295.00000</ele>
        <time>2010-01-01T00:35:32Z</time>
      </trkpt>
      <trkpt lat="43.53564000" lon="12.97299000">
        <ele>296.00000</ele>
        <time>2010-01-01T00:35:38Z</time>
      </trkpt>
      <trkpt lat="43.53552000" lon="12.97274000">
        <ele>295.00000</ele>
        <time>2010-01-01T00:35:46Z</time>
      </trkpt>
      <trkpt lat="43.53538000" lon="12.97249000">
        <ele>294.00000</ele>
        <time>2010-01-01T00:35:56Z</time>
      </trkpt>
      <trkpt lat="43.53529000" lon="12.97228000">
        <ele>293.00000</ele>
        <time>2010-01-01T00:36:03Z</time>
      </trkpt>
      <trkpt lat="43.53522000" lon="12.97191000">
        <ele>294.00000</ele>
        <time>2010-01-01T00:36:14Z</time>
      </trkpt>
      <trkpt lat="43.53522000" lon="12.97166000">
        <ele>294.00000</ele>
        <time>2010-01-01T00:36:21Z</time>
      </trkpt>
      <trkpt lat="43.53526000" lon="12.97147000">
        <ele>292.00000</ele>
        <time>2010-01-01T00:36:27Z</time>
      </trkpt>
      <trkpt lat="43.53543000" lon="12.97106000">
        <ele>296.00000</ele>
        <time>2010-01-01T00:36:41Z</time>
      </trkpt>
      <trkpt lat="43.53549000" lon="12.97091000">
        <ele>298.00000</ele>
        <time>2010-01-01T00:36:45Z</time>
      </trkpt>
      <trkpt lat="43.53552000" lon="12.97076000">
        <ele>299.00000</ele>
        <time>2010-01-01T00:36:50Z</time>
      </trkpt>
      <trkpt lat="43.53553000" lon="12.97045000">
        <ele>298.00000</ele>
        <time>2010-01-01T00:36:59Z</time>
      </trkpt>
      <trkpt lat="43.53547000" lon="12.97003000">
        <ele>299.00000</ele>
        <time>2010-01-01T00:37:11Z</time>
      </trkpt>
      <trkpt lat="43.53538000" lon="12.96979000">
        <ele>299.00000</ele>
        <time>2010-01-01T00:37:19Z</time>
      </trkpt>
      <trkpt lat="43.53529000" lon="12.96963000">
        <ele>299.00000</ele>
        <time>2010-01-01T00:37:25Z</time>
      </trkpt>
      <trkpt lat="43.53501000" lon="12.96937000">
        <ele>301.00000</ele>
        <time>2010-01-01T00:37:39Z</time>
      </trkpt>
      <trkpt lat="43.53441000" lon="12.96921000">
        <ele>295.00000</ele>
        <time>2010-01-01T00:38:03Z</time>
      </trkpt>
      <trkpt lat="43.53287000" lon="12.96891000">
        <ele>292.00000</ele>
        <time>2010-01-01T00:39:05Z</time>
      </trkpt>
      <trkpt lat="43.53263000" lon="12.96880000">
        <ele>292.00000</ele>
        <time>2010-01-01T00:39:16Z</time>
      </trkpt>
      <trkpt lat="43.53249000" lon="12.96869000">
        <ele>293.00000</ele>
        <time>2010-01-01T00:39:22Z</time>
      </trkpt>
      <trkpt lat="43.53234000" lon="12.96850000">
        <ele>292.00000</ele>
        <time>2010-01-01T00:39:30Z</time>
      </trkpt>
      <trkpt lat="43.53202000" lon="12.96799000">
        <ele>289.00000</ele>
        <time>2010-01-01T00:39:50Z</time>
      </trkpt>
      <trkpt lat="43.53166000" lon="12.96720000">
        <ele>290.00000</ele>
        <time>2010-01-01T00:40:17Z</time>
      </trkpt>
      <trkpt lat="43.53142000" lon="12.96684000">
        <ele>291.00000</ele>
        <time>2010-01-01T00:40:31Z</time>
      </trkpt>
      <trkpt lat="43.53117000" lon="12.96652000">
        <ele>293.00000</ele>
        <time>2010-01-01T00:40:45Z</time>
      </trkpt>
      <trkpt lat="43.53080000" lon="12.96625000">
        <ele>293.00000</ele>
        <time>2010-01-01T00:41:01Z</time>
      </trkpt>
      <trkpt lat="43.53066000" lon="12.96620000">
        <ele>292.00000</ele>
        <time>2010-01-01T00:41:07Z</time>
      </trkpt>
      <trkpt lat="43.53048000" lon="12.96620000">
        <ele>292.00000</ele>
        <time>2010-01-01T00:41:14Z</time>
      </trkpt>
      <trkpt lat="43.52919000" lon="12.96647000">
        <ele>291.00000</ele>
        <time>2010-01-01T00:42:07Z</time>
      </trkpt>
      <trkpt lat="43.52880000" lon="12.96652000">
        <ele>289.00000</ele>
        <time>2010-01-01T00:42:22Z</time>
      </trkpt>
      <trkpt lat="43.52858000" lon="12.96648000">
        <ele>290.00000</ele>
        <time>2010-01-01T00:42:31Z</time>
      </trkpt>
      <trkpt lat="43.52816000" lon="12.96629000">
        <ele>292.00000</ele>
        <time>2010-01-01T00:42:49Z</time>
      </trkpt>
      <trkpt lat="43.52732000" lon="12.96576000">
        <ele>297.00000</ele>
        <time>2010-01-01T00:43:26Z</time>
      </trkpt>
      <trkpt lat="43.52702000" lon="12.96559000">
        <ele>297.00000</ele>
        <time>2010-01-01T00:43:39Z</time>
      </trkpt>
      <trkpt lat="43.52671000" lon="12.96544000">
        <ele>295.00000</ele>
        <time>2010-01-01T00:43:52Z</time>
      </trkpt>
      <trkpt lat="43.52639000" lon="12.96538000">
        <ele>296.00000</ele>
        <time>2010-01-01T00:44:05Z</time>
      </trkpt>
      <trkpt lat="43.52622000" lon="12.96539000">
        <ele>295.00000</ele>
        <time>2010-01-01T00:44:12Z</time>
      </trkpt>
      <trkpt lat="43.52547000" lon="12.96549000">
        <ele>292.00000</ele>
        <time>2010-01-01T00:44:42Z</time>
      </trkpt>
      <trkpt lat="43.52529000" lon="12.96544000">
        <ele>292.00000</ele>
        <time>2010-01-01T00:44:49Z</time>
      </trkpt>
      <trkpt lat="43.52509000" lon="12.96533000">
        <ele>294.00000</ele>
        <time>2010-01-01T00:44:58Z</time>
      </trkpt>
      <trkpt lat="43.52495000" lon="12.96519000">
        <ele>297.00000</ele>
        <time>2010-01-01T00:45:05Z</time>
      </trkpt>
      <trkpt lat="43.52457000" lon="12.96465000">
        <ele>302.00000</ele>
        <time>2010-01-01T00:45:27Z</time>
      </trkpt>
      <trkpt lat="43.52435000" lon="12.96443000">
        <ele>303.00000</ele>
        <time>2010-01-01T00:45:37Z</time>
      </trkpt>
      <trkpt lat="43.52349000" lon="12.96361000">
        <ele>301.00000</ele>
        <time>2010-01-01T00:46:19Z</time>
      </trkpt>
      <trkpt lat="43.52327000" lon="12.96336000">
        <ele>302.00000</ele>
        <time>2010-01-01T00:46:31Z</time>
      </trkpt>
      <trkpt lat="43.52116000" lon="12.96036000">
        <ele>310.00000</ele>
        <time>2010-01-01T00:48:32Z</time>
      </trkpt>
      <trkpt lat="43.52102000" lon="12.96006000">
        <ele>311.00000</ele>
        <time>2010-01-01T00:48:42Z</time>
      </trkpt>
      <trkpt lat="43.52092000" lon="12.95982000">
        <ele>312.00000</ele>
        <time>2010-01-01T00:48:50Z</time>
      </trkpt>
      <trkpt lat="43.52083000" lon="12.95949000">
        <ele>315.00000</ele>
        <time>2010-01-01T00:49:01Z</time>
      </trkpt>
      <trkpt lat="43.52065000" lon="12.95847000">
        <ele>319.00000</ele>
        <time>2010-01-01T00:49:31Z</time>
      </trkpt>
      <trkpt lat="43.52056000" lon="12.95812000">
        <ele>320.00000</ele>
        <time>2010-01-01T00:49:42Z</time>
      </trkpt>
      <trkpt lat="43.52048000" lon="12.95795000">
        <ele>321.00000</ele>
        <time>2010-01-01T00:49:48Z</time>
      </trkpt>
      <trkpt lat="43.52033000" lon="12.95785000">
        <ele>323.00000</ele>
        <time>2010-01-01T00:49:54Z</time>
      </trkpt>
      <trkpt lat="43.52022000" lon="12.95784000">
        <ele>324.00000</ele>
        <time>2010-01-01T00:49:59Z</time>
      </trkpt>
      <trkpt lat="43.52011000" lon="12.95788000">
        <ele>325.00000</ele>
        <time>2010-01-01T00:50:03Z</time>
      </trkpt>
      <trkpt lat="43.52001000" lon="12.95797000">
        <ele>325.00000</ele>
        <time>2010-01-01T00:50:08Z</time>
      </trkpt>
      <trkpt lat="43.51850000" lon="12.95955000">
        <ele>333.00000</ele>
        <time>2010-01-01T00:51:24Z</time>
      </trkpt>
      <trkpt lat="43.51832000" lon="12.95966000">
        <ele>334.00000</ele>
        <time>2010-01-01T00:51:32Z</time>
      </trkpt>
      <trkpt lat="43.51819000" lon="12.95967000">
        <ele>335.00000</ele>
        <time>2010-01-01T00:51:37Z</time>
      </trkpt>
      <trkpt lat="43.51801000" lon="12.95964000">
        <ele>336.00000</ele>
        <time>2010-01-01T00:51:44Z</time>
      </trkpt>
      <trkpt lat="43.51790000" lon="12.95959000">
        <ele>337.00000</ele>
        <time>2010-01-01T00:51:49Z</time>
      </trkpt>
      <trkpt lat="43.51780000" lon="12.95953000">
        <ele>337.00000</ele>
        <time>2010-01-01T00:51:53Z</time>
      </trkpt>
      <trkpt lat="43.51724000" lon="12.95901000">
        <ele>342.00000</ele>
        <time>2010-01-01T00:52:20Z</time>
      </trkpt>
      <trkpt lat="43.51612000" lon="12.95806000">
        <ele>349.00000</ele>
        <time>2010-01-01T00:53:13Z</time>
      </trkpt>
      <trkpt lat="43.51595000" lon="12.95794000">
        <ele>351.00000</ele>
        <time>2010-01-01T00:53:21Z</time>
      </trkpt>
      <trkpt lat="43.51553000" lon="12.95780000">
        <ele>354.00000</ele>
        <time>2010-01-01T00:53:38Z</time>
      </trkpt>
      <trkpt lat="43.51483000" lon="12.95765000">
        <ele>352.00000</ele>
        <time>2010-01-01T00:54:06Z</time>
      </trkpt>
      <trkpt lat="43.51470000" lon="12.95758000">
        <ele>352.00000</ele>
        <time>2010-01-01T00:54:12Z</time>
      </trkpt>
      <trkpt lat="43.51460000" lon="12.95747000">
        <ele>352.00000</ele>
        <time>2010-01-01T00:54:17Z</time>
      </trkpt>
      <trkpt lat="43.51452000" lon="12.95730000">
        <ele>353.00000</ele>
        <time>2010-01-01T00:54:23Z</time>
      </trkpt>
      <trkpt lat="43.51445000" lon="12.95672000">
        <ele>356.00000</ele>
        <time>2010-01-01T00:54:40Z</time>
      </trkpt>
      <trkpt lat="43.51440000" lon="12.95655000">
        <ele>355.00000</ele>
        <time>2010-01-01T00:54:45Z</time>
      </trkpt>
      <trkpt lat="43.51428000" lon="12.95637000">
        <ele>354.00000</ele>
        <time>2010-01-01T00:54:53Z</time>
      </trkpt>
      <trkpt lat="43.51408000" lon="12.95618000">
        <ele>355.00000</ele>
        <time>2010-01-01T00:55:02Z</time>
      </trkpt>
      <trkpt lat="43.51391000" lon="12.95613000">
        <ele>354.00000</ele>
        <time>2010-01-01T00:55:09Z</time>
      </trkpt>
      <trkpt lat="43.51352000" lon="12.95611000">
        <ele>354.00000</ele>
        <time>2010-01-01T00:55:25Z</time>
      </trkpt>
      <trkpt lat="43.51343000" lon="12.95610000">
        <ele>353.00000</ele>
        <time>2010-01-01T00:55:28Z</time>
      </trkpt>
      <trkpt lat="43.51332000" lon="12.95604000">
        <ele>353.00000</ele>
        <time>2010-01-01T00:55:33Z</time>
      </trkpt>
      <trkpt lat="43.51320000" lon="12.95594000">
        <ele>352.00000</ele>
        <time>2010-01-01T00:55:39Z</time>
      </trkpt>
      <trkpt lat="43.51295000" lon="12.95578000">
        <ele>352.00000</ele>
        <time>2010-01-01T00:55:50Z</time>
      </trkpt>
      <trkpt lat="43.51278000" lon="12.95570000">
        <ele>352.00000</ele>
        <time>2010-01-01T00:55:57Z</time>
      </trkpt>
      <trkpt lat="43.51241000" lon="12.95559000">
        <ele>351.00000</ele>
        <time>2010-01-01T00:56:12Z</time>
      </trkpt>
      <trkpt lat="43.51229000" lon="12.95549000">
        <ele>351.00000</ele>
        <time>2010-01-01T00:56:18Z</time>
      </trkpt>
      <trkpt lat="43.51216000" lon="12.95536000">
        <ele>351.00000</ele>
        <time>2010-01-01T00:56:24Z</time>
      </trkpt>
      <trkpt lat="43.51201000" lon="12.95508000">
        <ele>351.00000</ele>
        <time>2010-01-01T00:56:34Z</time>
      </trkpt>
      <trkpt lat="43.51162000" lon="12.95423000">
        <ele>348.00000</ele>
        <time>2010-01-01T00:57:03Z</time>
      </trkpt>
      <trkpt lat="43.51147000" lon="12.95397000">
        <ele>348.00000</ele>
        <time>2010-01-01T00:57:13Z</time>
      </trkpt>
      <trkpt lat="43.51131000" lon="12.95374000">
        <ele>348.00000</ele>
        <time>2010-01-01T00:57:22Z</time>
      </trkpt>
      <trkpt lat="43.51116000" lon="12.95359000">
        <ele>349.00000</ele>
        <time>2010-01-01T00:57:30Z</time>
      </trkpt>
      <trkpt lat="43.51016000" lon="12.95284000">
        <ele>353.00000</ele>
        <time>2010-01-01T00:58:15Z</time>
      </trkpt>
      <trkpt lat="43.50992000" lon="12.95268000">
        <ele>356.00000</ele>
        <time>2010-01-01T00:58:26Z</time>
      </trkpt>
      <trkpt lat="43.50972000" lon="12.95261000">
        <ele>356.00000</ele>
        <time>2010-01-01T00:58:34Z</time>
      </trkpt>
      <trkpt lat="43.50912000" lon="12.95244000">
        <ele>352.00000</ele>
        <time>2010-01-01T00:58:59Z</time>
      </trkpt>
      <trkpt lat="43.50895000" lon="12.95231000">
        <ele>350.00000</ele>
        <time>2010-01-01T00:59:07Z</time>
      </trkpt>
      <trkpt lat="43.50880000" lon="12.95211000">
        <ele>351.00000</ele>
        <time>2010-01-01T00:59:15Z</time>
      </trkpt>
      <trkpt lat="43.50836000" lon="12.95145000">
        <ele>354.00000</ele>
        <time>2010-01-01T00:59:41Z</time>
      </trkpt>
      <trkpt lat="43.50820000" lon="12.95129000">
        <ele>355.00000</ele>
        <time>2010-01-01T00:59:49Z</time>
      </trkpt>
      <trkpt lat="43.50807000" lon="12.95118000">
        <ele>355.00000</ele>
        <time>2010-01-01T00:59:55Z</time>
      </trkpt>
      <trkpt lat="43.50801000" lon="12.95115000">
        <ele>355.00000</ele>
        <time>2010-01-01T00:59:58Z</time>
      </trkpt>
      <trkpt lat="43.50779000" lon="12.95110000">
        <ele>356.00000</ele>
        <time>2010-01-01T01:00:06Z</time>
      </trkpt>
      <trkpt lat="43.50594000" lon="12.95098000">
        <ele>351.00000</ele>
        <time>2010-01-01T01:01:21Z</time>
      </trkpt>
      <trkpt lat="43.50573000" lon="12.95095000">
        <ele>351.00000</ele>
        <time>2010-01-01T01:01:29Z</time>
      </trkpt>
      <trkpt lat="43.50555000" lon="12.95087000">
        <ele>352.00000</ele>
        <time>2010-01-01T01:01:37Z</time>
      </trkpt>
      <trkpt lat="43.50542000" lon="12.95071000">
        <ele>353.00000</ele>
        <time>2010-01-01T01:01:44Z</time>
      </trkpt>
      <trkpt lat="43.50537000" lon="12.95058000">
        <ele>354.00000</ele>
        <time>2010-01-01T01:01:48Z</time>
      </trkpt>
      <trkpt lat="43.50511000" lon="12.94954000">
        <ele>353.00000</ele>
        <time>2010-01-01T01:02:20Z</time>
      </trkpt>
      <trkpt lat="43.50505000" lon="12.94939000">
        <ele>353.00000</ele>
        <time>2010-01-01T01:02:25Z</time>
      </trkpt>
      <trkpt lat="43.50491000" lon="12.94915000">
        <ele>353.00000</ele>
        <time>2010-01-01T01:02:34Z</time>
      </trkpt>
      <trkpt lat="43.50470000" lon="12.94887000">
        <ele>355.00000</ele>
        <time>2010-01-01T01:02:45Z</time>
      </trkpt>
      <trkpt lat="43.50466000" lon="12.94877000">
        <ele>355.00000</ele>
        <time>2010-01-01T01:02:49Z</time>
      </trkpt>
      <trkpt lat="43.50464000" lon="12.94857000">
        <ele>357.00000</ele>
        <time>2010-01-01T01:02:55Z</time>
      </trkpt>
      <trkpt lat="43.50464000" lon="12.94845000">
        <ele>357.00000</ele>
        <time>2010-01-01T01:02:58Z</time>
      </trkpt>
      <trkpt lat="43.50473000" lon="12.94823000">
        <ele>359.00000</ele>
        <time>2010-01-01T01:03:05Z</time>
      </trkpt>
      <trkpt lat="43.50480000" lon="12.94811000">
        <ele>359.00000</ele>
        <time>2010-01-01T01:03:10Z</time>
      </trkpt>
      <trkpt lat="43.50470000" lon="12.94816000">
        <ele>358.00000</ele>
        <time>2010-01-01T01:03:14Z</time>
      </trkpt>
      <trkpt lat="43.50459000" lon="12.94819000">
        <ele>358.00000</ele>
        <time>2010-01-01T01:03:19Z</time>
      </trkpt>
      <trkpt lat="43.50451000" lon="12.94817000">
        <ele>357.00000</ele>
        <time>2010-01-01T01:03:22Z</time>
      </trkpt>
      <trkpt lat="43.50446000" lon="12.94820000">
        <ele>357.00000</ele>
        <time>2010-01-01T01:03:24Z</time>
      </trkpt>
      <trkpt lat="43.50442000" lon="12.94824000">
        <ele>357.00000</ele>
        <time>2010-01-01T01:03:26Z</time>
      </trkpt>
      <trkpt lat="43.50439000" lon="12.94834000">
        <ele>357.00000</ele>
        <time>2010-01-01T01:03:29Z</time>
      </trkpt>
      <trkpt lat="43.50442000" lon="12.94846000">
        <ele>357.00000</ele>
        <time>2010-01-01T01:03:33Z</time>
      </trkpt>
      <trkpt lat="43.50467000" lon="12.94883000">
        <ele>355.00000</ele>
        <time>2010-01-01T01:03:48Z</time>
      </trkpt>
      <trkpt lat="43.50459400" lon="12.94889300">
        <ele>355.00000</ele>
        <time>2010-01-01T01:03:51Z</time>
      </trkpt>
      <trkpt lat="43.50470000" lon="12.94887000">
        <ele>355.00000</ele>
        <time>2010-01-01T01:03:55Z</time>
      </trkpt>
      <trkpt lat="43.50455500" lon="12.94884460">
        <ele>355.00000</ele>
        <time>2010-01-01T01:04:01Z</time>
      </trkpt>
      <trkpt lat="43.50457040" lon="12.94857670">
        <ele>357.00000</ele>
        <time>2010-01-01T01:04:09Z</time>
      </trkpt>
      <trkpt lat="43.50464000" lon="12.94845000">
        <ele>357.00000</ele>
        <time>2010-01-01T01:04:14Z</time>
      </trkpt>
      <trkpt lat="43.50473000" lon="12.94823000">
        <ele>359.00000</ele>
        <time>2010-01-01T01:04:21Z</time>
      </trkpt>
      <trkpt lat="43.50480000" lon="12.94811000">
        <ele>359.00000</ele>
        <time>2010-01-01T01:04:25Z</time>
      </trkpt>
      <trkpt lat="43.50470000" lon="12.94816000">
        <ele>358.00000</ele>
        <time>2010-01-01T01:04:30Z</time>
      </trkpt>
      <trkpt lat="43.50445540" lon="12.94793190">
        <ele>359.00000</ele>
        <time>2010-01-01T01:04:42Z</time>
      </trkpt>
      <trkpt lat="43.50429000" lon="12.94765000">
        <ele>362.00000</ele>
        <time>2010-01-01T01:04:52Z</time>
      </trkpt>
      <trkpt lat="43.50421000" lon="12.94761000">
        <ele>364.00000</ele>
        <time>2010-01-01T01:04:56Z</time>
      </trkpt>
      <trkpt lat="43.50407000" lon="12.94762000">
        <ele>365.00000</ele>
        <time>2010-01-01T01:05:01Z</time>
      </trkpt>
      <trkpt lat="43.50340000" lon="12.94809000">
        <ele>371.00000</ele>
        <time>2010-01-01T01:05:31Z</time>
      </trkpt>
      <trkpt lat="43.50314000" lon="12.94817000">
        <ele>371.00000</ele>
        <time>2010-01-01T01:05:42Z</time>
      </trkpt>
      <trkpt lat="43.50284000" lon="12.94813000">
        <ele>370.00000</ele>
        <time>2010-01-01T01:05:54Z</time>
      </trkpt>
      <trkpt lat="43.50267000" lon="12.94803000">
        <ele>371.00000</ele>
        <time>2010-01-01T01:06:01Z</time>
      </trkpt>
      <trkpt lat="43.50253000" lon="12.94786000">
        <ele>376.00000</ele>
        <time>2010-01-01T01:06:09Z</time>
      </trkpt>
      <trkpt lat="43.50237000" lon="12.94755000">
        <ele>382.00000</ele>
        <time>2010-01-01T01:06:20Z</time>
      </trkpt>
      <trkpt lat="43.50224000" lon="12.94734000">
        <ele>384.00000</ele>
        <time>2010-01-01T01:06:28Z</time>
      </trkpt>
      <trkpt lat="43.50214000" lon="12.94710000">
        <ele>386.00000</ele>
        <time>2010-01-01T01:06:36Z</time>
      </trkpt>
      <trkpt lat="43.50195000" lon="12.94688000">
        <ele>388.00000</ele>
        <time>2010-01-01T01:06:46Z</time>
      </trkpt>
      <trkpt lat="43.50177000" lon="12.94671000">
        <ele>387.00000</ele>
        <time>2010-01-01T01:06:55Z</time>
      </trkpt>
      <trkpt lat="43.50158000" lon="12.94657000">
        <ele>386.00000</ele>
        <time>2010-01-01T01:07:03Z</time>
      </trkpt>
      <trkpt lat="43.50150000" lon="12.94648000">
        <ele>386.00000</ele>
        <time>2010-01-01T01:07:07Z</time>
      </trkpt>
      <trkpt lat="43.50144000" lon="12.94637000">
        <ele>388.00000</ele>
        <time>2010-01-01T01:07:11Z</time>
      </trkpt>
      <trkpt lat="43.50152000" lon="12.94618000">
        <ele>392.00000</ele>
        <time>2010-01-01T01:07:18Z</time>
      </trkpt>
      <trkpt lat="43.50171000" lon="12.94618000">
        <ele>394.00000</ele>
        <time>2010-01-01T01:07:25Z</time>
      </trkpt>
      <trkpt lat="43.50199000" lon="12.94645000">
        <ele>395.00000</ele>
        <time>2010-01-01T01:07:39Z</time>
      </trkpt>
      <trkpt lat="43.50256000" lon="12.94684000">
        <ele>393.00000</ele>
        <time>2010-01-01T01:08:04Z</time>
      </trkpt>
      <trkpt lat="43.50268000" lon="12.94684000">
        <ele>392.00000</ele>
        <time>2010-01-01T01:08:09Z</time>
      </trkpt>
      <trkpt lat="43.50282000" lon="12.94681000">
        <ele>393.00000</ele>
        <time>2010-01-01T01:08:15Z</time>
      </trkpt>
      <trkpt lat="43.50294000" lon="12.94676000">
        <ele>394.00000</ele>
        <time>2010-01-01T01:08:20Z</time>
      </trkpt>
      <trkpt lat="43.50300000" lon="12.94664000">
        <ele>396.00000</ele>
        <time>2010-01-01T01:08:24Z</time>
      </trkpt>
      <trkpt lat="43.50296000" lon="12.94646000">
        <ele>398.00000</ele>
        <time>2010-01-01T01:08:30Z</time>
      </trkpt>
      <trkpt lat="43.50286000" lon="12.94626000">
        <ele>400.00000</ele>
        <time>2010-01-01T01:08:37Z</time>
      </trkpt>
      <trkpt lat="43.50265000" lon="12.94596000">
        <ele>403.00000</ele>
        <time>2010-01-01T01:08:49Z</time>
      </trkpt>
      <trkpt lat="43.50264000" lon="12.94589000">
        <ele>403.00000</ele>
        <time>2010-01-01T01:08:51Z</time>
      </trkpt>
      <trkpt lat="43.50269000" lon="12.94578000">
        <ele>404.00000</ele>
        <time>2010-01-01T01:08:55Z</time>
      </trkpt>
      <trkpt lat="43.50287000" lon="12.94562000">
        <ele>404.00000</ele>
        <time>2010-01-01T01:09:03Z</time>
      </trkpt>
      <trkpt lat="43.50331000" lon="12.94541000">
        <ele>407.00000</ele>
        <time>2010-01-01T01:09:22Z</time>
      </trkpt>
      <trkpt lat="43.50352000" lon="12.94537000">
        <ele>407.00000</ele>
        <time>2010-01-01T01:09:30Z</time>
      </trkpt>
      <trkpt lat="43.50400000" lon="12.94545000">
        <ele>405.00000</ele>
        <time>2010-01-01T01:09:50Z</time>
      </trkpt>
      <trkpt lat="43.50421000" lon="12.94545000">
        <ele>405.00000</ele>
        <time>2010-01-01T01:09:58Z</time>
      </trkpt>
      <trkpt lat="43.50431000" lon="12.94537000">
        <ele>408.00000</ele>
        <time>2010-01-01T01:10:03Z</time>
      </trkpt>
      <trkpt lat="43.50424000" lon="12.94506000">
        <ele>416.00000</ele>
        <time>2010-01-01T01:10:12Z</time>
      </trkpt>
      <trkpt lat="43.50415000" lon="12.94496000">
        <ele>417.00000</ele>
        <time>2010-01-01T01:10:17Z</time>
      </trkpt>
      <trkpt lat="43.50336000" lon="12.94430000">
        <ele>420.00000</ele>
        <time>2010-01-01T01:10:54Z</time>
      </trkpt>
      <trkpt lat="43.50318000" lon="12.94425000">
        <ele>421.00000</ele>
        <time>2010-01-01T01:11:01Z</time>
      </trkpt>
      <trkpt lat="43.50297000" lon="12.94430000">
        <ele>421.00000</ele>
        <time>2010-01-01T01:11:10Z</time>
      </trkpt>
      <trkpt lat="43.50274000" lon="12.94445000">
        <ele>421.00000</ele>
        <time>2010-01-01T01:11:20Z</time>
      </trkpt>
      <trkpt lat="43.50247000" lon="12.94458000">
        <ele>422.00000</ele>
        <time>2010-01-01T01:11:31Z</time>
      </trkpt>
      <trkpt lat="43.50208920" lon="12.94463630">
        <ele>425.00000</ele>
        <time>2010-01-01T01:11:47Z</time>
      </trkpt>
      <trkpt lat="43.50155150" lon="12.94460590">
        <ele>429.00000</ele>
        <time>2010-01-01T01:12:08Z</time>
      </trkpt>
      <trkpt lat="43.50132080" lon="12.94454840">
        <ele>432.00000</ele>
        <time>2010-01-01T01:12:18Z</time>
      </trkpt>
      <trkpt lat="43.50102470" lon="12.94439500">
        <ele>436.00000</ele>
        <time>2010-01-01T01:12:30Z</time>
      </trkpt>
      <trkpt lat="43.50070630" lon="12.94417660">
        <ele>438.00000</ele>
        <time>2010-01-01T01:12:44Z</time>
      </trkpt>
      <trkpt lat="43.50046050" lon="12.94391530">
        <ele>440.00000</ele>
        <time>2010-01-01T01:12:57Z</time>
      </trkpt>
      <trkpt lat="43.50023970" lon="12.94366450">
        <ele>442.00000</ele>
        <time>2010-01-01T01:13:08Z</time>
      </trkpt>
      <trkpt lat="43.50014400" lon="12.94348230">
        <ele>444.00000</ele>
        <time>2010-01-01T01:13:15Z</time>
      </trkpt>
      <trkpt lat="43.50010460" lon="12.94329490">
        <ele>447.00000</ele>
        <time>2010-01-01T01:13:21Z</time>
      </trkpt>
      <trkpt lat="43.50023180" lon="12.94318570">
        <ele>451.00000</ele>
        <time>2010-01-01T01:13:27Z</time>
      </trkpt>
      <trkpt lat="43.50039440" lon="12.94336900">
        <ele>452.00000</ele>
        <time>2010-01-01T01:13:35Z</time>
      </trkpt>
      <trkpt lat="43.50058660" lon="12.94362570">
        <ele>451.00000</ele>
        <time>2010-01-01T01:13:46Z</time>
      </trkpt>
      <trkpt lat="43.50071500" lon="12.94374910">
        <ele>450.00000</ele>
        <time>2010-01-01T01:13:52Z</time>
      </trkpt>
      <trkpt lat="43.50089920" lon="12.94374020">
        <ele>452.00000</ele>
        <time>2010-01-01T01:13:59Z</time>
      </trkpt>
      <trkpt lat="43.50116200" lon="12.94368500">
        <ele>452.00000</ele>
        <time>2010-01-01T01:14:10Z</time>
      </trkpt>
      <trkpt lat="43.50147390" lon="12.94360890">
        <ele>450.00000</ele>
        <time>2010-01-01T01:14:23Z</time>
      </trkpt>
      <trkpt lat="43.50169980" lon="12.94362980">
        <ele>450.00000</ele>
        <time>2010-01-01T01:14:32Z</time>
      </trkpt>
      <trkpt lat="43.50191250" lon="12.94367160">
        <ele>452.00000</ele>
        <time>2010-01-01T01:14:40Z</time>
      </trkpt>
      <trkpt lat="43.50206840" lon="12.94357200">
        <ele>456.00000</ele>
        <time>2010-01-01T01:14:47Z</time>
      </trkpt>
      <trkpt lat="43.50198000" lon="12.94335000">
        <ele>464.00000</ele>
        <time>2010-01-01T01:14:54Z</time>
      </trkpt>
      <trkpt lat="43.50185000" lon="12.94330000">
        <ele>464.00000</ele>
        <time>2010-01-01T01:15:00Z</time>
      </trkpt>
      <trkpt lat="43.50166000" lon="12.94329000">
        <ele>462.00000</ele>
        <time>2010-01-01T01:15:08Z</time>
      </trkpt>
      <trkpt lat="43.50145470" lon="12.94336140">
        <ele>457.00000</ele>
        <time>2010-01-01T01:15:16Z</time>
      </trkpt>
      <trkpt lat="43.50118990" lon="12.94339410">
        <ele>459.00000</ele>
        <time>2010-01-01T01:15:27Z</time>
      </trkpt>
      <trkpt lat="43.50094380" lon="12.94339630">
        <ele>460.00000</ele>
        <time>2010-01-01T01:15:36Z</time>
      </trkpt>
      <trkpt lat="43.50077590" lon="12.94328330">
        <ele>462.00000</ele>
        <time>2010-01-01T01:15:44Z</time>
      </trkpt>
      <trkpt lat="43.50063780" lon="12.94302830">
        <ele>467.00000</ele>
        <time>2010-01-01T01:15:53Z</time>
      </trkpt>
      <trkpt lat="43.50049410" lon="12.94274040">
        <ele>472.00000</ele>
        <time>2010-01-01T01:16:03Z</time>
      </trkpt>
      <trkpt lat="43.50026410" lon="12.94258450">
        <ele>469.00000</ele>
        <time>2010-01-01T01:16:14Z</time>
      </trkpt>
      <trkpt lat="43.49994160" lon="12.94228230">
        <ele>471.00000</ele>
        <time>2010-01-01T01:16:29Z</time>
      </trkpt>
      <trkpt lat="43.49966410" lon="12.94209120">
        <ele>475.00000</ele>
        <time>2010-01-01T01:16:42Z</time>
      </trkpt>
      <trkpt lat="43.49935680" lon="12.94171110">
        <ele>483.00000</ele>
        <time>2010-01-01T01:16:58Z</time>
      </trkpt>
      <trkpt lat="43.49906460" lon="12.94120480">
        <ele>489.00000</ele>
        <time>2010-01-01T01:17:17Z</time>
      </trkpt>
      <trkpt lat="43.49881160" lon="12.94080940">
        <ele>490.00000</ele>
        <time>2010-01-01T01:17:32Z</time>
      </trkpt>
      <trkpt lat="43.49856340" lon="12.94039970">
        <ele>490.00000</ele>
        <time>2010-01-01T01:17:48Z</time>
      </trkpt>
      <trkpt lat="43.49830260" lon="12.94002960">
        <ele>493.00000</ele>
        <time>2010-01-01T01:18:03Z</time>
      </trkpt>
      <trkpt lat="43.49817100" lon="12.93978190">
        <ele>499.00000</ele>
        <time>2010-01-01T01:18:12Z</time>
      </trkpt>
      <trkpt lat="43.49804820" lon="12.93961600">
        <ele>501.00000</ele>
        <time>2010-01-01T01:18:19Z</time>
      </trkpt>
      <trkpt lat="43.49802620" lon="12.93940570">
        <ele>506.00000</ele>
        <time>2010-01-01T01:18:25Z</time>
      </trkpt>
      <trkpt lat="43.49808700" lon="12.93929150">
        <ele>509.00000</ele>
        <time>2010-01-01T01:18:29Z</time>
      </trkpt>
      <trkpt lat="43.49819950" lon="12.93926860">
        <ele>511.00000</ele>
        <time>2010-01-01T01:18:33Z</time>
      </trkpt>
      <trkpt lat="43.49844940" lon="12.93952180">
        <ele>509.00000</ele>
        <time>2010-01-01T01:18:46Z</time>
      </trkpt>
      <trkpt lat="43.49871120" lon="12.93985330">
        <ele>507.00000</ele>
        <time>2010-01-01T01:19:00Z</time>
      </trkpt>
      <trkpt lat="43.49904490" lon="12.94025480">
        <ele>507.00000</ele>
        <time>2010-01-01T01:19:18Z</time>
      </trkpt>
      <trkpt lat="43.50046920" lon="12.94180460">
        <ele>519.00000</ele>
        <time>2010-01-01T01:20:30Z</time>
      </trkpt>
      <trkpt lat="43.50071540" lon="12.94190930">
        <ele>523.00000</ele>
        <time>2010-01-01T01:20:41Z</time>
      </trkpt>
      <trkpt lat="43.50088000" lon="12.94190000">
        <ele>525.00000</ele>
        <time>2010-01-01T01:20:47Z</time>
      </trkpt>
      <trkpt lat="43.50096000" lon="12.94180000">
        <ele>528.00000</ele>
        <time>2010-01-01T01:20:52Z</time>
      </trkpt>
      <trkpt lat="43.50098000" lon="12.94172000">
        <ele>531.00000</ele>
        <time>2010-01-01T01:20:54Z</time>
      </trkpt>
      <trkpt lat="43.50087000" lon="12.94150000">
        <ele>535.00000</ele>
        <time>2010-01-01T01:21:02Z</time>
      </trkpt>
      <trkpt lat="43.50057000" lon="12.94100000">
        <ele>541.00000</ele>
        <time>2010-01-01T01:21:21Z</time>
      </trkpt>
      <trkpt lat="43.50057000" lon="12.94099000">
        <ele>541.00000</ele>
        <time>2010-01-01T01:21:21Z</time>
      </trkpt>
      <trkpt lat="43.49998000" lon="12.93998000">
        <ele>539.00000</ele>
        <time>2010-01-01T01:21:59Z</time>
      </trkpt>
      <trkpt lat="43.49959000" lon="12.93937000">
        <ele>542.00000</ele>
        <time>2010-01-01T01:22:22Z</time>
      </trkpt>
      <trkpt lat="43.49926170" lon="12.93869060">
        <ele>544.00000</ele>
        <time>2010-01-01T01:22:46Z</time>
      </trkpt>
      <trkpt lat="43.49878830" lon="12.93812650">
        <ele>543.00000</ele>
        <time>2010-01-01T01:23:11Z</time>
      </trkpt>
      <trkpt lat="43.49863420" lon="12.93786190">
        <ele>544.00000</ele>
        <time>2010-01-01T01:23:21Z</time>
      </trkpt>
      <trkpt lat="43.49856780" lon="12.93748600">
        <ele>544.00000</ele>
        <time>2010-01-01T01:23:32Z</time>
      </trkpt>
      <trkpt lat="43.49853020" lon="12.93718870">
        <ele>540.00000</ele>
        <time>2010-01-01T01:23:41Z</time>
      </trkpt>
      <trkpt lat="43.49823610" lon="12.93672430">
        <ele>539.00000</ele>
        <time>2010-01-01T01:23:59Z</time>
      </trkpt>
      <trkpt lat="43.49783460" lon="12.93629430">
        <ele>540.00000</ele>
        <time>2010-01-01T01:24:19Z</time>
      </trkpt>
      <trkpt lat="43.49753660" lon="12.93595670">
        <ele>535.00000</ele>
        <time>2010-01-01T01:24:35Z</time>
      </trkpt>
      <trkpt lat="43.49737680" lon="12.93585940">
        <ele>533.00000</ele>
        <time>2010-01-01T01:24:42Z</time>
      </trkpt>
      <trkpt lat="43.49714440" lon="12.93595520">
        <ele>537.00000</ele>
        <time>2010-01-01T01:24:51Z</time>
      </trkpt>
      <trkpt lat="43.49686920" lon="12.93614480">
        <ele>539.00000</ele>
        <time>2010-01-01T01:25:04Z</time>
      </trkpt>
      <trkpt lat="43.49644120" lon="12.93644720">
        <ele>535.00000</ele>
        <time>2010-01-01T01:25:23Z</time>
      </trkpt>
      <trkpt lat="43.49618940" lon="12.93648310">
        <ele>539.00000</ele>
        <time>2010-01-01T01:25:33Z</time>
      </trkpt>
      <trkpt lat="43.49595000" lon="12.93630000">
        <ele>538.00000</ele>
        <time>2010-01-01T01:25:44Z</time>
      </trkpt>
      <trkpt lat="43.49571000" lon="12.93611000">
        <ele>537.00000</ele>
        <time>2010-01-01T01:25:55Z</time>
      </trkpt>
      <trkpt lat="43.49556000" lon="12.93594000">
        <ele>535.00000</ele>
        <time>2010-01-01T01:26:03Z</time>
      </trkpt>
      <trkpt lat="43.49541000" lon="12.93572000">
        <ele>535.00000</ele>
        <time>2010-01-01T01:26:12Z</time>
      </trkpt>
      <trkpt lat="43.49528000" lon="12.93550000">
        <ele>537.00000</ele>
        <time>2010-01-01T01:26:20Z</time>
      </trkpt>
      <trkpt lat="43.49516000" lon="12.93520000">
        <ele>536.00000</ele>
        <time>2010-01-01T01:26:30Z</time>
      </trkpt>
      <trkpt lat="43.49508000" lon="12.93487000">
        <ele>533.00000</ele>
        <time>2010-01-01T01:26:40Z</time>
      </trkpt>
      <trkpt lat="43.49506000" lon="12.93454000">
        <ele>534.00000</ele>
        <time>2010-01-01T01:26:49Z</time>
      </trkpt>
      <trkpt lat="43.49522000" lon="12.93406000">
        <ele>530.00000</ele>
        <time>2010-01-01T01:27:05Z</time>
      </trkpt>
      <trkpt lat="43.49529000" lon="12.93352000">
        <ele>534.00000</ele>
        <time>2010-01-01T01:27:21Z</time>
      </trkpt>
      <trkpt lat="43.49540000" lon="12.93290000">
        <ele>533.00000</ele>
        <time>2010-01-01T01:27:39Z</time>
      </trkpt>
      <trkpt lat="43.49539000" lon="12.93255000">
        <ele>533.00000</ele>
        <time>2010-01-01T01:27:49Z</time>
      </trkpt>
      <trkpt lat="43.49516000" lon="12.93178000">
        <ele>533.00000</ele>
        <time>2010-01-01T01:28:14Z</time>
      </trkpt>
      <trkpt lat="43.49457000" lon="12.93013000">
        <ele>524.00000</ele>
        <time>2010-01-01T01:29:07Z</time>
      </trkpt>
      <trkpt lat="43.49432000" lon="12.92959000">
        <ele>521.00000</ele>
        <time>2010-01-01T01:29:26Z</time>
      </trkpt>
      <trkpt lat="43.49407000" lon="12.92936000">
        <ele>520.00000</ele>
        <time>2010-01-01T01:29:38Z</time>
      </trkpt>
      <trkpt lat="43.49389000" lon="12.92931000">
        <ele>518.00000</ele>
        <time>2010-01-01T01:29:45Z</time>
      </trkpt>
      <trkpt lat="43.49371000" lon="12.92938000">
        <ele>517.00000</ele>
        <time>2010-01-01T01:29:52Z</time>
      </trkpt>
      <trkpt lat="43.49278000" lon="12.93030000">
        <ele>517.00000</ele>
        <time>2010-01-01T01:30:38Z</time>
      </trkpt>
      <trkpt lat="43.49252000" lon="12.93050000">
        <ele>515.00000</ele>
        <time>2010-01-01T01:30:50Z</time>
      </trkpt>
      <trkpt lat="43.49228000" lon="12.93061000">
        <ele>514.00000</ele>
        <time>2010-01-01T01:31:00Z</time>
      </trkpt>
      <trkpt lat="43.49171000" lon="12.93065000">
        <ele>502.00000</ele>
        <time>2010-01-01T01:31:23Z</time>
      </trkpt>
      <trkpt lat="43.49143000" lon="12.93084000">
        <ele>499.00000</ele>
        <time>2010-01-01T01:31:36Z</time>
      </trkpt>
      <trkpt lat="43.49110000" lon="12.93145000">
        <ele>499.00000</ele>
        <time>2010-01-01T01:31:58Z</time>
      </trkpt>
      <trkpt lat="43.49078000" lon="12.93257000">
        <ele>496.00000</ele>
        <time>2010-01-01T01:32:33Z</time>
      </trkpt>
      <trkpt lat="43.49066000" lon="12.93293000">
        <ele>497.00000</ele>
        <time>2010-01-01T01:32:44Z</time>
      </trkpt>
      <trkpt lat="43.49052000" lon="12.93322000">
        <ele>496.00000</ele>
        <time>2010-01-01T01:32:54Z</time>
      </trkpt>
      <trkpt lat="43.49041000" lon="12.93338000">
        <ele>494.00000</ele>
        <time>2010-01-01T01:33:01Z</time>
      </trkpt>
      <trkpt lat="43.48953000" lon="12.93422000">
        <ele>485.00000</ele>
        <time>2010-01-01T01:33:44Z</time>
      </trkpt>
      <trkpt lat="43.48947000" lon="12.93424000">
        <ele>482.00000</ele>
        <time>2010-01-01T01:33:46Z</time>
      </trkpt>
      <trkpt lat="43.48942000" lon="12.93423000">
        <ele>479.00000</ele>
        <time>2010-01-01T01:33:48Z</time>
      </trkpt>
      <trkpt lat="43.48938000" lon="12.93417000">
        <ele>475.00000</ele>
        <time>2010-01-01T01:33:50Z</time>
      </trkpt>
      <trkpt lat="43.48937000" lon="12.93408000">
        <ele>471.00000</ele>
        <time>2010-01-01T01:33:53Z</time>
      </trkpt>
      <trkpt lat="43.48938000" lon="12.93397000">
        <ele>469.00000</ele>
        <time>2010-01-01T01:33:56Z</time>
      </trkpt>
      <trkpt lat="43.48944000" lon="12.93387000">
        <ele>468.00000</ele>
        <time>2010-01-01T01:34:00Z</time>
      </trkpt>
      <trkpt lat="43.48953000" lon="12.93379000">
        <ele>470.00000</ele>
        <time>2010-01-01T01:34:04Z</time>
      </trkpt>
      <trkpt lat="43.48987000" lon="12.93362000">
        <ele>481.00000</ele>
        <time>2010-01-01T01:34:19Z</time>
      </trkpt>
      <trkpt lat="43.48998000" lon="12.93352000">
        <ele>483.00000</ele>
        <time>2010-01-01T01:34:24Z</time>
      </trkpt>
      <trkpt lat="43.49011000" lon="12.93339000">
        <ele>483.00000</ele>
        <time>2010-01-01T01:34:31Z</time>
      </trkpt>
      <trkpt lat="43.49025000" lon="12.93320000">
        <ele>480.00000</ele>
        <time>2010-01-01T01:34:38Z</time>
      </trkpt>
      <trkpt lat="43.49033000" lon="12.93304000">
        <ele>479.00000</ele>
        <time>2010-01-01T01:34:44Z</time>
      </trkpt>
      <trkpt lat="43.49039000" lon="12.93287000">
        <ele>479.00000</ele>
        <time>2010-01-01T01:34:50Z</time>
      </trkpt>
      <trkpt lat="43.49044000" lon="12.93267000">
        <ele>479.00000</ele>
        <time>2010-01-01T01:34:56Z</time>
      </trkpt>
      <trkpt lat="43.49093000" lon="12.92982000">
        <ele>465.00000</ele>
        <time>2010-01-01T01:36:21Z</time>
      </trkpt>
      <trkpt lat="43.49095000" lon="12.92966000">
        <ele>465.00000</ele>
        <time>2010-01-01T01:36:25Z</time>
      </trkpt>
      <trkpt lat="43.49094000" lon="12.92952000">
        <ele>464.00000</ele>
        <time>2010-01-01T01:36:30Z</time>
      </trkpt>
      <trkpt lat="43.49088000" lon="12.92934000">
        <ele>463.00000</ele>
        <time>2010-01-01T01:36:35Z</time>
      </trkpt>
      <trkpt lat="43.49043000" lon="12.92873000">
        <ele>459.00000</ele>
        <time>2010-01-01T01:37:01Z</time>
      </trkpt>
      <trkpt lat="43.49033000" lon="12.92852000">
        <ele>459.00000</ele>
        <time>2010-01-01T01:37:08Z</time>
      </trkpt>
      <trkpt lat="43.49028000" lon="12.92835000">
        <ele>459.00000</ele>
        <time>2010-01-01T01:37:13Z</time>
      </trkpt>
      <trkpt lat="43.49025000" lon="12.92789000">
        <ele>461.00000</ele>
        <time>2010-01-01T01:37:27Z</time>
      </trkpt>
      <trkpt lat="43.49023000" lon="12.92771000">
        <ele>461.00000</ele>
        <time>2010-01-01T01:37:32Z</time>
      </trkpt>
      <trkpt lat="43.49016000" lon="12.92751000">
        <ele>460.00000</ele>
        <time>2010-01-01T01:37:38Z</time>
      </trkpt>
      <trkpt lat="43.49006000" lon="12.92735000">
        <ele>459.00000</ele>
        <time>2010-01-01T01:37:44Z</time>
      </trkpt>
      <trkpt lat="43.48996000" lon="12.92725000">
        <ele>458.00000</ele>
        <time>2010-01-01T01:37:49Z</time>
      </trkpt>
      <trkpt lat="43.48989000" lon="12.92722000">
        <ele>458.00000</ele>
        <time>2010-01-01T01:37:52Z</time>
      </trkpt>
      <trkpt lat="43.48988000" lon="12.92722000">
        <ele>458.00000</ele>
        <time>2010-01-01T01:37:53Z</time>
      </trkpt>
      <trkpt lat="43.48962000" lon="12.92716000">
        <ele>456.00000</ele>
        <time>2010-01-01T01:38:03Z</time>
      </trkpt>
      <trkpt lat="43.48958000" lon="12.92712000">
        <ele>454.00000</ele>
        <time>2010-01-01T01:38:05Z</time>
      </trkpt>
      <trkpt lat="43.48974000" lon="12.92697000">
        <ele>452.00000</ele>
        <time>2010-01-01T01:38:13Z</time>
      </trkpt>
      <trkpt lat="43.48983000" lon="12.92693000">
        <ele>452.00000</ele>
        <time>2010-01-01T01:38:17Z</time>
      </trkpt>
      <trkpt lat="43.49001000" lon="12.92695000">
        <ele>454.00000</ele>
        <time>2010-01-01T01:38:24Z</time>
      </trkpt>
      <trkpt lat="43.49023000" lon="12.92704000">
        <ele>454.00000</ele>
        <time>2010-01-01T01:38:33Z</time>
      </trkpt>
      <trkpt lat="43.49033000" lon="12.92703000">
        <ele>452.00000</ele>
        <time>2010-01-01T01:38:37Z</time>
      </trkpt>
      <trkpt lat="43.49041000" lon="12.92697000">
        <ele>450.00000</ele>
        <time>2010-01-01T01:38:41Z</time>
      </trkpt>
      <trkpt lat="43.49045000" lon="12.92687000">
        <ele>448.00000</ele>
        <time>2010-01-01T01:38:44Z</time>
      </trkpt>
      <trkpt lat="43.49045000" lon="12.92675000">
        <ele>448.00000</ele>
        <time>2010-01-01T01:38:48Z</time>
      </trkpt>
      <trkpt lat="43.49042000" lon="12.92664000">
        <ele>448.00000</ele>
        <time>2010-01-01T01:38:51Z</time>
      </trkpt>
      <trkpt lat="43.49035000" lon="12.92657000">
        <ele>448.00000</ele>
        <time>2010-01-01T01:38:55Z</time>
      </trkpt>
      <trkpt lat="43.49026000" lon="12.92654000">
        <ele>448.00000</ele>
        <time>2010-01-01T01:38:58Z</time>
      </trkpt>
      <trkpt lat="43.48985000" lon="12.92650000">
        <ele>445.00000</ele>
        <time>2010-01-01T01:39:15Z</time>
      </trkpt>
      <trkpt lat="43.48971000" lon="12.92651000">
        <ele>444.00000</ele>
        <time>2010-01-01T01:39:20Z</time>
      </trkpt>
      <trkpt lat="43.48958000" lon="12.92656000">
        <ele>443.00000</ele>
        <time>2010-01-01T01:39:26Z</time>
      </trkpt>
      <trkpt lat="43.48900000" lon="12.92684000">
        <ele>442.00000</ele>
        <time>2010-01-01T01:39:50Z</time>
      </trkpt>
      <trkpt lat="43.48890000" lon="12.92687000">
        <ele>442.00000</ele>
        <time>2010-01-01T01:39:54Z</time>
      </trkpt>
      <trkpt lat="43.48880000" lon="12.92683000">
        <ele>442.00000</ele>
        <time>2010-01-01T01:39:59Z</time>
      </trkpt>
      <trkpt lat="43.48873000" lon="12.92676000">
        <ele>441.00000</ele>
        <time>2010-01-01T01:40:02Z</time>
      </trkpt>
      <trkpt lat="43.48870000" lon="12.92663000">
        <ele>439.00000</ele>
        <time>2010-01-01T01:40:06Z</time>
      </trkpt>
      <trkpt lat="43.48876000" lon="12.92647000">
        <ele>435.00000</ele>
        <time>2010-01-01T01:40:11Z</time>
      </trkpt>
      <trkpt lat="43.48891000" lon="12.92629000">
        <ele>432.00000</ele>
        <time>2010-01-01T01:40:19Z</time>
      </trkpt>
      <trkpt lat="43.48924000" lon="12.92604000">
        <ele>430.00000</ele>
        <time>2010-01-01T01:40:34Z</time>
      </trkpt>
      <trkpt lat="43.49011000" lon="12.92574000">
        <ele>426.00000</ele>
        <time>2010-01-01T01:41:10Z</time>
      </trkpt>
      <trkpt lat="43.49031000" lon="12.92563000">
        <ele>422.00000</ele>
        <time>2010-01-01T01:41:19Z</time>
      </trkpt>
      <trkpt lat="43.49058000" lon="12.92553000">
        <ele>418.00000</ele>
        <time>2010-01-01T01:41:30Z</time>
      </trkpt>
      <trkpt lat="43.49066000" lon="12.92553000">
        <ele>418.00000</ele>
        <time>2010-01-01T01:41:33Z</time>
      </trkpt>
      <trkpt lat="43.49073000" lon="12.92556000">
        <ele>418.00000</ele>
        <time>2010-01-01T01:41:36Z</time>
      </trkpt>
      <trkpt lat="43.49080000" lon="12.92567000">
        <ele>420.00000</ele>
        <time>2010-01-01T01:41:40Z</time>
      </trkpt>
      <trkpt lat="43.49110000" lon="12.92624000">
        <ele>418.00000</ele>
        <time>2010-01-01T01:42:01Z</time>
      </trkpt>
      <trkpt lat="43.49120000" lon="12.92647000">
        <ele>417.00000</ele>
        <time>2010-01-01T01:42:09Z</time>
      </trkpt>
      <trkpt lat="43.49136000" lon="12.92664000">
        <ele>414.00000</ele>
        <time>2010-01-01T01:42:17Z</time>
      </trkpt>
      <trkpt lat="43.49151000" lon="12.92674000">
        <ele>412.00000</ele>
        <time>2010-01-01T01:42:23Z</time>
      </trkpt>
      <trkpt lat="43.49174000" lon="12.92699000">
        <ele>411.00000</ele>
        <time>2010-01-01T01:42:35Z</time>
      </trkpt>
      <trkpt lat="43.49184000" lon="12.92719000">
        <ele>412.00000</ele>
        <time>2010-01-01T01:42:42Z</time>
      </trkpt>
      <trkpt lat="43.49202000" lon="12.92744000">
        <ele>415.00000</ele>
        <time>2010-01-01T01:42:52Z</time>
      </trkpt>
      <trkpt lat="43.49212000" lon="12.92745000">
        <ele>416.00000</ele>
        <time>2010-01-01T01:42:56Z</time>
      </trkpt>
      <trkpt lat="43.49219000" lon="12.92734000">
        <ele>412.00000</ele>
        <time>2010-01-01T01:43:01Z</time>
      </trkpt>
      <trkpt lat="43.49219000" lon="12.92716000">
        <ele>407.00000</ele>
        <time>2010-01-01T01:43:06Z</time>
      </trkpt>
      <trkpt lat="43.49210000" lon="12.92695000">
        <ele>404.00000</ele>
        <time>2010-01-01T01:43:13Z</time>
      </trkpt>
      <trkpt lat="43.49202000" lon="12.92666000">
        <ele>402.00000</ele>
        <time>2010-01-01T01:43:22Z</time>
      </trkpt>
      <trkpt lat="43.49206000" lon="12.92642000">
        <ele>397.00000</ele>
        <time>2010-01-01T01:43:29Z</time>
      </trkpt>
      <trkpt lat="43.49207000" lon="12.92608000">
        <ele>392.00000</ele>
        <time>2010-01-01T01:43:39Z</time>
      </trkpt>
      <trkpt lat="43.49200000" lon="12.92598000">
        <ele>391.00000</ele>
        <time>2010-01-01T01:43:43Z</time>
      </trkpt>
      <trkpt lat="43.49163000" lon="12.92598000">
        <ele>397.00000</ele>
        <time>2010-01-01T01:43:58Z</time>
      </trkpt>
      <trkpt lat="43.49146000" lon="12.92575000">
        <ele>397.00000</ele>
        <time>2010-01-01T01:44:07Z</time>
      </trkpt>
      <trkpt lat="43.49133000" lon="12.92538000">
        <ele>393.00000</ele>
        <time>2010-01-01T01:44:19Z</time>
      </trkpt>
      <trkpt lat="43.49106000" lon="12.92491000">
        <ele>391.00000</ele>
        <time>2010-01-01T01:44:37Z</time>
      </trkpt>
      <trkpt lat="43.49104000" lon="12.92477000">
        <ele>389.00000</ele>
        <time>2010-01-01T01:44:41Z</time>
      </trkpt>
      <trkpt lat="43.49109000" lon="12.92465000">
        <ele>387.00000</ele>
        <time>2010-01-01T01:44:45Z</time>
      </trkpt>
      <trkpt lat="43.49117000" lon="12.92463000">
        <ele>385.00000</ele>
        <time>2010-01-01T01:44:48Z</time>
      </trkpt>
      <trkpt lat="43.49130000" lon="12.92464000">
        <ele>383.00000</ele>
        <time>2010-01-01T01:44:53Z</time>
      </trkpt>
      <trkpt lat="43.49153000" lon="12.92497000">
        <ele>382.00000</ele>
        <time>2010-01-01T01:45:07Z</time>
      </trkpt>
      <trkpt lat="43.49169000" lon="12.92508000">
        <ele>382.00000</ele>
        <time>2010-01-01T01:45:14Z</time>
      </trkpt>
      <trkpt lat="43.49182000" lon="12.92509000">
        <ele>381.00000</ele>
        <time>2010-01-01T01:45:19Z</time>
      </trkpt>
      <trkpt lat="43.49197000" lon="12.92503000">
        <ele>379.00000</ele>
        <time>2010-01-01T01:45:25Z</time>
      </trkpt>
      <trkpt lat="43.49254000" lon="12.92462000">
        <ele>374.00000</ele>
        <time>2010-01-01T01:45:51Z</time>
      </trkpt>
      <trkpt lat="43.49264000" lon="12.92458000">
        <ele>372.00000</ele>
        <time>2010-01-01T01:45:55Z</time>
      </trkpt>
      <trkpt lat="43.49274000" lon="12.92457000">
        <ele>371.00000</ele>
        <time>2010-01-01T01:45:59Z</time>
      </trkpt>
      <trkpt lat="43.49286000" lon="12.92459000">
        <ele>369.00000</ele>
        <time>2010-01-01T01:46:04Z</time>
      </trkpt>
      <trkpt lat="43.49295000" lon="12.92465000">
        <ele>369.00000</ele>
        <time>2010-01-01T01:46:08Z</time>
      </trkpt>
      <trkpt lat="43.49329000" lon="12.92512000">
        <ele>370.00000</ele>
        <time>2010-01-01T01:46:27Z</time>
      </trkpt>
      <trkpt lat="43.49339000" lon="12.92519000">
        <ele>371.00000</ele>
        <time>2010-01-01T01:46:32Z</time>
      </trkpt>
      <trkpt lat="43.49348000" lon="12.92521000">
        <ele>372.00000</ele>
        <time>2010-01-01T01:46:35Z</time>
      </trkpt>
      <trkpt lat="43.49357000" lon="12.92519000">
        <ele>371.00000</ele>
        <time>2010-01-01T01:46:39Z</time>
      </trkpt>
      <trkpt lat="43.49365000" lon="12.92513000">
        <ele>369.00000</ele>
        <time>2010-01-01T01:46:43Z</time>
      </trkpt>
      <trkpt lat="43.49374000" lon="12.92502000">
        <ele>366.00000</ele>
        <time>2010-01-01T01:46:48Z</time>
      </trkpt>
      <trkpt lat="43.49411000" lon="12.92443000">
        <ele>368.00000</ele>
        <time>2010-01-01T01:47:10Z</time>
      </trkpt>
      <trkpt lat="43.49419000" lon="12.92434000">
        <ele>370.00000</ele>
        <time>2010-01-01T01:47:14Z</time>
      </trkpt>
      <trkpt lat="43.49433000" lon="12.92425000">
        <ele>374.00000</ele>
        <time>2010-01-01T01:47:21Z</time>
      </trkpt>
      <trkpt lat="43.49447000" lon="12.92423000">
        <ele>376.00000</ele>
        <time>2010-01-01T01:47:26Z</time>
      </trkpt>
      <trkpt lat="43.49461000" lon="12.92428000">
        <ele>374.00000</ele>
        <time>2010-01-01T01:47:32Z</time>
      </trkpt>
      <trkpt lat="43.49472000" lon="12.92438000">
        <ele>373.00000</ele>
        <time>2010-01-01T01:47:37Z</time>
      </trkpt>
      <trkpt lat="43.49505000" lon="12.92483000">
        <ele>372.00000</ele>
        <time>2010-01-01T01:47:56Z</time>
      </trkpt>
      <trkpt lat="43.49534000" lon="12.92514000">
        <ele>369.00000</ele>
        <time>2010-01-01T01:48:11Z</time>
      </trkpt>
      <trkpt lat="43.49559000" lon="12.92534000">
        <ele>364.00000</ele>
        <time>2010-01-01T01:48:22Z</time>
      </trkpt>
      <trkpt lat="43.49602000" lon="12.92557000">
        <ele>367.00000</ele>
        <time>2010-01-01T01:48:41Z</time>
      </trkpt>
      <trkpt lat="43.49670000" lon="12.92644000">
        <ele>360.00000</ele>
        <time>2010-01-01T01:49:18Z</time>
      </trkpt>
      <trkpt lat="43.49701000" lon="12.92671000">
        <ele>362.00000</ele>
        <time>2010-01-01T01:49:32Z</time>
      </trkpt>
      <trkpt lat="43.49716000" lon="12.92689000">
        <ele>364.00000</ele>
        <time>2010-01-01T01:49:40Z</time>
      </trkpt>
      <trkpt lat="43.49748000" lon="12.92760000">
        <ele>360.00000</ele>
        <time>2010-01-01T01:50:05Z</time>
      </trkpt>
      <trkpt lat="43.49797000" lon="12.92911000">
        <ele>355.00000</ele>
        <time>2010-01-01T01:50:53Z</time>
      </trkpt>
      <trkpt lat="43.49851000" lon="12.93062000">
        <ele>346.00000</ele>
        <time>2010-01-01T01:51:42Z</time>
      </trkpt>
      <trkpt lat="43.49885000" lon="12.93137000">
        <ele>347.00000</ele>
        <time>2010-01-01T01:52:07Z</time>
      </trkpt>
      <trkpt lat="43.49978000" lon="12.93273000">
        <ele>349.00000</ele>
        <time>2010-01-01T01:53:01Z</time>
      </trkpt>
      <trkpt lat="43.50026000" lon="12.93325000">
        <ele>345.00000</ele>
        <time>2010-01-01T01:53:26Z</time>
      </trkpt>
      <trkpt lat="43.50103000" lon="12.93350000">
        <ele>357.00000</ele>
        <time>2010-01-01T01:53:58Z</time>
      </trkpt>
      <trkpt lat="43.50157000" lon="12.93381000">
        <ele>359.00000</ele>
        <time>2010-01-01T01:54:21Z</time>
      </trkpt>
      <trkpt lat="43.50157000" lon="12.93380000">
        <ele>359.00000</ele>
        <time>2010-01-01T01:54:21Z</time>
      </trkpt>
      <trkpt lat="43.50173000" lon="12.93390000">
        <ele>358.00000</ele>
        <time>2010-01-01T01:54:28Z</time>
      </trkpt>
      <trkpt lat="43.50254000" lon="12.93516000">
        <ele>346.00000</ele>
        <time>2010-01-01T01:55:17Z</time>
      </trkpt>
      <trkpt lat="43.50262000" lon="12.93623000">
        <ele>343.00000</ele>
        <time>2010-01-01T01:55:48Z</time>
      </trkpt>
      <trkpt lat="43.50299000" lon="12.93706000">
        <ele>340.00000</ele>
        <time>2010-01-01T01:56:17Z</time>
      </trkpt>
      <trkpt lat="43.50398000" lon="12.93813000">
        <ele>339.00000</ele>
        <time>2010-01-01T01:57:07Z</time>
      </trkpt>
      <trkpt lat="43.50525000" lon="12.93998000">
        <ele>336.00000</ele>
        <time>2010-01-01T01:58:21Z</time>
      </trkpt>
      <trkpt lat="43.50582000" lon="12.94092000">
        <ele>340.00000</ele>
        <time>2010-01-01T01:58:57Z</time>
      </trkpt>
      <trkpt lat="43.50593000" lon="12.94122000">
        <ele>336.00000</ele>
        <time>2010-01-01T01:59:06Z</time>
      </trkpt>
      <trkpt lat="43.50662000" lon="12.94268000">
        <ele>330.00000</ele>
        <time>2010-01-01T01:59:57Z</time>
      </trkpt>
      <trkpt lat="43.50744000" lon="12.94390000">
        <ele>326.00000</ele>
        <time>2010-01-01T02:00:45Z</time>
      </trkpt>
      <trkpt lat="43.50798000" lon="12.94441000">
        <ele>318.00000</ele>
        <time>2010-01-01T02:01:11Z</time>
      </trkpt>
      <trkpt lat="43.50811000" lon="12.94460000">
        <ele>317.00000</ele>
        <time>2010-01-01T02:01:19Z</time>
      </trkpt>
      <trkpt lat="43.50815000" lon="12.94478000">
        <ele>316.00000</ele>
        <time>2010-01-01T02:01:25Z</time>
      </trkpt>
      <trkpt lat="43.50820000" lon="12.94514000">
        <ele>314.00000</ele>
        <time>2010-01-01T02:01:35Z</time>
      </trkpt>
      <trkpt lat="43.50827000" lon="12.94534000">
        <ele>311.00000</ele>
        <time>2010-01-01T02:01:42Z</time>
      </trkpt>
      <trkpt lat="43.50839000" lon="12.94551000">
        <ele>309.00000</ele>
        <time>2010-01-01T02:01:48Z</time>
      </trkpt>
      <trkpt lat="43.50859000" lon="12.94567000">
        <ele>311.00000</ele>
        <time>2010-01-01T02:01:58Z</time>
      </trkpt>
      <trkpt lat="43.50895000" lon="12.94592000">
        <ele>316.00000</ele>
        <time>2010-01-01T02:02:14Z</time>
      </trkpt>
      <trkpt lat="43.50920000" lon="12.94619000">
        <ele>314.00000</ele>
        <time>2010-01-01T02:02:27Z</time>
      </trkpt>
      <trkpt lat="43.50998000" lon="12.94730000">
        <ele>309.00000</ele>
        <time>2010-01-01T02:03:11Z</time>
      </trkpt>
      <trkpt lat="43.50969000" lon="12.94782000">
        <ele>304.00000</ele>
        <time>2010-01-01T02:03:30Z</time>
      </trkpt>
      <trkpt lat="43.50931000" lon="12.94832000">
        <ele>307.00000</ele>
        <time>2010-01-01T02:03:52Z</time>
      </trkpt>
      <trkpt lat="43.50923000" lon="12.94854000">
        <ele>309.00000</ele>
        <time>2010-01-01T02:03:59Z</time>
      </trkpt>
      <trkpt lat="43.50921000" lon="12.94868000">
        <ele>310.00000</ele>
        <time>2010-01-01T02:04:03Z</time>
      </trkpt>
      <trkpt lat="43.50924000" lon="12.94885000">
        <ele>310.00000</ele>
        <time>2010-01-01T02:04:08Z</time>
      </trkpt>
      <trkpt lat="43.50929000" lon="12.94900000">
        <ele>312.00000</ele>
        <time>2010-01-01T02:04:13Z</time>
      </trkpt>
      <trkpt lat="43.50929000" lon="12.94912000">
        <ele>314.00000</ele>
        <time>2010-01-01T02:04:16Z</time>
      </trkpt>
      <trkpt lat="43.50926000" lon="12.94922000">
        <ele>317.00000</ele>
        <time>2010-01-01T02:04:19Z</time>
      </trkpt>
      <trkpt lat="43.50919000" lon="12.94930000">
        <ele>322.00000</ele>
        <time>2010-01-01T02:04:23Z</time>
      </trkpt>
      <trkpt lat="43.50910000" lon="12.94929000">
        <ele>324.00000</ele>
        <time>2010-01-01T02:04:27Z</time>
      </trkpt>
      <trkpt lat="43.50903000" lon="12.94922000">
        <ele>324.00000</ele>
        <time>2010-01-01T02:04:30Z</time>
      </trkpt>
      <trkpt lat="43.50865000" lon="12.94844000">
        <ele>318.00000</ele>
        <time>2010-01-01T02:04:57Z</time>
      </trkpt>
      <trkpt lat="43.50802000" lon="12.94765000">
        <ele>327.00000</ele>
        <time>2010-01-01T02:05:31Z</time>
      </trkpt>
      <trkpt lat="43.50801000" lon="12.94765000">
        <ele>328.00000</ele>
        <time>2010-01-01T02:05:32Z</time>
      </trkpt>
      <trkpt lat="43.50713000" lon="12.94654000">
        <ele>333.00000</ele>
        <time>2010-01-01T02:06:20Z</time>
      </trkpt>
      <trkpt lat="43.50696000" lon="12.94639000">
        <ele>332.00000</ele>
        <time>2010-01-01T02:06:28Z</time>
      </trkpt>
      <trkpt lat="43.50685000" lon="12.94636000">
        <ele>333.00000</ele>
        <time>2010-01-01T02:06:32Z</time>
      </trkpt>
      <trkpt lat="43.50676000" lon="12.94637000">
        <ele>334.00000</ele>
        <time>2010-01-01T02:06:36Z</time>
      </trkpt>
      <trkpt lat="43.50664000" lon="12.94642000">
        <ele>336.00000</ele>
        <time>2010-01-01T02:06:41Z</time>
      </trkpt>
      <trkpt lat="43.50551000" lon="12.94727000">
        <ele>352.00000</ele>
        <time>2010-01-01T02:07:32Z</time>
      </trkpt>
      <trkpt lat="43.50531000" lon="12.94747000">
        <ele>354.00000</ele>
        <time>2010-01-01T02:07:42Z</time>
      </trkpt>
      <trkpt lat="43.50480000" lon="12.94811000">
        <ele>359.00000</ele>
        <time>2010-01-01T02:08:10Z</time>
      </trkpt>
      <trkpt lat="43.50470000" lon="12.94816000">
        <ele>358.00000</ele>
        <time>2010-01-01T02:08:14Z</time>
      </trkpt>
      <trkpt lat="43.50459000" lon="12.94819000">
        <ele>358.00000</ele>
        <time>2010-01-01T02:08:19Z</time>
      </trkpt>
      <trkpt lat="43.50451000" lon="12.94817000">
        <ele>357.00000</ele>
        <time>2010-01-01T02:08:22Z</time>
      </trkpt>
      <trkpt lat="43.50446000" lon="12.94820000">
        <ele>357.00000</ele>
        <time>2010-01-01T02:08:24Z</time>
      </trkpt>
      <trkpt lat="43.50441000" lon="12.94827000">
        <ele>357.00000</ele>
        <time>2010-01-01T02:08:27Z</time>
      </trkpt>
      <trkpt lat="43.50434000" lon="12.94833000">
        <ele>357.00000</ele>
        <time>2010-01-01T02:08:30Z</time>
      </trkpt>
      <trkpt lat="43.50422000" lon="12.94841000">
        <ele>358.00000</ele>
        <time>2010-01-01T02:08:35Z</time>
      </trkpt>
      <trkpt lat="43.50399000" lon="12.94849000">
        <ele>359.00000</ele>
        <time>2010-01-01T02:08:45Z</time>
      </trkpt>
      <trkpt lat="43.50380000" lon="12.94852000">
        <ele>360.00000</ele>
        <time>2010-01-01T02:08:53Z</time>
      </trkpt>
      <trkpt lat="43.50322000" lon="12.94853000">
        <ele>364.00000</ele>
        <time>2010-01-01T02:09:16Z</time>
      </trkpt>
      <trkpt lat="43.50286000" lon="12.94837000">
        <ele>365.00000</ele>
        <time>2010-01-01T02:09:31Z</time>
      </trkpt>
      <trkpt lat="43.50272000" lon="12.94832000">
        <ele>365.00000</ele>
        <time>2010-01-01T02:09:37Z</time>
      </trkpt>
      <trkpt lat="43.50198000" lon="12.94828000">
        <ele>359.00000</ele>
        <time>2010-01-01T02:10:06Z</time>
      </trkpt>
      <trkpt lat="43.50181000" lon="12.94825000">
        <ele>358.00000</ele>
        <time>2010-01-01T02:10:13Z</time>
      </trkpt>
      <trkpt lat="43.50161000" lon="12.94815000">
        <ele>358.00000</ele>
        <time>2010-01-01T02:10:22Z</time>
      </trkpt>
      <trkpt lat="43.50102000" lon="12.94772000">
        <ele>361.00000</ele>
        <time>2010-01-01T02:10:48Z</time>
      </trkpt>
      <trkpt lat="43.50067000" lon="12.94743000">
        <ele>361.00000</ele>
        <time>2010-01-01T02:11:05Z</time>
      </trkpt>
      <trkpt lat="43.50035000" lon="12.94719000">
        <ele>360.00000</ele>
        <time>2010-01-01T02:11:19Z</time>
      </trkpt>
      <trkpt lat="43.50019000" lon="12.94729000">
        <ele>358.00000</ele>
        <time>2010-01-01T02:11:26Z</time>
      </trkpt>
      <trkpt lat="43.50003000" lon="12.94753000">
        <ele>356.00000</ele>
        <time>2010-01-01T02:11:36Z</time>
      </trkpt>
      <trkpt lat="43.49993000" lon="12.94793000">
        <ele>362.00000</ele>
        <time>2010-01-01T02:11:48Z</time>
      </trkpt>
      <trkpt lat="43.50077000" lon="12.94919000">
        <ele>351.00000</ele>
        <time>2010-01-01T02:12:38Z</time>
      </trkpt>
      <trkpt lat="43.50108000" lon="12.95043000">
        <ele>348.00000</ele>
        <time>2010-01-01T02:13:16Z</time>
      </trkpt>
      <trkpt lat="43.50090000" lon="12.95098000">
        <ele>350.00000</ele>
        <time>2010-01-01T02:13:33Z</time>
      </trkpt>
      <trkpt lat="43.50090000" lon="12.95141000">
        <ele>350.00000</ele>
        <time>2010-01-01T02:13:46Z</time>
      </trkpt>
      <trkpt lat="43.50105000" lon="12.95214000">
        <ele>348.00000</ele>
        <time>2010-01-01T02:14:08Z</time>
      </trkpt>
      <trkpt lat="43.50111000" lon="12.95292000">
        <ele>346.00000</ele>
        <time>2010-01-01T02:14:31Z</time>
      </trkpt>
      <trkpt lat="43.50111000" lon="12.95349000">
        <ele>343.00000</ele>
        <time>2010-01-01T02:14:47Z</time>
      </trkpt>
      <trkpt lat="43.50117000" lon="12.95482000">
        <ele>338.00000</ele>
        <time>2010-01-01T02:15:26Z</time>
      </trkpt>
      <trkpt lat="43.50128000" lon="12.95557000">
        <ele>338.00000</ele>
        <time>2010-01-01T02:15:48Z</time>
      </trkpt>
      <trkpt lat="43.50115000" lon="12.95579000">
        <ele>334.00000</ele>
        <time>2010-01-01T02:15:56Z</time>
      </trkpt>
      <trkpt lat="43.50100000" lon="12.95572000">
        <ele>331.00000</ele>
        <time>2010-01-01T02:16:03Z</time>
      </trkpt>
      <trkpt lat="43.50093000" lon="12.95543000">
        <ele>331.00000</ele>
        <time>2010-01-01T02:16:12Z</time>
      </trkpt>
      <trkpt lat="43.50087000" lon="12.95481000">
        <ele>331.00000</ele>
        <time>2010-01-01T02:16:30Z</time>
      </trkpt>
      <trkpt lat="43.50034000" lon="12.95381000">
        <ele>330.00000</ele>
        <time>2010-01-01T02:17:06Z</time>
      </trkpt>
      <trkpt lat="43.50018000" lon="12.95365000">
        <ele>331.00000</ele>
        <time>2010-01-01T02:17:14Z</time>
      </trkpt>
      <trkpt lat="43.49965000" lon="12.95365000">
        <ele>325.00000</ele>
        <time>2010-01-01T02:17:35Z</time>
      </trkpt>
      <trkpt lat="43.49941000" lon="12.95359000">
        <ele>320.00000</ele>
        <time>2010-01-01T02:17:45Z</time>
      </trkpt>
      <trkpt lat="43.49927000" lon="12.95338000">
        <ele>321.00000</ele>
        <time>2010-01-01T02:17:53Z</time>
      </trkpt>
      <trkpt lat="43.49898000" lon="12.95236000">
        <ele>328.00000</ele>
        <time>2010-01-01T02:18:25Z</time>
      </trkpt>
      <trkpt lat="43.49887000" lon="12.95219000">
        <ele>328.00000</ele>
        <time>2010-01-01T02:18:31Z</time>
      </trkpt>
      <trkpt lat="43.49875000" lon="12.95221000">
        <ele>325.00000</ele>
        <time>2010-01-01T02:18:36Z</time>
      </trkpt>
      <trkpt lat="43.49872000" lon="12.95255000">
        <ele>319.00000</ele>
        <time>2010-01-01T02:18:46Z</time>
      </trkpt>
      <trkpt lat="43.49884000" lon="12.95309000">
        <ele>315.00000</ele>
        <time>2010-01-01T02:19:03Z</time>
      </trkpt>
      <trkpt lat="43.49903000" lon="12.95378000">
        <ele>311.00000</ele>
        <time>2010-01-01T02:19:24Z</time>
      </trkpt>
      <trkpt lat="43.49965000" lon="12.95575000">
        <ele>296.00000</ele>
        <time>2010-01-01T02:20:26Z</time>
      </trkpt>
      <trkpt lat="43.50009000" lon="12.95704000">
        <ele>291.00000</ele>
        <time>2010-01-01T02:21:08Z</time>
      </trkpt>
      <trkpt lat="43.50020000" lon="12.95745000">
        <ele>289.00000</ele>
        <time>2010-01-01T02:21:20Z</time>
      </trkpt>
      <trkpt lat="43.50017000" lon="12.95777000">
        <ele>286.00000</ele>
        <time>2010-01-01T02:21:30Z</time>
      </trkpt>
      <trkpt lat="43.50007000" lon="12.95806000">
        <ele>282.00000</ele>
        <time>2010-01-01T02:21:39Z</time>
      </trkpt>
      <trkpt lat="43.50005000" lon="12.95834000">
        <ele>279.00000</ele>
        <time>2010-01-01T02:21:47Z</time>
      </trkpt>
      <trkpt lat="43.50021000" lon="12.95881000">
        <ele>280.00000</ele>
        <time>2010-01-01T02:22:02Z</time>
      </trkpt>
      <trkpt lat="43.50027000" lon="12.95900000">
        <ele>280.00000</ele>
        <time>2010-01-01T02:22:08Z</time>
      </trkpt>
      <trkpt lat="43.50027000" lon="12.95922000">
        <ele>279.00000</ele>
        <time>2010-01-01T02:22:15Z</time>
      </trkpt>
      <trkpt lat="43.50027000" lon="12.95921000">
        <ele>279.00000</ele>
        <time>2010-01-01T02:22:15Z</time>
      </trkpt>
      <trkpt lat="43.50028000" lon="12.95957000">
        <ele>278.00000</ele>
        <time>2010-01-01T02:22:26Z</time>
      </trkpt>
      <trkpt lat="43.50034000" lon="12.96021000">
        <ele>275.00000</ele>
        <time>2010-01-01T02:22:44Z</time>
      </trkpt>
      <trkpt lat="43.50036000" lon="12.96102000">
        <ele>266.00000</ele>
        <time>2010-01-01T02:23:08Z</time>
      </trkpt>
      <trkpt lat="43.50039000" lon="12.96131000">
        <ele>265.00000</ele>
        <time>2010-01-01T02:23:16Z</time>
      </trkpt>
      <trkpt lat="43.50045000" lon="12.96163000">
        <ele>264.00000</ele>
        <time>2010-01-01T02:23:26Z</time>
      </trkpt>
      <trkpt lat="43.50045000" lon="12.96180000">
        <ele>264.00000</ele>
        <time>2010-01-01T02:23:31Z</time>
      </trkpt>
      <trkpt lat="43.50036000" lon="12.96186000">
        <ele>262.00000</ele>
        <time>2010-01-01T02:23:35Z</time>
      </trkpt>
      <trkpt lat="43.50028000" lon="12.96182000">
        <ele>261.00000</ele>
        <time>2010-01-01T02:23:38Z</time>
      </trkpt>
      <trkpt lat="43.50021000" lon="12.96173000">
        <ele>261.00000</ele>
        <time>2010-01-01T02:23:42Z</time>
      </trkpt>
      <trkpt lat="43.50013000" lon="12.96142000">
        <ele>261.00000</ele>
        <time>2010-01-01T02:23:52Z</time>
      </trkpt>
      <trkpt lat="43.50005000" lon="12.96135000">
        <ele>261.00000</ele>
        <time>2010-01-01T02:23:55Z</time>
      </trkpt>
      <trkpt lat="43.49990000" lon="12.96138000">
        <ele>263.00000</ele>
        <time>2010-01-01T02:24:02Z</time>
      </trkpt>
      <trkpt lat="43.49972000" lon="12.96151000">
        <ele>266.00000</ele>
        <time>2010-01-01T02:24:10Z</time>
      </trkpt>
      <trkpt lat="43.49968000" lon="12.96164000">
        <ele>267.00000</ele>
        <time>2010-01-01T02:24:14Z</time>
      </trkpt>
      <trkpt lat="43.49971000" lon="12.96206000">
        <ele>262.00000</ele>
        <time>2010-01-01T02:24:26Z</time>
      </trkpt>
      <trkpt lat="43.49968000" lon="12.96220000">
        <ele>261.00000</ele>
        <time>2010-01-01T02:24:30Z</time>
      </trkpt>
      <trkpt lat="43.49961000" lon="12.96233000">
        <ele>260.00000</ele>
        <time>2010-01-01T02:24:35Z</time>
      </trkpt>
      <trkpt lat="43.49921000" lon="12.96265000">
        <ele>258.00000</ele>
        <time>2010-01-01T02:24:53Z</time>
      </trkpt>
      <trkpt lat="43.49868000" lon="12.96315000">
        <ele>247.00000</ele>
        <time>2010-01-01T02:25:19Z</time>
      </trkpt>
      <trkpt lat="43.49830000" lon="12.96346000">
        <ele>245.00000</ele>
        <time>2010-01-01T02:25:37Z</time>
      </trkpt>
      <trkpt lat="43.49809000" lon="12.96367000">
        <ele>249.00000</ele>
        <time>2010-01-01T02:25:47Z</time>
      </trkpt>
      <trkpt lat="43.49800000" lon="12.96372000">
        <ele>252.00000</ele>
        <time>2010-01-01T02:25:51Z</time>
      </trkpt>
      <trkpt lat="43.49788000" lon="12.96372000">
        <ele>255.00000</ele>
        <time>2010-01-01T02:25:56Z</time>
      </trkpt>
      <trkpt lat="43.49754000" lon="12.96335000">
        <ele>257.00000</ele>
        <time>2010-01-01T02:26:13Z</time>
      </trkpt>
      <trkpt lat="43.49714000" lon="12.96278000">
        <ele>257.00000</ele>
        <time>2010-01-01T02:26:36Z</time>
      </trkpt>
      <trkpt lat="43.49696000" lon="12.96279000">
        <ele>260.00000</ele>
        <time>2010-01-01T02:26:43Z</time>
      </trkpt>
      <trkpt lat="43.49693000" lon="12.96295000">
        <ele>267.00000</ele>
        <time>2010-01-01T02:26:48Z</time>
      </trkpt>
      <trkpt lat="43.49710000" lon="12.96325000">
        <ele>272.00000</ele>
        <time>2010-01-01T02:26:59Z</time>
      </trkpt>
      <trkpt lat="43.49750000" lon="12.96373000">
        <ele>269.00000</ele>
        <time>2010-01-01T02:27:21Z</time>
      </trkpt>
      <trkpt lat="43.49803000" lon="12.96459000">
        <ele>273.00000</ele>
        <time>2010-01-01T02:27:53Z</time>
      </trkpt>
      <trkpt lat="43.49850000" lon="12.96540000">
        <ele>279.00000</ele>
        <time>2010-01-01T02:28:23Z</time>
      </trkpt>
      <trkpt lat="43.49852000" lon="12.96588000">
        <ele>284.00000</ele>
        <time>2010-01-01T02:28:37Z</time>
      </trkpt>
      <trkpt lat="43.49860000" lon="12.96636000">
        <ele>287.00000</ele>
        <time>2010-01-01T02:28:52Z</time>
      </trkpt>
      <trkpt lat="43.49885000" lon="12.96676000">
        <ele>291.00000</ele>
        <time>2010-01-01T02:29:07Z</time>
      </trkpt>
      <trkpt lat="43.49939000" lon="12.96720000">
        <ele>294.00000</ele>
        <time>2010-01-01T02:29:32Z</time>
      </trkpt>
      <trkpt lat="43.49942000" lon="12.96740000">
        <ele>295.00000</ele>
        <time>2010-01-01T02:29:38Z</time>
      </trkpt>
      <trkpt lat="43.49917000" lon="12.96767000">
        <ele>297.00000</ele>
        <time>2010-01-01T02:29:51Z</time>
      </trkpt>
      <trkpt lat="43.49881000" lon="12.96815000">
        <ele>302.00000</ele>
        <time>2010-01-01T02:30:11Z</time>
      </trkpt>
      <trkpt lat="43.49856000" lon="12.96897000">
        <ele>308.00000</ele>
        <time>2010-01-01T02:30:37Z</time>
      </trkpt>
      <trkpt lat="43.49869000" lon="12.96965000">
        <ele>311.00000</ele>
        <time>2010-01-01T02:30:57Z</time>
      </trkpt>
      <trkpt lat="43.49937000" lon="12.97085000">
        <ele>315.00000</ele>
        <time>2010-01-01T02:31:41Z</time>
      </trkpt>
      <trkpt lat="43.49969000" lon="12.97109000">
        <ele>316.00000</ele>
        <time>2010-01-01T02:31:56Z</time>
      </trkpt>
      <trkpt lat="43.50019000" lon="12.97127000">
        <ele>317.00000</ele>
        <time>2010-01-01T02:32:17Z</time>
      </trkpt>
      <trkpt lat="43.50025000" lon="12.97137000">
        <ele>319.00000</ele>
        <time>2010-01-01T02:32:20Z</time>
      </trkpt>
      <trkpt lat="43.50023000" lon="12.97150000">
        <ele>320.00000</ele>
        <time>2010-01-01T02:32:24Z</time>
      </trkpt>
      <trkpt lat="43.50018000" lon="12.97157000">
        <ele>319.00000</ele>
        <time>2010-01-01T02:32:27Z</time>
      </trkpt>
      <trkpt lat="43.50012000" lon="12.97163000">
        <ele>319.00000</ele>
        <time>2010-01-01T02:32:30Z</time>
      </trkpt>
      <trkpt lat="43.49876000" lon="12.97115000">
        <ele>320.00000</ele>
        <time>2010-01-01T02:33:26Z</time>
      </trkpt>
      <trkpt lat="43.49795000" lon="12.97069000">
        <ele>329.00000</ele>
        <time>2010-01-01T02:34:01Z</time>
      </trkpt>
      <trkpt lat="43.49691000" lon="12.96991000">
        <ele>337.00000</ele>
        <time>2010-01-01T02:34:49Z</time>
      </trkpt>
      <trkpt lat="43.49629000" lon="12.97017000">
        <ele>342.00000</ele>
        <time>2010-01-01T02:35:15Z</time>
      </trkpt>
      <trkpt lat="43.49464000" lon="12.97102000">
        <ele>356.00000</ele>
        <time>2010-01-01T02:36:25Z</time>
      </trkpt>
      <trkpt lat="43.49415000" lon="12.97096000">
        <ele>359.00000</ele>
        <time>2010-01-01T02:36:45Z</time>
      </trkpt>
      <trkpt lat="43.49401000" lon="12.97098000">
        <ele>359.00000</ele>
        <time>2010-01-01T02:36:50Z</time>
      </trkpt>
      <trkpt lat="43.49389000" lon="12.97105000">
        <ele>359.00000</ele>
        <time>2010-01-01T02:36:56Z</time>
      </trkpt>
      <trkpt lat="43.49380000" lon="12.97115000">
        <ele>360.00000</ele>
        <time>2010-01-01T02:37:00Z</time>
      </trkpt>
      <trkpt lat="43.49362000" lon="12.97139000">
        <ele>362.00000</ele>
        <time>2010-01-01T02:37:10Z</time>
      </trkpt>
      <trkpt lat="43.49354000" lon="12.97168000">
        <ele>362.00000</ele>
        <time>2010-01-01T02:37:19Z</time>
      </trkpt>
      <trkpt lat="43.49351000" lon="12.97197000">
        <ele>362.00000</ele>
        <time>2010-01-01T02:37:28Z</time>
      </trkpt>
      <trkpt lat="43.49341000" lon="12.97228000">
        <ele>363.00000</ele>
        <time>2010-01-01T02:37:38Z</time>
      </trkpt>
      <trkpt lat="43.49314000" lon="12.97262000">
        <ele>367.00000</ele>
        <time>2010-01-01T02:37:52Z</time>
      </trkpt>
      <trkpt lat="43.49283000" lon="12.97296000">
        <ele>369.00000</ele>
        <time>2010-01-01T02:38:08Z</time>
      </trkpt>
      <trkpt lat="43.49218000" lon="12.97378000">
        <ele>371.00000</ele>
        <time>2010-01-01T02:38:43Z</time>
      </trkpt>
      <trkpt lat="43.49211000" lon="12.97398000">
        <ele>371.00000</ele>
        <time>2010-01-01T02:38:50Z</time>
      </trkpt>
      <trkpt lat="43.49213000" lon="12.97418000">
        <ele>370.00000</ele>
        <time>2010-01-01T02:38:56Z</time>
      </trkpt>
      <trkpt lat="43.49223000" lon="12.97448000">
        <ele>370.00000</ele>
        <time>2010-01-01T02:39:05Z</time>
      </trkpt>
      <trkpt lat="43.49232000" lon="12.97466000">
        <ele>369.00000</ele>
        <time>2010-01-01T02:39:12Z</time>
      </trkpt>
      <trkpt lat="43.49269000" lon="12.97516000">
        <ele>365.00000</ele>
        <time>2010-01-01T02:39:32Z</time>
      </trkpt>
      <trkpt lat="43.49275000" lon="12.97527000">
        <ele>365.00000</ele>
        <time>2010-01-01T02:39:36Z</time>
      </trkpt>
      <trkpt lat="43.49276000" lon="12.97536000">
        <ele>365.00000</ele>
        <time>2010-01-01T02:39:39Z</time>
      </trkpt>
      <trkpt lat="43.49276000" lon="12.97545000">
        <ele>365.00000</ele>
        <time>2010-01-01T02:39:42Z</time>
      </trkpt>
      <trkpt lat="43.49272000" lon="12.97554000">
        <ele>366.00000</ele>
        <time>2010-01-01T02:39:45Z</time>
      </trkpt>
      <trkpt lat="43.49265000" lon="12.97561000">
        <ele>366.00000</ele>
        <time>2010-01-01T02:39:48Z</time>
      </trkpt>
      <trkpt lat="43.49256000" lon="12.97564000">
        <ele>367.00000</ele>
        <time>2010-01-01T02:39:52Z</time>
      </trkpt>
      <trkpt lat="43.49225000" lon="12.97563000">
        <ele>366.00000</ele>
        <time>2010-01-01T02:40:04Z</time>
      </trkpt>
      <trkpt lat="43.49210000" lon="12.97567000">
        <ele>364.00000</ele>
        <time>2010-01-01T02:40:10Z</time>
      </trkpt>
      <trkpt lat="43.49185000" lon="12.97581000">
        <ele>361.00000</ele>
        <time>2010-01-01T02:40:21Z</time>
      </trkpt>
      <trkpt lat="43.49177000" lon="12.97584000">
        <ele>360.00000</ele>
        <time>2010-01-01T02:40:25Z</time>
      </trkpt>
      <trkpt lat="43.49170000" lon="12.97583000">
        <ele>359.00000</ele>
        <time>2010-01-01T02:40:27Z</time>
      </trkpt>
      <trkpt lat="43.49162000" lon="12.97579000">
        <ele>358.00000</ele>
        <time>2010-01-01T02:40:31Z</time>
      </trkpt>
      <trkpt lat="43.49155000" lon="12.97566000">
        <ele>357.00000</ele>
        <time>2010-01-01T02:40:36Z</time>
      </trkpt>
      <trkpt lat="43.49146000" lon="12.97538000">
        <ele>358.00000</ele>
        <time>2010-01-01T02:40:44Z</time>
      </trkpt>
      <trkpt lat="43.49139000" lon="12.97520000">
        <ele>359.00000</ele>
        <time>2010-01-01T02:40:50Z</time>
      </trkpt>
      <trkpt lat="43.49124000" lon="12.97497000">
        <ele>358.00000</ele>
        <time>2010-01-01T02:40:59Z</time>
      </trkpt>
      <trkpt lat="43.49111000" lon="12.97482000">
        <ele>357.00000</ele>
        <time>2010-01-01T02:41:06Z</time>
      </trkpt>
      <trkpt lat="43.49091000" lon="12.97473000">
        <ele>356.00000</ele>
        <time>2010-01-01T02:41:15Z</time>
      </trkpt>
      <trkpt lat="43.49039000" lon="12.97473000">
        <ele>352.00000</ele>
        <time>2010-01-01T02:41:35Z</time>
      </trkpt>
      <trkpt lat="43.49004000" lon="12.97480000">
        <ele>349.00000</ele>
        <time>2010-01-01T02:41:50Z</time>
      </trkpt>
      <trkpt lat="43.48945000" lon="12.97541000">
        <ele>341.00000</ele>
        <time>2010-01-01T02:42:19Z</time>
      </trkpt>
      <trkpt lat="43.48912000" lon="12.97561000">
        <ele>337.00000</ele>
        <time>2010-01-01T02:42:33Z</time>
      </trkpt>
      <trkpt lat="43.48887000" lon="12.97569000">
        <ele>332.00000</ele>
        <time>2010-01-01T02:42:44Z</time>
      </trkpt>
      <trkpt lat="43.48875000" lon="12.97566000">
        <ele>329.00000</ele>
        <time>2010-01-01T02:42:49Z</time>
      </trkpt>
      <trkpt lat="43.48858000" lon="12.97545000">
        <ele>327.00000</ele>
        <time>2010-01-01T02:42:58Z</time>
      </trkpt>
      <trkpt lat="43.48844000" lon="12.97489000">
        <ele>331.00000</ele>
        <time>2010-01-01T02:43:15Z</time>
      </trkpt>
      <trkpt lat="43.48808000" lon="12.97383000">
        <ele>328.00000</ele>
        <time>2010-01-01T02:43:49Z</time>
      </trkpt>
      <trkpt lat="43.48742000" lon="12.97241000">
        <ele>329.00000</ele>
        <time>2010-01-01T02:44:38Z</time>
      </trkpt>
      <trkpt lat="43.48721000" lon="12.97232000">
        <ele>322.00000</ele>
        <time>2010-01-01T02:44:47Z</time>
      </trkpt>
      <trkpt lat="43.48696000" lon="12.97244000">
        <ele>320.00000</ele>
        <time>2010-01-01T02:44:57Z</time>
      </trkpt>
      <trkpt lat="43.48697000" lon="12.97288000">
        <ele>321.00000</ele>
        <time>2010-01-01T02:45:10Z</time>
      </trkpt>
      <trkpt lat="43.48727000" lon="12.97365000">
        <ele>314.00000</ele>
        <time>2010-01-01T02:45:36Z</time>
      </trkpt>
      <trkpt lat="43.48730000" lon="12.97383000">
        <ele>314.00000</ele>
        <time>2010-01-01T02:45:41Z</time>
      </trkpt>
      <trkpt lat="43.48724000" lon="12.97393000">
        <ele>315.00000</ele>
        <time>2010-01-01T02:45:45Z</time>
      </trkpt>
      <trkpt lat="43.48666000" lon="12.97416000">
        <ele>323.00000</ele>
        <time>2010-01-01T02:46:09Z</time>
      </trkpt>
      <trkpt lat="43.48592000" lon="12.97427000">
        <ele>322.00000</ele>
        <time>2010-01-01T02:46:39Z</time>
      </trkpt>
      <trkpt lat="43.48581000" lon="12.97439000">
        <ele>323.00000</ele>
        <time>2010-01-01T02:46:44Z</time>
      </trkpt>
      <trkpt lat="43.48579000" lon="12.97461000">
        <ele>326.00000</ele>
        <time>2010-01-01T02:46:51Z</time>
      </trkpt>
      <trkpt lat="43.48599000" lon="12.97493000">
        <ele>326.00000</ele>
        <time>2010-01-01T02:47:03Z</time>
      </trkpt>
      <trkpt lat="43.48621000" lon="12.97572000">
        <ele>332.00000</ele>
        <time>2010-01-01T02:47:28Z</time>
      </trkpt>
      <trkpt lat="43.48618000" lon="12.97604000">
        <ele>332.00000</ele>
        <time>2010-01-01T02:47:37Z</time>
      </trkpt>
      <trkpt lat="43.48559000" lon="12.97659000">
        <ele>332.00000</ele>
        <time>2010-01-01T02:48:05Z</time>
      </trkpt>
      <trkpt lat="43.48478000" lon="12.97696000">
        <ele>337.00000</ele>
        <time>2010-01-01T02:48:40Z</time>
      </trkpt>
      <trkpt lat="43.48434000" lon="12.97709000">
        <ele>343.00000</ele>
        <time>2010-01-01T02:48:58Z</time>
      </trkpt>
      <trkpt lat="43.48425000" lon="12.97730000">
        <ele>343.00000</ele>
        <time>2010-01-01T02:49:05Z</time>
      </trkpt>
      <trkpt lat="43.48420000" lon="12.97791000">
        <ele>342.00000</ele>
        <time>2010-01-01T02:49:22Z</time>
      </trkpt>
      <trkpt lat="43.48410000" lon="12.97811000">
        <ele>342.00000</ele>
        <time>2010-01-01T02:49:30Z</time>
      </trkpt>
      <trkpt lat="43.48393000" lon="12.97816000">
        <ele>344.00000</ele>
        <time>2010-01-01T02:49:36Z</time>
      </trkpt>
      <trkpt lat="43.48334000" lon="12.97803000">
        <ele>349.00000</ele>
        <time>2010-01-01T02:50:00Z</time>
      </trkpt>
      <trkpt lat="43.48285000" lon="12.97825000">
        <ele>349.00000</ele>
        <time>2010-01-01T02:50:21Z</time>
      </trkpt>
      <trkpt lat="43.48237000" lon="12.97833000">
        <ele>353.00000</ele>
        <time>2010-01-01T02:50:40Z</time>
      </trkpt>
      <trkpt lat="43.48114000" lon="12.97827000">
        <ele>354.00000</ele>
        <time>2010-01-01T02:51:30Z</time>
      </trkpt>
      <trkpt lat="43.48058000" lon="12.97793000">
        <ele>355.00000</ele>
        <time>2010-01-01T02:51:54Z</time>
      </trkpt>
      <trkpt lat="43.48047000" lon="12.97775000">
        <ele>356.00000</ele>
        <time>2010-01-01T02:52:01Z</time>
      </trkpt>
      <trkpt lat="43.48037000" lon="12.97735000">
        <ele>360.00000</ele>
        <time>2010-01-01T02:52:13Z</time>
      </trkpt>
      <trkpt lat="43.48022000" lon="12.97698000">
        <ele>363.00000</ele>
        <time>2010-01-01T02:52:26Z</time>
      </trkpt>
      <trkpt lat="43.47971000" lon="12.97650000">
        <ele>366.00000</ele>
        <time>2010-01-01T02:52:50Z</time>
      </trkpt>
      <trkpt lat="43.47946000" lon="12.97640000">
        <ele>366.00000</ele>
        <time>2010-01-01T02:53:01Z</time>
      </trkpt>
      <trkpt lat="43.47930000" lon="12.97640000">
        <ele>366.00000</ele>
        <time>2010-01-01T02:53:07Z</time>
      </trkpt>
      <trkpt lat="43.47889000" lon="12.97661000">
        <ele>358.00000</ele>
        <time>2010-01-01T02:53:25Z</time>
      </trkpt>
      <trkpt lat="43.47871000" lon="12.97660000">
        <ele>359.00000</ele>
        <time>2010-01-01T02:53:32Z</time>
      </trkpt>
      <trkpt lat="43.47801000" lon="12.97634000">
        <ele>355.00000</ele>
        <time>2010-01-01T02:54:01Z</time>
      </trkpt>
      <trkpt lat="43.47789000" lon="12.97623000">
        <ele>355.00000</ele>
        <time>2010-01-01T02:54:07Z</time>
      </trkpt>
      <trkpt lat="43.47776000" lon="12.97605000">
        <ele>357.00000</ele>
        <time>2010-01-01T02:54:14Z</time>
      </trkpt>
      <trkpt lat="43.47762000" lon="12.97574000">
        <ele>361.00000</ele>
        <time>2010-01-01T02:54:25Z</time>
      </trkpt>
      <trkpt lat="43.47748000" lon="12.97567000">
        <ele>360.00000</ele>
        <time>2010-01-01T02:54:31Z</time>
      </trkpt>
      <trkpt lat="43.47737000" lon="12.97569000">
        <ele>360.00000</ele>
        <time>2010-01-01T02:54:35Z</time>
      </trkpt>
      <trkpt lat="43.47727000" lon="12.97579000">
        <ele>361.00000</ele>
        <time>2010-01-01T02:54:40Z</time>
      </trkpt>
      <trkpt lat="43.47730000" lon="12.97615000">
        <ele>359.00000</ele>
        <time>2010-01-01T02:54:51Z</time>
      </trkpt>
      <trkpt lat="43.47750000" lon="12.97673000">
        <ele>353.00000</ele>
        <time>2010-01-01T02:55:09Z</time>
      </trkpt>
      <trkpt lat="43.47766000" lon="12.97742000">
        <ele>351.00000</ele>
        <time>2010-01-01T02:55:30Z</time>
      </trkpt>
      <trkpt lat="43.47785000" lon="12.97793000">
        <ele>345.00000</ele>
        <time>2010-01-01T02:55:47Z</time>
      </trkpt>
      <trkpt lat="43.47798000" lon="12.97819000">
        <ele>340.00000</ele>
        <time>2010-01-01T02:55:56Z</time>
      </trkpt>
      <trkpt lat="43.47804000" lon="12.97862000">
        <ele>341.00000</ele>
        <time>2010-01-01T02:56:09Z</time>
      </trkpt>
      <trkpt lat="43.47796000" lon="12.97925000">
        <ele>343.00000</ele>
        <time>2010-01-01T02:56:27Z</time>
      </trkpt>
      <trkpt lat="43.47777000" lon="12.97969000">
        <ele>339.00000</ele>
        <time>2010-01-01T02:56:42Z</time>
      </trkpt>
      <trkpt lat="43.47766000" lon="12.97989000">
        <ele>337.00000</ele>
        <time>2010-01-01T02:56:49Z</time>
      </trkpt>
      <trkpt lat="43.47752000" lon="12.97996000">
        <ele>338.00000</ele>
        <time>2010-01-01T02:56:55Z</time>
      </trkpt>
      <trkpt lat="43.47686000" lon="12.97990000">
        <ele>340.00000</ele>
        <time>2010-01-01T02:57:22Z</time>
      </trkpt>
      <trkpt lat="43.47650000" lon="12.97968000">
        <ele>344.00000</ele>
        <time>2010-01-01T02:57:38Z</time>
      </trkpt>
      <trkpt lat="43.47632000" lon="12.97994000">
        <ele>337.00000</ele>
        <time>2010-01-01T02:57:48Z</time>
      </trkpt>
      <trkpt lat="43.47601000" lon="12.98009000">
        <ele>333.00000</ele>
        <time>2010-01-01T02:58:01Z</time>
      </trkpt>
      <trkpt lat="43.47531000" lon="12.97992000">
        <ele>332.00000</ele>
        <time>2010-01-01T02:58:30Z</time>
      </trkpt>
      <trkpt lat="43.47471000" lon="12.97968000">
        <ele>329.00000</ele>
        <time>2010-01-01T02:58:55Z</time>
      </trkpt>
      <trkpt lat="43.47447000" lon="12.97967000">
        <ele>329.00000</ele>
        <time>2010-01-01T02:59:04Z</time>
      </trkpt>
      <trkpt lat="43.47439000" lon="12.97975000">
        <ele>327.00000</ele>
        <time>2010-01-01T02:59:08Z</time>
      </trkpt>
      <trkpt lat="43.47433000" lon="12.98019000">
        <ele>328.00000</ele>
        <time>2010-01-01T02:59:21Z</time>
      </trkpt>
      <trkpt lat="43.47500000" lon="12.98084000">
        <ele>328.00000</ele>
        <time>2010-01-01T02:59:54Z</time>
      </trkpt>
      <trkpt lat="43.47523000" lon="12.98136000">
        <ele>332.00000</ele>
        <time>2010-01-01T03:00:12Z</time>
      </trkpt>
      <trkpt lat="43.47573000" lon="12.98182000">
        <ele>334.00000</ele>
        <time>2010-01-01T03:00:36Z</time>
      </trkpt>
      <trkpt lat="43.47607000" lon="12.98273000">
        <ele>342.00000</ele>
        <time>2010-01-01T03:01:06Z</time>
      </trkpt>
      <trkpt lat="43.47663000" lon="12.98331000">
        <ele>344.00000</ele>
        <time>2010-01-01T03:01:34Z</time>
      </trkpt>
      <trkpt lat="43.47674000" lon="12.98353000">
        <ele>346.00000</ele>
        <time>2010-01-01T03:01:41Z</time>
      </trkpt>
      <trkpt lat="43.47675000" lon="12.98385000">
        <ele>352.00000</ele>
        <time>2010-01-01T03:01:51Z</time>
      </trkpt>
      <trkpt lat="43.47686000" lon="12.98404000">
        <ele>354.00000</ele>
        <time>2010-01-01T03:01:58Z</time>
      </trkpt>
      <trkpt lat="43.47770000" lon="12.98451000">
        <ele>351.00000</ele>
        <time>2010-01-01T03:02:34Z</time>
      </trkpt>
      <trkpt lat="43.47798000" lon="12.98477000">
        <ele>351.00000</ele>
        <time>2010-01-01T03:02:48Z</time>
      </trkpt>
      <trkpt lat="43.47803000" lon="12.98499000">
        <ele>352.00000</ele>
        <time>2010-01-01T03:02:54Z</time>
      </trkpt>
      <trkpt lat="43.47799000" lon="12.98513000">
        <ele>352.00000</ele>
        <time>2010-01-01T03:02:59Z</time>
      </trkpt>
      <trkpt lat="43.47791000" lon="12.98524000">
        <ele>352.00000</ele>
        <time>2010-01-01T03:03:03Z</time>
      </trkpt>
      <trkpt lat="43.47721000" lon="12.98595000">
        <ele>364.00000</ele>
        <time>2010-01-01T03:03:38Z</time>
      </trkpt>
      <trkpt lat="43.47708000" lon="12.98613000">
        <ele>365.00000</ele>
        <time>2010-01-01T03:03:45Z</time>
      </trkpt>
      <trkpt lat="43.47701000" lon="12.98630000">
        <ele>367.00000</ele>
        <time>2010-01-01T03:03:51Z</time>
      </trkpt>
      <trkpt lat="43.47692000" lon="12.98672000">
        <ele>369.00000</ele>
        <time>2010-01-01T03:04:04Z</time>
      </trkpt>
      <trkpt lat="43.47691000" lon="12.98687000">
        <ele>369.00000</ele>
        <time>2010-01-01T03:04:08Z</time>
      </trkpt>
      <trkpt lat="43.47695000" lon="12.98707000">
        <ele>369.00000</ele>
        <time>2010-01-01T03:04:14Z</time>
      </trkpt>
      <trkpt lat="43.47715000" lon="12.98761000">
        <ele>370.00000</ele>
        <time>2010-01-01T03:04:32Z</time>
      </trkpt>
      <trkpt lat="43.47723000" lon="12.98777000">
        <ele>371.00000</ele>
        <time>2010-01-01T03:04:37Z</time>
      </trkpt>
      <trkpt lat="43.47744000" lon="12.98808000">
        <ele>371.00000</ele>
        <time>2010-01-01T03:04:50Z</time>
      </trkpt>
      <trkpt lat="43.47752000" lon="12.98828000">
        <ele>372.00000</ele>
        <time>2010-01-01T03:04:56Z</time>
      </trkpt>
      <trkpt lat="43.47773000" lon="12.98904000">
        <ele>373.00000</ele>
        <time>2010-01-01T03:05:20Z</time>
      </trkpt>
      <trkpt lat="43.47777000" lon="12.98927000">
        <ele>374.00000</ele>
        <time>2010-01-01T03:05:27Z</time>
      </trkpt>
      <trkpt lat="43.47777000" lon="12.98926000">
        <ele>374.00000</ele>
        <time>2010-01-01T03:05:27Z</time>
      </trkpt>
      <trkpt lat="43.47777000" lon="12.98938000">
        <ele>374.00000</ele>
        <time>2010-01-01T03:05:31Z</time>
      </trkpt>
      <trkpt lat="43.47740000" lon="12.98887000">
        <ele>376.00000</ele>
        <time>2010-01-01T03:05:52Z</time>
      </trkpt>
      <trkpt lat="43.47722000" lon="12.98871000">
        <ele>377.00000</ele>
        <time>2010-01-01T03:06:00Z</time>
      </trkpt>
      <trkpt lat="43.47645000" lon="12.98808000">
        <ele>382.00000</ele>
        <time>2010-01-01T03:06:36Z</time>
      </trkpt>
      <trkpt lat="43.47637000" lon="12.98798000">
        <ele>383.00000</ele>
        <time>2010-01-01T03:06:40Z</time>
      </trkpt>
      <trkpt lat="43.47632000" lon="12.98787000">
        <ele>384.00000</ele>
        <time>2010-01-01T03:06:44Z</time>
      </trkpt>
      <trkpt lat="43.47628000" lon="12.98770000">
        <ele>384.00000</ele>
        <time>2010-01-01T03:06:49Z</time>
      </trkpt>
      <trkpt lat="43.47622000" lon="12.98727000">
        <ele>384.00000</ele>
        <time>2010-01-01T03:07:02Z</time>
      </trkpt>
      <trkpt lat="43.47619000" lon="12.98707000">
        <ele>386.00000</ele>
        <time>2010-01-01T03:07:08Z</time>
      </trkpt>
      <trkpt lat="43.47600000" lon="12.98652000">
        <ele>396.00000</ele>
        <time>2010-01-01T03:07:26Z</time>
      </trkpt>
      <trkpt lat="43.47598000" lon="12.98637000">
        <ele>397.00000</ele>
        <time>2010-01-01T03:07:30Z</time>
      </trkpt>
      <trkpt lat="43.47600000" lon="12.98624000">
        <ele>395.00000</ele>
        <time>2010-01-01T03:07:34Z</time>
      </trkpt>
      <trkpt lat="43.47611000" lon="12.98604000">
        <ele>391.00000</ele>
        <time>2010-01-01T03:07:41Z</time>
      </trkpt>
      <trkpt lat="43.47613000" lon="12.98594000">
        <ele>392.00000</ele>
        <time>2010-01-01T03:07:44Z</time>
      </trkpt>
      <trkpt lat="43.47613000" lon="12.98577000">
        <ele>393.00000</ele>
        <time>2010-01-01T03:07:49Z</time>
      </trkpt>
      <trkpt lat="43.47605000" lon="12.98557000">
        <ele>397.00000</ele>
        <time>2010-01-01T03:07:56Z</time>
      </trkpt>
      <trkpt lat="43.47592000" lon="12.98535000">
        <ele>398.00000</ele>
        <time>2010-01-01T03:08:04Z</time>
      </trkpt>
      <trkpt lat="43.47545000" lon="12.98480000">
        <ele>404.00000</ele>
        <time>2010-01-01T03:08:29Z</time>
      </trkpt>
      <trkpt lat="43.47512000" lon="12.98450000">
        <ele>407.00000</ele>
        <time>2010-01-01T03:08:45Z</time>
      </trkpt>
      <trkpt lat="43.47472000" lon="12.98427000">
        <ele>409.00000</ele>
        <time>2010-01-01T03:09:02Z</time>
      </trkpt>
      <trkpt lat="43.47423000" lon="12.98423000">
        <ele>417.00000</ele>
        <time>2010-01-01T03:09:22Z</time>
      </trkpt>
      <trkpt lat="43.47388000" lon="12.98408000">
        <ele>421.00000</ele>
        <time>2010-01-01T03:09:36Z</time>
      </trkpt>
      <trkpt lat="43.47360000" lon="12.98386000">
        <ele>422.00000</ele>
        <time>2010-01-01T03:09:49Z</time>
      </trkpt>
      <trkpt lat="43.47324000" lon="12.98352000">
        <ele>422.00000</ele>
        <time>2010-01-01T03:10:07Z</time>
      </trkpt>
      <trkpt lat="43.47297000" lon="12.98334000">
        <ele>424.00000</ele>
        <time>2010-01-01T03:10:19Z</time>
      </trkpt>
      <trkpt lat="43.47272000" lon="12.98332000">
        <ele>426.00000</ele>
        <time>2010-01-01T03:10:29Z</time>
      </trkpt>
      <trkpt lat="43.47167000" lon="12.98334000">
        <ele>433.00000</ele>
        <time>2010-01-01T03:11:11Z</time>
      </trkpt>
      <trkpt lat="43.47038000" lon="12.98292000">
        <ele>442.00000</ele>
        <time>2010-01-01T03:12:04Z</time>
      </trkpt>
      <trkpt lat="43.47020000" lon="12.98292000">
        <ele>443.00000</ele>
        <time>2010-01-01T03:12:11Z</time>
      </trkpt>
      <trkpt lat="43.47018000" lon="12.98294000">
        <ele>443.00000</ele>
        <time>2010-01-01T03:12:12Z</time>
      </trkpt>
      <trkpt lat="43.47010000" lon="12.98300000">
        <ele>444.00000</ele>
        <time>2010-01-01T03:12:16Z</time>
      </trkpt>
      <trkpt lat="43.47052000" lon="12.98343000">
        <ele>444.00000</ele>
        <time>2010-01-01T03:12:36Z</time>
      </trkpt>
      <trkpt lat="43.47068000" lon="12.98356000">
        <ele>445.00000</ele>
        <time>2010-01-01T03:12:44Z</time>
      </trkpt>
      <trkpt lat="43.47104000" lon="12.98380000">
        <ele>448.00000</ele>
        <time>2010-01-01T03:13:00Z</time>
      </trkpt>
      <trkpt lat="43.47153000" lon="12.98403000">
        <ele>450.00000</ele>
        <time>2010-01-01T03:13:21Z</time>
      </trkpt>
      <trkpt lat="43.47181000" lon="12.98404000">
        <ele>450.00000</ele>
        <time>2010-01-01T03:13:32Z</time>
      </trkpt>
      <trkpt lat="43.47185000" lon="12.98418000">
        <ele>453.00000</ele>
        <time>2010-01-01T03:13:36Z</time>
      </trkpt>
      <trkpt lat="43.47177000" lon="12.98429000">
        <ele>456.00000</ele>
        <time>2010-01-01T03:13:41Z</time>
      </trkpt>
      <trkpt lat="43.47175000" lon="12.98438000">
        <ele>458.00000</ele>
        <time>2010-01-01T03:13:43Z</time>
      </trkpt>
      <trkpt lat="43.47155000" lon="12.98458000">
        <ele>460.00000</ele>
        <time>2010-01-01T03:13:53Z</time>
      </trkpt>
      <trkpt lat="43.47154000" lon="12.98470000">
        <ele>462.00000</ele>
        <time>2010-01-01T03:13:57Z</time>
      </trkpt>
      <trkpt lat="43.47158000" lon="12.98481000">
        <ele>464.00000</ele>
        <time>2010-01-01T03:14:00Z</time>
      </trkpt>
      <trkpt lat="43.47148000" lon="12.98486000">
        <ele>461.00000</ele>
        <time>2010-01-01T03:14:05Z</time>
      </trkpt>
      <trkpt lat="43.47156000" lon="12.98509000">
        <ele>464.00000</ele>
        <time>2010-01-01T03:14:12Z</time>
      </trkpt>
      <trkpt lat="43.47156000" lon="12.98508000">
        <ele>464.00000</ele>
        <time>2010-01-01T03:14:12Z</time>
      </trkpt>
      <trkpt lat="43.47148000" lon="12.98486000">
        <ele>461.00000</ele>
        <time>2010-01-01T03:14:20Z</time>
      </trkpt>
      <trkpt lat="43.47158000" lon="12.98481000">
        <ele>464.00000</ele>
        <time>2010-01-01T03:14:24Z</time>
      </trkpt>
      <trkpt lat="43.47154000" lon="12.98470000">
        <ele>462.00000</ele>
        <time>2010-01-01T03:14:27Z</time>
      </trkpt>
      <trkpt lat="43.47155000" lon="12.98458000">
        <ele>460.00000</ele>
        <time>2010-01-01T03:14:31Z</time>
      </trkpt>
      <trkpt lat="43.47175000" lon="12.98438000">
        <ele>458.00000</ele>
        <time>2010-01-01T03:14:41Z</time>
      </trkpt>
      <trkpt lat="43.47177000" lon="12.98429000">
        <ele>456.00000</ele>
        <time>2010-01-01T03:14:44Z</time>
      </trkpt>
      <trkpt lat="43.47185000" lon="12.98418000">
        <ele>453.00000</ele>
        <time>2010-01-01T03:14:48Z</time>
      </trkpt>
      <trkpt lat="43.47181000" lon="12.98404000">
        <ele>450.00000</ele>
        <time>2010-01-01T03:14:52Z</time>
      </trkpt>
      <trkpt lat="43.47190000" lon="12.98403000">
        <ele>450.00000</ele>
        <time>2010-01-01T03:14:56Z</time>
      </trkpt>
      <trkpt lat="43.47246000" lon="12.98405000">
        <ele>449.00000</ele>
        <time>2010-01-01T03:15:18Z</time>
      </trkpt>
      <trkpt lat="43.47279000" lon="12.98412000">
        <ele>449.00000</ele>
        <time>2010-01-01T03:15:32Z</time>
      </trkpt>
      <trkpt lat="43.47308000" lon="12.98424000">
        <ele>448.00000</ele>
        <time>2010-01-01T03:15:44Z</time>
      </trkpt>
      <trkpt lat="43.47339000" lon="12.98441000">
        <ele>446.00000</ele>
        <time>2010-01-01T03:15:57Z</time>
      </trkpt>
      <trkpt lat="43.47360000" lon="12.98451000">
        <ele>444.00000</ele>
        <time>2010-01-01T03:16:06Z</time>
      </trkpt>
      <trkpt lat="43.47435000" lon="12.98457000">
        <ele>427.00000</ele>
        <time>2010-01-01T03:16:36Z</time>
      </trkpt>
      <trkpt lat="43.47470000" lon="12.98467000">
        <ele>422.00000</ele>
        <time>2010-01-01T03:16:51Z</time>
      </trkpt>
      <trkpt lat="43.47508000" lon="12.98484000">
        <ele>416.00000</ele>
        <time>2010-01-01T03:17:07Z</time>
      </trkpt>
      <trkpt lat="43.47527000" lon="12.98496000">
        <ele>414.00000</ele>
        <time>2010-01-01T03:17:15Z</time>
      </trkpt>
      <trkpt lat="43.47543000" lon="12.98524000">
        <ele>412.00000</ele>
        <time>2010-01-01T03:17:25Z</time>
      </trkpt>
      <trkpt lat="43.47554000" lon="12.98547000">
        <ele>410.00000</ele>
        <time>2010-01-01T03:17:33Z</time>
      </trkpt>
      <trkpt lat="43.47557000" lon="12.98577000">
        <ele>411.00000</ele>
        <time>2010-01-01T03:17:42Z</time>
      </trkpt>
      <trkpt lat="43.47560000" lon="12.98613000">
        <ele>409.00000</ele>
        <time>2010-01-01T03:17:53Z</time>
      </trkpt>
      <trkpt lat="43.47567000" lon="12.98642000">
        <ele>406.00000</ele>
        <time>2010-01-01T03:18:02Z</time>
      </trkpt>
      <trkpt lat="43.47580000" lon="12.98667000">
        <ele>402.00000</ele>
        <time>2010-01-01T03:18:10Z</time>
      </trkpt>
      <trkpt lat="43.47609000" lon="12.98711000">
        <ele>390.00000</ele>
        <time>2010-01-01T03:18:28Z</time>
      </trkpt>
      <trkpt lat="43.47625000" lon="12.98753000">
        <ele>384.00000</ele>
        <time>2010-01-01T03:18:41Z</time>
      </trkpt>
      <trkpt lat="43.47628000" lon="12.98770000">
        <ele>384.00000</ele>
        <time>2010-01-01T03:18:47Z</time>
      </trkpt>
      <trkpt lat="43.47632000" lon="12.98787000">
        <ele>384.00000</ele>
        <time>2010-01-01T03:18:52Z</time>
      </trkpt>
      <trkpt lat="43.47637000" lon="12.98798000">
        <ele>383.00000</ele>
        <time>2010-01-01T03:18:56Z</time>
      </trkpt>
      <trkpt lat="43.47645000" lon="12.98808000">
        <ele>382.00000</ele>
        <time>2010-01-01T03:19:00Z</time>
      </trkpt>
      <trkpt lat="43.47722000" lon="12.98871000">
        <ele>377.00000</ele>
        <time>2010-01-01T03:19:36Z</time>
      </trkpt>
      <trkpt lat="43.47740000" lon="12.98887000">
        <ele>376.00000</ele>
        <time>2010-01-01T03:19:44Z</time>
      </trkpt>
      <trkpt lat="43.47793000" lon="12.98958000">
        <ele>374.00000</ele>
        <time>2010-01-01T03:20:14Z</time>
      </trkpt>
      <trkpt lat="43.47825000" lon="12.99016000">
        <ele>377.00000</ele>
        <time>2010-01-01T03:20:35Z</time>
      </trkpt>
      <trkpt lat="43.47836000" lon="12.99032000">
        <ele>378.00000</ele>
        <time>2010-01-01T03:20:41Z</time>
      </trkpt>
      <trkpt lat="43.47849000" lon="12.99044000">
        <ele>378.00000</ele>
        <time>2010-01-01T03:20:48Z</time>
      </trkpt>
      <trkpt lat="43.47863000" lon="12.99054000">
        <ele>378.00000</ele>
        <time>2010-01-01T03:20:54Z</time>
      </trkpt>
      <trkpt lat="43.47862000" lon="12.99054000">
        <ele>378.00000</ele>
        <time>2010-01-01T03:20:54Z</time>
      </trkpt>
      <trkpt lat="43.47904000" lon="12.99069000">
        <ele>378.00000</ele>
        <time>2010-01-01T03:21:12Z</time>
      </trkpt>
      <trkpt lat="43.47926000" lon="12.99082000">
        <ele>379.00000</ele>
        <time>2010-01-01T03:21:21Z</time>
      </trkpt>
      <trkpt lat="43.47944000" lon="12.99097000">
        <ele>381.00000</ele>
        <time>2010-01-01T03:21:30Z</time>
      </trkpt>
      <trkpt lat="43.47988000" lon="12.99144000">
        <ele>380.00000</ele>
        <time>2010-01-01T03:21:52Z</time>
      </trkpt>
      <trkpt lat="43.48004000" lon="12.99163000">
        <ele>379.00000</ele>
        <time>2010-01-01T03:22:01Z</time>
      </trkpt>
      <trkpt lat="43.48008000" lon="12.99183000">
        <ele>378.00000</ele>
        <time>2010-01-01T03:22:07Z</time>
      </trkpt>
      <trkpt lat="43.48009000" lon="12.99290000">
        <ele>370.00000</ele>
        <time>2010-01-01T03:22:38Z</time>
      </trkpt>
      <trkpt lat="43.48012000" lon="12.99317000">
        <ele>369.00000</ele>
        <time>2010-01-01T03:22:46Z</time>
      </trkpt>
      <trkpt lat="43.48028000" lon="12.99389000">
        <ele>363.00000</ele>
        <time>2010-01-01T03:23:07Z</time>
      </trkpt>
      <trkpt lat="43.48033000" lon="12.99401000">
        <ele>363.00000</ele>
        <time>2010-01-01T03:23:11Z</time>
      </trkpt>
      <trkpt lat="43.48038000" lon="12.99412000">
        <ele>362.00000</ele>
        <time>2010-01-01T03:23:15Z</time>
      </trkpt>
      <trkpt lat="43.48051000" lon="12.99429000">
        <ele>362.00000</ele>
        <time>2010-01-01T03:23:22Z</time>
      </trkpt>
      <trkpt lat="43.48134000" lon="12.99525000">
        <ele>347.00000</ele>
        <time>2010-01-01T03:24:06Z</time>
      </trkpt>
      <trkpt lat="43.48158000" lon="12.99555000">
        <ele>344.00000</ele>
        <time>2010-01-01T03:24:19Z</time>
      </trkpt>
      <trkpt lat="43.48209000" lon="12.99628000">
        <ele>337.00000</ele>
        <time>2010-01-01T03:24:48Z</time>
      </trkpt>
      <trkpt lat="43.48242000" lon="12.99685000">
        <ele>332.00000</ele>
        <time>2010-01-01T03:25:09Z</time>
      </trkpt>
      <trkpt lat="43.48242000" lon="12.99684000">
        <ele>332.00000</ele>
        <time>2010-01-01T03:25:10Z</time>
      </trkpt>
      <trkpt lat="43.48258000" lon="12.99711000">
        <ele>331.00000</ele>
        <time>2010-01-01T03:25:20Z</time>
      </trkpt>
      <trkpt lat="43.48251000" lon="12.99719000">
        <ele>331.00000</ele>
        <time>2010-01-01T03:25:23Z</time>
      </trkpt>
      <trkpt lat="43.48289000" lon="12.99788000">
        <ele>328.00000</ele>
        <time>2010-01-01T03:25:49Z</time>
      </trkpt>
      <trkpt lat="43.48297000" lon="12.99782000">
        <ele>328.00000</ele>
        <time>2010-01-01T03:25:52Z</time>
      </trkpt>
      <trkpt lat="43.48342000" lon="12.99866000">
        <ele>323.00000</ele>
        <time>2010-01-01T03:26:23Z</time>
      </trkpt>
      <trkpt lat="43.48352000" lon="12.99883000">
        <ele>322.00000</ele>
        <time>2010-01-01T03:26:29Z</time>
      </trkpt>
      <trkpt lat="43.48360000" lon="12.99893000">
        <ele>322.00000</ele>
        <time>2010-01-01T03:26:33Z</time>
      </trkpt>
      <trkpt lat="43.48372000" lon="12.99897000">
        <ele>321.00000</ele>
        <time>2010-01-01T03:26:38Z</time>
      </trkpt>
      <trkpt lat="43.48521000" lon="12.99906000">
        <ele>304.00000</ele>
        <time>2010-01-01T03:27:38Z</time>
      </trkpt>
      <trkpt lat="43.48554000" lon="12.99910000">
        <ele>300.00000</ele>
        <time>2010-01-01T03:27:51Z</time>
      </trkpt>
      <trkpt lat="43.48584000" lon="12.99917000">
        <ele>298.00000</ele>
        <time>2010-01-01T03:28:03Z</time>
      </trkpt>
      <trkpt lat="43.48707000" lon="12.99962000">
        <ele>283.00000</ele>
        <time>2010-01-01T03:28:54Z</time>
      </trkpt>
      <trkpt lat="43.48840000" lon="13.00018000">
        <ele>271.00000</ele>
        <time>2010-01-01T03:29:50Z</time>
      </trkpt>
      <trkpt lat="43.48909000" lon="13.00040000">
        <ele>266.00000</ele>
        <time>2010-01-01T03:30:18Z</time>
      </trkpt>
      <trkpt lat="43.48923000" lon="13.00046000">
        <ele>265.00000</ele>
        <time>2010-01-01T03:30:24Z</time>
      </trkpt>
      <trkpt lat="43.48995000" lon="13.00108000">
        <ele>255.00000</ele>
        <time>2010-01-01T03:30:58Z</time>
      </trkpt>
      <trkpt lat="43.49045000" lon="13.00141000">
        <ele>252.00000</ele>
        <time>2010-01-01T03:31:20Z</time>
      </trkpt>
      <trkpt lat="43.49057000" lon="13.00153000">
        <ele>251.00000</ele>
        <time>2010-01-01T03:31:26Z</time>
      </trkpt>
      <trkpt lat="43.49091000" lon="13.00216000">
        <ele>250.00000</ele>
        <time>2010-01-01T03:31:49Z</time>
      </trkpt>
      <trkpt lat="43.49101000" lon="13.00229000">
        <ele>250.00000</ele>
        <time>2010-01-01T03:31:55Z</time>
      </trkpt>
      <trkpt lat="43.49186000" lon="13.00318000">
        <ele>242.00000</ele>
        <time>2010-01-01T03:32:37Z</time>
      </trkpt>
      <trkpt lat="43.49303000" lon="13.00427000">
        <ele>234.00000</ele>
        <time>2010-01-01T03:33:34Z</time>
      </trkpt>
      <trkpt lat="43.49416000" lon="13.00529000">
        <ele>226.00000</ele>
        <time>2010-01-01T03:34:28Z</time>
      </trkpt>
      <trkpt lat="43.49428000" lon="13.00535000">
        <ele>223.00000</ele>
        <time>2010-01-01T03:34:33Z</time>
      </trkpt>
      <trkpt lat="43.49451000" lon="13.00541000">
        <ele>219.00000</ele>
        <time>2010-01-01T03:34:42Z</time>
      </trkpt>
      <trkpt lat="43.49460000" lon="13.00546000">
        <ele>218.00000</ele>
        <time>2010-01-01T03:34:46Z</time>
      </trkpt>
      <trkpt lat="43.49468000" lon="13.00559000">
        <ele>217.00000</ele>
        <time>2010-01-01T03:34:51Z</time>
      </trkpt>
      <trkpt lat="43.49489000" lon="13.00617000">
        <ele>216.00000</ele>
        <time>2010-01-01T03:35:10Z</time>
      </trkpt>
      <trkpt lat="43.49498000" lon="13.00633000">
        <ele>214.00000</ele>
        <time>2010-01-01T03:35:16Z</time>
      </trkpt>
      <trkpt lat="43.49518000" lon="13.00652000">
        <ele>212.00000</ele>
        <time>2010-01-01T03:35:26Z</time>
      </trkpt>
      <trkpt lat="43.49548000" lon="13.00677000">
        <ele>210.00000</ele>
        <time>2010-01-01T03:35:40Z</time>
      </trkpt>
      <trkpt lat="43.49556000" lon="13.00690000">
        <ele>210.00000</ele>
        <time>2010-01-01T03:35:45Z</time>
      </trkpt>
      <trkpt lat="43.49569000" lon="13.00750000">
        <ele>211.00000</ele>
        <time>2010-01-01T03:36:03Z</time>
      </trkpt>
      <trkpt lat="43.49574000" lon="13.00759000">
        <ele>210.00000</ele>
        <time>2010-01-01T03:36:06Z</time>
      </trkpt>
      <trkpt lat="43.49579000" lon="13.00762000">
        <ele>209.00000</ele>
        <time>2010-01-01T03:36:08Z</time>
      </trkpt>
      <trkpt lat="43.49589000" lon="13.00763000">
        <ele>207.00000</ele>
        <time>2010-01-01T03:36:12Z</time>
      </trkpt>
      <trkpt lat="43.49643000" lon="13.00739000">
        <ele>206.00000</ele>
        <time>2010-01-01T03:36:35Z</time>
      </trkpt>
      <trkpt lat="43.49659000" lon="13.00737000">
        <ele>208.00000</ele>
        <time>2010-01-01T03:36:41Z</time>
      </trkpt>
      <trkpt lat="43.49669000" lon="13.00745000">
        <ele>209.00000</ele>
        <time>2010-01-01T03:36:46Z</time>
      </trkpt>
      <trkpt lat="43.49730000" lon="13.00821000">
        <ele>209.00000</ele>
        <time>2010-01-01T03:37:19Z</time>
      </trkpt>
      <trkpt lat="43.49814000" lon="13.00913000">
        <ele>206.00000</ele>
        <time>2010-01-01T03:38:02Z</time>
      </trkpt>
      <trkpt lat="43.49845000" lon="13.00933000">
        <ele>207.00000</ele>
        <time>2010-01-01T03:38:16Z</time>
      </trkpt>
      <trkpt lat="43.49885000" lon="13.00949000">
        <ele>206.00000</ele>
        <time>2010-01-01T03:38:32Z</time>
      </trkpt>
      <trkpt lat="43.49903000" lon="13.00959000">
        <ele>207.00000</ele>
        <time>2010-01-01T03:38:40Z</time>
      </trkpt>
      <trkpt lat="43.49934000" lon="13.00979000">
        <ele>208.00000</ele>
        <time>2010-01-01T03:38:54Z</time>
      </trkpt>
      <trkpt lat="43.49949000" lon="13.00980000">
        <ele>209.00000</ele>
        <time>2010-01-01T03:39:00Z</time>
      </trkpt>
      <trkpt lat="43.49960000" lon="13.00972000">
        <ele>211.00000</ele>
        <time>2010-01-01T03:39:05Z</time>
      </trkpt>
      <trkpt lat="43.49972000" lon="13.00949000">
        <ele>213.00000</ele>
        <time>2010-01-01T03:39:13Z</time>
      </trkpt>
      <trkpt lat="43.49987000" lon="13.00910000">
        <ele>212.00000</ele>
        <time>2010-01-01T03:39:26Z</time>
      </trkpt>
      <trkpt lat="43.49997000" lon="13.00897000">
        <ele>213.00000</ele>
        <time>2010-01-01T03:39:31Z</time>
      </trkpt>
      <trkpt lat="43.50006000" lon="13.00889000">
        <ele>213.00000</ele>
        <time>2010-01-01T03:39:36Z</time>
      </trkpt>
      <trkpt lat="43.50170000" lon="13.00801000">
        <ele>228.00000</ele>
        <time>2010-01-01T03:40:46Z</time>
      </trkpt>
      <trkpt lat="43.50178000" lon="13.00794000">
        <ele>228.00000</ele>
        <time>2010-01-01T03:40:50Z</time>
      </trkpt>
      <trkpt lat="43.50187000" lon="13.00790000">
        <ele>228.00000</ele>
        <time>2010-01-01T03:40:54Z</time>
      </trkpt>
      <trkpt lat="43.50210000" lon="13.00771000">
        <ele>229.00000</ele>
        <time>2010-01-01T03:41:04Z</time>
      </trkpt>
      <trkpt lat="43.50235000" lon="13.00753000">
        <ele>230.00000</ele>
        <time>2010-01-01T03:41:16Z</time>
      </trkpt>
      <trkpt lat="43.50259000" lon="13.00745000">
        <ele>231.00000</ele>
        <time>2010-01-01T03:41:26Z</time>
      </trkpt>
      <trkpt lat="43.50270000" lon="13.00745000">
        <ele>231.00000</ele>
        <time>2010-01-01T03:41:30Z</time>
      </trkpt>
      <trkpt lat="43.50314000" lon="13.00719000">
        <ele>238.00000</ele>
        <time>2010-01-01T03:41:49Z</time>
      </trkpt>
      <trkpt lat="43.50336000" lon="13.00711000">
        <ele>239.00000</ele>
        <time>2010-01-01T03:41:58Z</time>
      </trkpt>
      <trkpt lat="43.50353000" lon="13.00711000">
        <ele>239.00000</ele>
        <time>2010-01-01T03:42:05Z</time>
      </trkpt>
      <trkpt lat="43.50400000" lon="13.00708000">
        <ele>243.00000</ele>
        <time>2010-01-01T03:42:24Z</time>
      </trkpt>
      <trkpt lat="43.50475330" lon="13.00718220">
        <ele>243.00000</ele>
        <time>2010-01-01T03:42:54Z</time>
      </trkpt>
      <trkpt lat="43.50678000" lon="13.00884000">
        <ele>235.00000</ele>
        <time>2010-01-01T03:44:28Z</time>
      </trkpt>
      <trkpt lat="43.50696000" lon="13.00893000">
        <ele>234.00000</ele>
        <time>2010-01-01T03:44:36Z</time>
      </trkpt>
      <trkpt lat="43.50753000" lon="13.00915000">
        <ele>233.00000</ele>
        <time>2010-01-01T03:45:00Z</time>
      </trkpt>
      <trkpt lat="43.50805000" lon="13.00943000">
        <ele>231.00000</ele>
        <time>2010-01-01T03:45:22Z</time>
      </trkpt>
      <trkpt lat="43.50848000" lon="13.00991000">
        <ele>229.00000</ele>
        <time>2010-01-01T03:45:44Z</time>
      </trkpt>
      <trkpt lat="43.50869000" lon="13.01022000">
        <ele>224.00000</ele>
        <time>2010-01-01T03:45:57Z</time>
      </trkpt>
      <trkpt lat="43.50890000" lon="13.01047000">
        <ele>218.00000</ele>
        <time>2010-01-01T03:46:08Z</time>
      </trkpt>
      <trkpt lat="43.50931000" lon="13.01089000">
        <ele>211.00000</ele>
        <time>2010-01-01T03:46:28Z</time>
      </trkpt>
      <trkpt lat="43.50966000" lon="13.01118000">
        <ele>207.00000</ele>
        <time>2010-01-01T03:46:45Z</time>
      </trkpt>
      <trkpt lat="43.51006000" lon="13.01137000">
        <ele>205.00000</ele>
        <time>2010-01-01T03:47:01Z</time>
      </trkpt>
      <trkpt lat="43.51021000" lon="13.01147000">
        <ele>204.00000</ele>
        <time>2010-01-01T03:47:08Z</time>
      </trkpt>
      <trkpt lat="43.51053000" lon="13.01178000">
        <ele>201.00000</ele>
        <time>2010-01-01T03:47:24Z</time>
      </trkpt>
      <trkpt lat="43.51145000" lon="13.01220000">
        <ele>186.00000</ele>
        <time>2010-01-01T03:48:03Z</time>
      </trkpt>
      <trkpt lat="43.51164000" lon="13.01224000">
        <ele>183.00000</ele>
        <time>2010-01-01T03:48:10Z</time>
      </trkpt>
      <trkpt lat="43.51207000" lon="13.01222000">
        <ele>178.00000</ele>
        <time>2010-01-01T03:48:27Z</time>
      </trkpt>
      <trkpt lat="43.51233000" lon="13.01217000">
        <ele>174.00000</ele>
        <time>2010-01-01T03:48:38Z</time>
      </trkpt>
      <trkpt lat="43.51259000" lon="13.01208000">
        <ele>171.00000</ele>
        <time>2010-01-01T03:48:49Z</time>
      </trkpt>
      <trkpt lat="43.51302000" lon="13.01187000">
        <ele>166.00000</ele>
        <time>2010-01-01T03:49:07Z</time>
      </trkpt>
      <trkpt lat="43.51325000" lon="13.01180000">
        <ele>165.00000</ele>
        <time>2010-01-01T03:49:16Z</time>
      </trkpt>
      <trkpt lat="43.51346000" lon="13.01181000">
        <ele>166.00000</ele>
        <time>2010-01-01T03:49:25Z</time>
      </trkpt>
      <trkpt lat="43.51366000" lon="13.01188000">
        <ele>166.00000</ele>
        <time>2010-01-01T03:49:33Z</time>
      </trkpt>
      <trkpt lat="43.51379000" lon="13.01193000">
        <ele>167.00000</ele>
        <time>2010-01-01T03:49:38Z</time>
      </trkpt>
      <trkpt lat="43.51455000" lon="13.01249000">
        <ele>171.00000</ele>
        <time>2010-01-01T03:50:13Z</time>
      </trkpt>
      <trkpt lat="43.51571000" lon="13.01326000">
        <ele>170.00000</ele>
        <time>2010-01-01T03:51:05Z</time>
      </trkpt>
      <trkpt lat="43.51600000" lon="13.01340000">
        <ele>169.00000</ele>
        <time>2010-01-01T03:51:17Z</time>
      </trkpt>
      <trkpt lat="43.51667000" lon="13.01364000">
        <ele>168.00000</ele>
        <time>2010-01-01T03:51:45Z</time>
      </trkpt>
      <trkpt lat="43.51731000" lon="13.01395000">
        <ele>170.00000</ele>
        <time>2010-01-01T03:52:12Z</time>
      </trkpt>
      <trkpt lat="43.51820000" lon="13.01430000">
        <ele>165.00000</ele>
        <time>2010-01-01T03:52:49Z</time>
      </trkpt>
      <trkpt lat="43.51956000" lon="13.01492000">
        <ele>155.00000</ele>
        <time>2010-01-01T03:53:46Z</time>
      </trkpt>
      <trkpt lat="43.52015000" lon="13.01533000">
        <ele>157.00000</ele>
        <time>2010-01-01T03:54:13Z</time>
      </trkpt>
      <trkpt lat="43.52036000" lon="13.01556000">
        <ele>158.00000</ele>
        <time>2010-01-01T03:54:23Z</time>
      </trkpt>
      <trkpt lat="43.52051000" lon="13.01585000">
        <ele>157.00000</ele>
        <time>2010-01-01T03:54:34Z</time>
      </trkpt>
      <trkpt lat="43.52082000" lon="13.01658000">
        <ele>155.00000</ele>
        <time>2010-01-01T03:54:58Z</time>
      </trkpt>
      <trkpt lat="43.52115000" lon="13.01704000">
        <ele>154.00000</ele>
        <time>2010-01-01T03:55:17Z</time>
      </trkpt>
      <trkpt lat="43.52141000" lon="13.01719000">
        <ele>155.00000</ele>
        <time>2010-01-01T03:55:28Z</time>
      </trkpt>
      <trkpt lat="43.52168000" lon="13.01728000">
        <ele>155.00000</ele>
        <time>2010-01-01T03:55:39Z</time>
      </trkpt>
      <trkpt lat="43.52228000" lon="13.01741000">
        <ele>156.00000</ele>
        <time>2010-01-01T03:56:04Z</time>
      </trkpt>
      <trkpt lat="43.52283000" lon="13.01756000">
        <ele>157.00000</ele>
        <time>2010-01-01T03:56:26Z</time>
      </trkpt>
      <trkpt lat="43.52375000" lon="13.01770000">
        <ele>158.00000</ele>
        <time>2010-01-01T03:57:03Z</time>
      </trkpt>
      <trkpt lat="43.52443000" lon="13.01769000">
        <ele>157.00000</ele>
        <time>2010-01-01T03:57:30Z</time>
      </trkpt>
      <trkpt lat="43.52585000" lon="13.01746000">
        <ele>157.00000</ele>
        <time>2010-01-01T03:58:28Z</time>
      </trkpt>
      <trkpt lat="43.52645000" lon="13.01731000">
        <ele>159.00000</ele>
        <time>2010-01-01T03:58:52Z</time>
      </trkpt>
      <trkpt lat="43.52670000" lon="13.01728000">
        <ele>159.00000</ele>
        <time>2010-01-01T03:59:02Z</time>
      </trkpt>
      <trkpt lat="43.52682000" lon="13.01731000">
        <ele>158.00000</ele>
        <time>2010-01-01T03:59:07Z</time>
      </trkpt>
      <trkpt lat="43.52787000" lon="13.01807000">
        <ele>156.00000</ele>
        <time>2010-01-01T03:59:54Z</time>
      </trkpt>
      <trkpt lat="43.52847000" lon="13.01839000">
        <ele>152.00000</ele>
        <time>2010-01-01T04:00:20Z</time>
      </trkpt>
      <trkpt lat="43.52873000" lon="13.01862000">
        <ele>151.00000</ele>
        <time>2010-01-01T04:00:33Z</time>
      </trkpt>
      <trkpt lat="43.52970000" lon="13.02004000">
        <ele>151.00000</ele>
        <time>2010-01-01T04:01:29Z</time>
      </trkpt>
      <trkpt lat="43.53011000" lon="13.02035000">
        <ele>150.00000</ele>
        <time>2010-01-01T04:01:48Z</time>
      </trkpt>
      <trkpt lat="43.53051000" lon="13.02044000">
        <ele>149.00000</ele>
        <time>2010-01-01T04:02:04Z</time>
      </trkpt>
      <trkpt lat="43.53106000" lon="13.02048000">
        <ele>150.00000</ele>
        <time>2010-01-01T04:02:26Z</time>
      </trkpt>
      <trkpt lat="43.53246000" lon="13.02047000">
        <ele>148.00000</ele>
        <time>2010-01-01T04:03:22Z</time>
      </trkpt>
      <trkpt lat="43.53328000" lon="13.02081000">
        <ele>144.00000</ele>
        <time>2010-01-01T04:03:56Z</time>
      </trkpt>
      <trkpt lat="43.53434000" lon="13.02151000">
        <ele>144.00000</ele>
        <time>2010-01-01T04:04:43Z</time>
      </trkpt>
      <trkpt lat="43.53465000" lon="13.02167000">
        <ele>143.00000</ele>
        <time>2010-01-01T04:04:57Z</time>
      </trkpt>
      <trkpt lat="43.53490000" lon="13.02178000">
        <ele>143.00000</ele>
        <time>2010-01-01T04:05:07Z</time>
      </trkpt>
      <trkpt lat="43.53490000" lon="13.02192000">
        <ele>143.00000</ele>
        <time>2010-01-01T04:05:11Z</time>
      </trkpt>
      <trkpt lat="43.53497000" lon="13.02202000">
        <ele>142.00000</ele>
        <time>2010-01-01T04:05:15Z</time>
      </trkpt>
      <trkpt lat="43.53502000" lon="13.02203000">
        <ele>142.00000</ele>
        <time>2010-01-01T04:05:17Z</time>
      </trkpt>
      <trkpt lat="43.53512000" lon="13.02200000">
        <ele>142.00000</ele>
        <time>2010-01-01T04:05:21Z</time>
      </trkpt>
      <trkpt lat="43.53517000" lon="13.02189000">
        <ele>142.00000</ele>
        <time>2010-01-01T04:05:25Z</time>
      </trkpt>
      <trkpt lat="43.53517000" lon="13.02178000">
        <ele>142.00000</ele>
        <time>2010-01-01T04:05:28Z</time>
      </trkpt>
      <trkpt lat="43.53511000" lon="13.02167000">
        <ele>142.00000</ele>
        <time>2010-01-01T04:05:32Z</time>
      </trkpt>
      <trkpt lat="43.53507000" lon="13.02164000">
        <ele>142.00000</ele>
        <time>2010-01-01T04:05:34Z</time>
      </trkpt>
      <trkpt lat="43.53499000" lon="13.02165000">
        <ele>142.00000</ele>
        <time>2010-01-01T04:05:37Z</time>
      </trkpt>
      <trkpt lat="43.53493000" lon="13.02171000">
        <ele>143.00000</ele>
        <time>2010-01-01T04:05:40Z</time>
      </trkpt>
      <trkpt lat="43.53490000" lon="13.02178000">
        <ele>143.00000</ele>
        <time>2010-01-01T04:05:43Z</time>
      </trkpt>
      <trkpt lat="43.53489000" lon="13.02185000">
        <ele>143.00000</ele>
        <time>2010-01-01T04:05:45Z</time>
      </trkpt>
      <trkpt lat="43.53490000" lon="13.02192000">
        <ele>143.00000</ele>
        <time>2010-01-01T04:05:47Z</time>
      </trkpt>
      <trkpt lat="43.53497000" lon="13.02202000">
        <ele>142.00000</ele>
        <time>2010-01-01T04:05:51Z</time>
      </trkpt>
      <trkpt lat="43.53502000" lon="13.02203000">
        <ele>142.00000</ele>
        <time>2010-01-01T04:05:53Z</time>
      </trkpt>
      <trkpt lat="43.53507000" lon="13.02203000">
        <ele>142.00000</ele>
        <time>2010-01-01T04:05:55Z</time>
      </trkpt>
      <trkpt lat="43.53512000" lon="13.02200000">
        <ele>142.00000</ele>
        <time>2010-01-01T04:05:57Z</time>
      </trkpt>
      <trkpt lat="43.53517000" lon="13.02189000">
        <ele>142.00000</ele>
        <time>2010-01-01T04:06:01Z</time>
      </trkpt>
      <trkpt lat="43.53517000" lon="13.02178000">
        <ele>142.00000</ele>
        <time>2010-01-01T04:06:04Z</time>
      </trkpt>
      <trkpt lat="43.53511000" lon="13.02167000">
        <ele>142.00000</ele>
        <time>2010-01-01T04:06:08Z</time>
      </trkpt>
      <trkpt lat="43.53504000" lon="13.02164000">
        <ele>142.00000</ele>
        <time>2010-01-01T04:06:11Z</time>
      </trkpt>
      <trkpt lat="43.53516000" lon="13.02101000">
        <ele>137.00000</ele>
        <time>2010-01-01T04:06:30Z</time>
      </trkpt>
      <trkpt lat="43.53538000" lon="13.02028000">
        <ele>138.00000</ele>
        <time>2010-01-01T04:06:53Z</time>
      </trkpt>
      <trkpt lat="43.53570000" lon="13.01969000">
        <ele>140.00000</ele>
        <time>2010-01-01T04:07:14Z</time>
      </trkpt>
      <trkpt lat="43.53613000" lon="13.01918000">
        <ele>139.00000</ele>
        <time>2010-01-01T04:07:37Z</time>
      </trkpt>
      <trkpt lat="43.53646000" lon="13.01891000">
        <ele>140.00000</ele>
        <time>2010-01-01T04:07:52Z</time>
      </trkpt>
      <trkpt lat="43.53672000" lon="13.01878000">
        <ele>141.00000</ele>
        <time>2010-01-01T04:08:03Z</time>
      </trkpt>
      <trkpt lat="43.53805000" lon="13.01911000">
        <ele>138.00000</ele>
        <time>2010-01-01T04:08:58Z</time>
      </trkpt>
      <trkpt lat="43.53851000" lon="13.01920000">
        <ele>135.00000</ele>
        <time>2010-01-01T04:09:16Z</time>
      </trkpt>
      <trkpt lat="43.53933000" lon="13.01917000">
        <ele>128.00000</ele>
        <time>2010-01-01T04:09:49Z</time>
      </trkpt>
      <trkpt lat="43.53952000" lon="13.01927000">
        <ele>127.00000</ele>
        <time>2010-01-01T04:09:57Z</time>
      </trkpt>
      <trkpt lat="43.53980000" lon="13.01956000">
        <ele>127.00000</ele>
        <time>2010-01-01T04:10:11Z</time>
      </trkpt>
      <trkpt lat="43.54021000" lon="13.01976000">
        <ele>126.00000</ele>
        <time>2010-01-01T04:10:29Z</time>
      </trkpt>
      <trkpt lat="43.54073000" lon="13.01995000">
        <ele>129.00000</ele>
        <time>2010-01-01T04:10:50Z</time>
      </trkpt>
      <trkpt lat="43.54119000" lon="13.02004000">
        <ele>134.00000</ele>
        <time>2010-01-01T04:11:09Z</time>
      </trkpt>
      <trkpt lat="43.54163000" lon="13.02001000">
        <ele>137.00000</ele>
        <time>2010-01-01T04:11:26Z</time>
      </trkpt>
      <trkpt lat="43.54178000" lon="13.02030000">
        <ele>138.00000</ele>
        <time>2010-01-01T04:11:37Z</time>
      </trkpt>
      <trkpt lat="43.54178000" lon="13.02029000">
        <ele>138.00000</ele>
        <time>2010-01-01T04:11:37Z</time>
      </trkpt>
      <trkpt lat="43.54240000" lon="13.02146000">
        <ele>140.00000</ele>
        <time>2010-01-01T04:12:19Z</time>
      </trkpt>
      <trkpt lat="43.54252000" lon="13.02165000">
        <ele>139.00000</ele>
        <time>2010-01-01T04:12:26Z</time>
      </trkpt>
      <trkpt lat="43.54265000" lon="13.02178000">
        <ele>138.00000</ele>
        <time>2010-01-01T04:12:33Z</time>
      </trkpt>
      <trkpt lat="43.54281000" lon="13.02188000">
        <ele>137.00000</ele>
        <time>2010-01-01T04:12:40Z</time>
      </trkpt>
      <trkpt lat="43.54299000" lon="13.02195000">
        <ele>137.00000</ele>
        <time>2010-01-01T04:12:47Z</time>
      </trkpt>
      <trkpt lat="43.54388000" lon="13.02218000">
        <ele>136.00000</ele>
        <time>2010-01-01T04:13:23Z</time>
      </trkpt>
      <trkpt lat="43.54774000" lon="13.02311000">
        <ele>133.00000</ele>
        <time>2010-01-01T04:16:00Z</time>
      </trkpt>
      <trkpt lat="43.54947000" lon="13.02358000">
        <ele>129.00000</ele>
        <time>2010-01-01T04:17:11Z</time>
      </trkpt>
      <trkpt lat="43.54971000" lon="13.02360000">
        <ele>129.00000</ele>
        <time>2010-01-01T04:17:21Z</time>
      </trkpt>
      <trkpt lat="43.55061970" lon="13.02351400">
        <ele>128.00000</ele>
        <time>2010-01-01T04:17:57Z</time>
      </trkpt>
      <trkpt lat="43.55695000" lon="13.02256000">
        <ele>126.00000</ele>
        <time>2010-01-01T04:22:12Z</time>
      </trkpt>
      <trkpt lat="43.55733000" lon="13.02254000">
        <ele>125.00000</ele>
        <time>2010-01-01T04:22:27Z</time>
      </trkpt>
      <trkpt lat="43.55758000" lon="13.02260000">
        <ele>125.00000</ele>
        <time>2010-01-01T04:22:37Z</time>
      </trkpt>
      <trkpt lat="43.55793660" lon="13.02266090">
        <ele>125.00000</ele>
        <time>2010-01-01T04:22:52Z</time>
      </trkpt>
      <trkpt lat="43.55831380" lon="13.02282490">
        <ele>122.00000</ele>
        <time>2010-01-01T04:23:08Z</time>
      </trkpt>
      <trkpt lat="43.55856350" lon="13.02305010">
        <ele>121.00000</ele>
        <time>2010-01-01T04:23:19Z</time>
      </trkpt>
      <trkpt lat="43.55889180" lon="13.02371620">
        <ele>120.00000</ele>
        <time>2010-01-01T04:23:43Z</time>
      </trkpt>
      <trkpt lat="43.55911910" lon="13.02420090">
        <ele>117.00000</ele>
        <time>2010-01-01T04:24:00Z</time>
      </trkpt>
      <trkpt lat="43.55948870" lon="13.02509220">
        <ele>116.00000</ele>
        <time>2010-01-01T04:24:29Z</time>
      </trkpt>
      <trkpt lat="43.55979790" lon="13.02574240">
        <ele>118.00000</ele>
        <time>2010-01-01T04:24:52Z</time>
      </trkpt>
      <trkpt lat="43.56010340" lon="13.02638330">
        <ele>118.00000</ele>
        <time>2010-01-01T04:25:14Z</time>
      </trkpt>
      <trkpt lat="43.56057610" lon="13.02729070">
        <ele>116.00000</ele>
        <time>2010-01-01T04:25:47Z</time>
      </trkpt>
      <trkpt lat="43.56197230" lon="13.03011810">
        <ele>112.00000</ele>
        <time>2010-01-01T04:27:26Z</time>
      </trkpt>
      <trkpt lat="43.56431340" lon="13.02921440">
        <ele>118.00000</ele>
        <time>2010-01-01T04:29:03Z</time>
      </trkpt>
      <trkpt lat="43.56501930" lon="13.02955930">
        <ele>120.00000</ele>
        <time>2010-01-01T04:29:33Z</time>
      </trkpt>
      <trkpt lat="43.56582000" lon="13.03002000">
        <ele>129.00000</ele>
        <time>2010-01-01T04:30:08Z</time>
      </trkpt>
      <trkpt lat="43.56605000" lon="13.03026000">
        <ele>129.00000</ele>
        <time>2010-01-01T04:30:19Z</time>
      </trkpt>
      <trkpt lat="43.56638000" lon="13.03066000">
        <ele>128.00000</ele>
        <time>2010-01-01T04:30:37Z</time>
      </trkpt>
      <trkpt lat="43.56646000" lon="13.03073000">
        <ele>128.00000</ele>
        <time>2010-01-01T04:30:41Z</time>
      </trkpt>
      <trkpt lat="43.56656000" lon="13.03077000">
        <ele>129.00000</ele>
        <time>2010-01-01T04:30:45Z</time>
      </trkpt>
      <trkpt lat="43.56664000" lon="13.03073000">
        <ele>130.00000</ele>
        <time>2010-01-01T04:30:48Z</time>
      </trkpt>
      <trkpt lat="43.56669000" lon="13.03066000">
        <ele>132.00000</ele>
        <time>2010-01-01T04:30:51Z</time>
      </trkpt>
      <trkpt lat="43.56669000" lon="13.03053000">
        <ele>133.00000</ele>
        <time>2010-01-01T04:30:55Z</time>
      </trkpt>
      <trkpt lat="43.56666000" lon="13.03040000">
        <ele>134.00000</ele>
        <time>2010-01-01T04:30:59Z</time>
      </trkpt>
      <trkpt lat="43.56651000" lon="13.03013000">
        <ele>135.00000</ele>
        <time>2010-01-01T04:31:09Z</time>
      </trkpt>
      <trkpt lat="43.56650000" lon="13.03013000">
        <ele>135.00000</ele>
        <time>2010-01-01T04:31:09Z</time>
      </trkpt>
      <trkpt lat="43.56600000" lon="13.02921000">
        <ele>137.00000</ele>
        <time>2010-01-01T04:31:43Z</time>
      </trkpt>
      <trkpt lat="43.56595000" lon="13.02902000">
        <ele>138.00000</ele>
        <time>2010-01-01T04:31:48Z</time>
      </trkpt>
      <trkpt lat="43.56595000" lon="13.02891000">
        <ele>139.00000</ele>
        <time>2010-01-01T04:31:52Z</time>
      </trkpt>
      <trkpt lat="43.56600000" lon="13.02880000">
        <ele>139.00000</ele>
        <time>2010-01-01T04:31:55Z</time>
      </trkpt>
      <trkpt lat="43.56608000" lon="13.02872000">
        <ele>138.00000</ele>
        <time>2010-01-01T04:31:59Z</time>
      </trkpt>
      <trkpt lat="43.56725000" lon="13.02818000">
        <ele>147.00000</ele>
        <time>2010-01-01T04:32:49Z</time>
      </trkpt>
      <trkpt lat="43.56768000" lon="13.02808000">
        <ele>149.00000</ele>
        <time>2010-01-01T04:33:06Z</time>
      </trkpt>
      <trkpt lat="43.56793000" lon="13.02809000">
        <ele>149.00000</ele>
        <time>2010-01-01T04:33:16Z</time>
      </trkpt>
      <trkpt lat="43.56918000" lon="13.02840000">
        <ele>150.00000</ele>
        <time>2010-01-01T04:34:07Z</time>
      </trkpt>
      <trkpt lat="43.56953000" lon="13.02842000">
        <ele>150.00000</ele>
        <time>2010-01-01T04:34:21Z</time>
      </trkpt>
      <trkpt lat="43.56986000" lon="13.02836000">
        <ele>151.00000</ele>
        <time>2010-01-01T04:34:34Z</time>
      </trkpt>
      <trkpt lat="43.57017000" lon="13.02821000">
        <ele>152.00000</ele>
        <time>2010-01-01T04:34:48Z</time>
      </trkpt>
      <trkpt lat="43.57068000" lon="13.02778000">
        <ele>154.00000</ele>
        <time>2010-01-01T04:35:11Z</time>
      </trkpt>
      <trkpt lat="43.57092000" lon="13.02754000">
        <ele>154.00000</ele>
        <time>2010-01-01T04:35:23Z</time>
      </trkpt>
      <trkpt lat="43.57141000" lon="13.02710000">
        <ele>156.00000</ele>
        <time>2010-01-01T04:35:47Z</time>
      </trkpt>
      <trkpt lat="43.57167000" lon="13.02691000">
        <ele>157.00000</ele>
        <time>2010-01-01T04:35:58Z</time>
      </trkpt>
      <trkpt lat="43.57191000" lon="13.02670000">
        <ele>158.00000</ele>
        <time>2010-01-01T04:36:10Z</time>
      </trkpt>
      <trkpt lat="43.57206000" lon="13.02651000">
        <ele>157.00000</ele>
        <time>2010-01-01T04:36:18Z</time>
      </trkpt>
      <trkpt lat="43.57215000" lon="13.02636000">
        <ele>157.00000</ele>
        <time>2010-01-01T04:36:24Z</time>
      </trkpt>
      <trkpt lat="43.57233000" lon="13.02600000">
        <ele>158.00000</ele>
        <time>2010-01-01T04:36:36Z</time>
      </trkpt>
      <trkpt lat="43.57243000" lon="13.02574000">
        <ele>159.00000</ele>
        <time>2010-01-01T04:36:45Z</time>
      </trkpt>
      <trkpt lat="43.57259000" lon="13.02544000">
        <ele>158.00000</ele>
        <time>2010-01-01T04:36:56Z</time>
      </trkpt>
      <trkpt lat="43.57273000" lon="13.02534000">
        <ele>159.00000</ele>
        <time>2010-01-01T04:37:02Z</time>
      </trkpt>
      <trkpt lat="43.57300000" lon="13.02524000">
        <ele>161.00000</ele>
        <time>2010-01-01T04:37:13Z</time>
      </trkpt>
      <trkpt lat="43.57315000" lon="13.02515000">
        <ele>163.00000</ele>
        <time>2010-01-01T04:37:20Z</time>
      </trkpt>
      <trkpt lat="43.57325000" lon="13.02507000">
        <ele>164.00000</ele>
        <time>2010-01-01T04:37:24Z</time>
      </trkpt>
      <trkpt lat="43.57346000" lon="13.02485000">
        <ele>167.00000</ele>
        <time>2010-01-01T04:37:35Z</time>
      </trkpt>
      <trkpt lat="43.57373000" lon="13.02452000">
        <ele>171.00000</ele>
        <time>2010-01-01T04:37:49Z</time>
      </trkpt>
      <trkpt lat="43.57386000" lon="13.02440000">
        <ele>172.00000</ele>
        <time>2010-01-01T04:37:56Z</time>
      </trkpt>
      <trkpt lat="43.57406000" lon="13.02426000">
        <ele>172.00000</ele>
        <time>2010-01-01T04:38:05Z</time>
      </trkpt>
      <trkpt lat="43.57423000" lon="13.02418000">
        <ele>171.00000</ele>
        <time>2010-01-01T04:38:12Z</time>
      </trkpt>
      <trkpt lat="43.57442000" lon="13.02403000">
        <ele>172.00000</ele>
        <time>2010-01-01T04:38:21Z</time>
      </trkpt>
      <trkpt lat="43.57445000" lon="13.02392000">
        <ele>173.00000</ele>
        <time>2010-01-01T04:38:24Z</time>
      </trkpt>
      <trkpt lat="43.57444000" lon="13.02386000">
        <ele>174.00000</ele>
        <time>2010-01-01T04:38:26Z</time>
      </trkpt>
      <trkpt lat="43.57439000" lon="13.02376000">
        <ele>175.00000</ele>
        <time>2010-01-01T04:38:29Z</time>
      </trkpt>
      <trkpt lat="43.57431000" lon="13.02373000">
        <ele>176.00000</ele>
        <time>2010-01-01T04:38:33Z</time>
      </trkpt>
      <trkpt lat="43.57371000" lon="13.02391000">
        <ele>176.00000</ele>
        <time>2010-01-01T04:38:57Z</time>
      </trkpt>
      <trkpt lat="43.57362000" lon="13.02390000">
        <ele>176.00000</ele>
        <time>2010-01-01T04:39:01Z</time>
      </trkpt>
      <trkpt lat="43.57355000" lon="13.02382000">
        <ele>177.00000</ele>
        <time>2010-01-01T04:39:04Z</time>
      </trkpt>
      <trkpt lat="43.57354000" lon="13.02370000">
        <ele>178.00000</ele>
        <time>2010-01-01T04:39:08Z</time>
      </trkpt>
      <trkpt lat="43.57358000" lon="13.02359000">
        <ele>180.00000</ele>
        <time>2010-01-01T04:39:11Z</time>
      </trkpt>
      <trkpt lat="43.57362000" lon="13.02356000">
        <ele>180.00000</ele>
        <time>2010-01-01T04:39:13Z</time>
      </trkpt>
      <trkpt lat="43.57436000" lon="13.02314000">
        <ele>183.00000</ele>
        <time>2010-01-01T04:39:45Z</time>
      </trkpt>
      <trkpt lat="43.57541000" lon="13.02266000">
        <ele>191.00000</ele>
        <time>2010-01-01T04:40:30Z</time>
      </trkpt>
      <trkpt lat="43.57570000" lon="13.02257000">
        <ele>195.00000</ele>
        <time>2010-01-01T04:40:42Z</time>
      </trkpt>
      <trkpt lat="43.57649000" lon="13.02251000">
        <ele>200.00000</ele>
        <time>2010-01-01T04:41:13Z</time>
      </trkpt>
      <trkpt lat="43.57685000" lon="13.02254000">
        <ele>205.00000</ele>
        <time>2010-01-01T04:41:28Z</time>
      </trkpt>
      <trkpt lat="43.57735000" lon="13.02265000">
        <ele>210.00000</ele>
        <time>2010-01-01T04:41:48Z</time>
      </trkpt>
      <trkpt lat="43.57782950" lon="13.02283000">
        <ele>209.00000</ele>
        <time>2010-01-01T04:42:08Z</time>
      </trkpt>
      <trkpt lat="43.57822330" lon="13.02302960">
        <ele>209.00000</ele>
        <time>2010-01-01T04:42:25Z</time>
      </trkpt>
      <trkpt lat="43.57895000" lon="13.02337000">
        <ele>216.00000</ele>
        <time>2010-01-01T04:42:55Z</time>
      </trkpt>
      <trkpt lat="43.57903000" lon="13.02347000">
        <ele>216.00000</ele>
        <time>2010-01-01T04:43:00Z</time>
      </trkpt>
      <trkpt lat="43.57907000" lon="13.02360000">
        <ele>216.00000</ele>
        <time>2010-01-01T04:43:04Z</time>
      </trkpt>
      <trkpt lat="43.57910000" lon="13.02373000">
        <ele>216.00000</ele>
        <time>2010-01-01T04:43:08Z</time>
      </trkpt>
      <trkpt lat="43.57913000" lon="13.02444000">
        <ele>216.00000</ele>
        <time>2010-01-01T04:43:28Z</time>
      </trkpt>
      <trkpt lat="43.57919000" lon="13.02501000">
        <ele>214.00000</ele>
        <time>2010-01-01T04:43:45Z</time>
      </trkpt>
      <trkpt lat="43.57915000" lon="13.02515000">
        <ele>213.00000</ele>
        <time>2010-01-01T04:43:49Z</time>
      </trkpt>
      <trkpt lat="43.57909000" lon="13.02527000">
        <ele>212.00000</ele>
        <time>2010-01-01T04:43:54Z</time>
      </trkpt>
      <trkpt lat="43.57908000" lon="13.02533000">
        <ele>211.00000</ele>
        <time>2010-01-01T04:43:55Z</time>
      </trkpt>
      <trkpt lat="43.57911000" lon="13.02541000">
        <ele>211.00000</ele>
        <time>2010-01-01T04:43:58Z</time>
      </trkpt>
      <trkpt lat="43.57915000" lon="13.02544000">
        <ele>211.00000</ele>
        <time>2010-01-01T04:44:00Z</time>
      </trkpt>
      <trkpt lat="43.57923000" lon="13.02543000">
        <ele>211.00000</ele>
        <time>2010-01-01T04:44:03Z</time>
      </trkpt>
      <trkpt lat="43.57941000" lon="13.02547000">
        <ele>211.00000</ele>
        <time>2010-01-01T04:44:10Z</time>
      </trkpt>
      <trkpt lat="43.58080440" lon="13.02587460">
        <ele>215.00000</ele>
        <time>2010-01-01T04:45:07Z</time>
      </trkpt>
      <trkpt lat="43.58141000" lon="13.02607000">
        <ele>218.00000</ele>
        <time>2010-01-01T04:45:32Z</time>
      </trkpt>
      <trkpt lat="43.58173000" lon="13.02620000">
        <ele>217.00000</ele>
        <time>2010-01-01T04:45:46Z</time>
      </trkpt>
      <trkpt lat="43.58219000" lon="13.02643000">
        <ele>213.00000</ele>
        <time>2010-01-01T04:46:05Z</time>
      </trkpt>
      <trkpt lat="43.58228000" lon="13.02645000">
        <ele>212.00000</ele>
        <time>2010-01-01T04:46:09Z</time>
      </trkpt>
      <trkpt lat="43.58240000" lon="13.02645000">
        <ele>211.00000</ele>
        <time>2010-01-01T04:46:14Z</time>
      </trkpt>
      <trkpt lat="43.58248000" lon="13.02642000">
        <ele>210.00000</ele>
        <time>2010-01-01T04:46:17Z</time>
      </trkpt>
      <trkpt lat="43.58256000" lon="13.02634000">
        <ele>211.00000</ele>
        <time>2010-01-01T04:46:21Z</time>
      </trkpt>
      <trkpt lat="43.58263000" lon="13.02613000">
        <ele>213.00000</ele>
        <time>2010-01-01T04:46:28Z</time>
      </trkpt>
      <trkpt lat="43.58266000" lon="13.02607000">
        <ele>213.00000</ele>
        <time>2010-01-01T04:46:30Z</time>
      </trkpt>
      <trkpt lat="43.58270000" lon="13.02604000">
        <ele>213.00000</ele>
        <time>2010-01-01T04:46:32Z</time>
      </trkpt>
      <trkpt lat="43.58298000" lon="13.02597000">
        <ele>213.00000</ele>
        <time>2010-01-01T04:46:43Z</time>
      </trkpt>
      <trkpt lat="43.58345000" lon="13.02593000">
        <ele>211.00000</ele>
        <time>2010-01-01T04:47:02Z</time>
      </trkpt>
      <trkpt lat="43.58476000" lon="13.02574000">
        <ele>196.00000</ele>
        <time>2010-01-01T04:47:55Z</time>
      </trkpt>
      <trkpt lat="43.58494000" lon="13.02576000">
        <ele>193.00000</ele>
        <time>2010-01-01T04:48:02Z</time>
      </trkpt>
      <trkpt lat="43.58505000" lon="13.02587000">
        <ele>192.00000</ele>
        <time>2010-01-01T04:48:07Z</time>
      </trkpt>
      <trkpt lat="43.58520000" lon="13.02610000">
        <ele>191.00000</ele>
        <time>2010-01-01T04:48:16Z</time>
      </trkpt>
      <trkpt lat="43.58538000" lon="13.02648000">
        <ele>191.00000</ele>
        <time>2010-01-01T04:48:29Z</time>
      </trkpt>
      <trkpt lat="43.58546000" lon="13.02660000">
        <ele>190.00000</ele>
        <time>2010-01-01T04:48:34Z</time>
      </trkpt>
      <trkpt lat="43.58554000" lon="13.02666000">
        <ele>190.00000</ele>
        <time>2010-01-01T04:48:38Z</time>
      </trkpt>
      <trkpt lat="43.58564000" lon="13.02671000">
        <ele>190.00000</ele>
        <time>2010-01-01T04:48:42Z</time>
      </trkpt>
      <trkpt lat="43.58603000" lon="13.02676000">
        <ele>190.00000</ele>
        <time>2010-01-01T04:48:58Z</time>
      </trkpt>
      <trkpt lat="43.58609000" lon="13.02652000">
        <ele>191.00000</ele>
        <time>2010-01-01T04:49:05Z</time>
      </trkpt>
      <trkpt lat="43.58609000" lon="13.02651000">
        <ele>191.00000</ele>
        <time>2010-01-01T04:49:05Z</time>
      </trkpt>
      <trkpt lat="43.58602000" lon="13.02365000">
        <ele>182.00000</ele>
        <time>2010-01-01T04:50:28Z</time>
      </trkpt>
      <trkpt lat="43.58603000" lon="13.02342000">
        <ele>180.00000</ele>
        <time>2010-01-01T04:50:35Z</time>
      </trkpt>
      <trkpt lat="43.58608000" lon="13.02326000">
        <ele>178.00000</ele>
        <time>2010-01-01T04:50:40Z</time>
      </trkpt>
      <trkpt lat="43.58616000" lon="13.02312000">
        <ele>177.00000</ele>
        <time>2010-01-01T04:50:45Z</time>
      </trkpt>
      <trkpt lat="43.58630000" lon="13.02298000">
        <ele>176.00000</ele>
        <time>2010-01-01T04:50:52Z</time>
      </trkpt>
      <trkpt lat="43.58648000" lon="13.02285000">
        <ele>174.00000</ele>
        <time>2010-01-01T04:51:00Z</time>
      </trkpt>
      <trkpt lat="43.58659000" lon="13.02284000">
        <ele>175.00000</ele>
        <time>2010-01-01T04:51:05Z</time>
      </trkpt>
      <trkpt lat="43.58673000" lon="13.02290000">
        <ele>176.00000</ele>
        <time>2010-01-01T04:51:10Z</time>
      </trkpt>
      <trkpt lat="43.58711000" lon="13.02313000">
        <ele>172.00000</ele>
        <time>2010-01-01T04:51:27Z</time>
      </trkpt>
      <trkpt lat="43.58831000" lon="13.02400000">
        <ele>168.00000</ele>
        <time>2010-01-01T04:52:21Z</time>
      </trkpt>
      <trkpt lat="43.58854000" lon="13.02413000">
        <ele>167.00000</ele>
        <time>2010-01-01T04:52:31Z</time>
      </trkpt>
      <trkpt lat="43.58860000" lon="13.02414000">
        <ele>166.00000</ele>
        <time>2010-01-01T04:52:34Z</time>
      </trkpt>
      <trkpt lat="43.58873000" lon="13.02411000">
        <ele>165.00000</ele>
        <time>2010-01-01T04:52:39Z</time>
      </trkpt>
      <trkpt lat="43.58883000" lon="13.02403000">
        <ele>163.00000</ele>
        <time>2010-01-01T04:52:44Z</time>
      </trkpt>
      <trkpt lat="43.58895000" lon="13.02376000">
        <ele>162.00000</ele>
        <time>2010-01-01T04:52:53Z</time>
      </trkpt>
      <trkpt lat="43.58910000" lon="13.02293000">
        <ele>158.00000</ele>
        <time>2010-01-01T04:53:18Z</time>
      </trkpt>
      <trkpt lat="43.58917000" lon="13.02270000">
        <ele>156.00000</ele>
        <time>2010-01-01T04:53:25Z</time>
      </trkpt>
      <trkpt lat="43.58925000" lon="13.02259000">
        <ele>155.00000</ele>
        <time>2010-01-01T04:53:29Z</time>
      </trkpt>
      <trkpt lat="43.58934000" lon="13.02251000">
        <ele>155.00000</ele>
        <time>2010-01-01T04:53:34Z</time>
      </trkpt>
      <trkpt lat="43.58956000" lon="13.02244000">
        <ele>155.00000</ele>
        <time>2010-01-01T04:53:43Z</time>
      </trkpt>
      <trkpt lat="43.58984000" lon="13.02229000">
        <ele>154.00000</ele>
        <time>2010-01-01T04:53:55Z</time>
      </trkpt>
      <trkpt lat="43.59021000" lon="13.02191000">
        <ele>154.00000</ele>
        <time>2010-01-01T04:54:13Z</time>
      </trkpt>
      <trkpt lat="43.59067000" lon="13.02136000">
        <ele>148.00000</ele>
        <time>2010-01-01T04:54:38Z</time>
      </trkpt>
      <trkpt lat="43.59095000" lon="13.02107000">
        <ele>146.00000</ele>
        <time>2010-01-01T04:54:52Z</time>
      </trkpt>
      <trkpt lat="43.59107000" lon="13.02098000">
        <ele>144.00000</ele>
        <time>2010-01-01T04:54:57Z</time>
      </trkpt>
      <trkpt lat="43.59123000" lon="13.02094000">
        <ele>143.00000</ele>
        <time>2010-01-01T04:55:04Z</time>
      </trkpt>
      <trkpt lat="43.59140000" lon="13.02094000">
        <ele>141.00000</ele>
        <time>2010-01-01T04:55:10Z</time>
      </trkpt>
      <trkpt lat="43.59242000" lon="13.02106000">
        <ele>134.00000</ele>
        <time>2010-01-01T04:55:51Z</time>
      </trkpt>
      <trkpt lat="43.59273000" lon="13.02130000">
        <ele>131.00000</ele>
        <time>2010-01-01T04:56:06Z</time>
      </trkpt>
      <trkpt lat="43.59314000" lon="13.02200000">
        <ele>130.00000</ele>
        <time>2010-01-01T04:56:32Z</time>
      </trkpt>
      <trkpt lat="43.59325000" lon="13.02212000">
        <ele>129.00000</ele>
        <time>2010-01-01T04:56:37Z</time>
      </trkpt>
      <trkpt lat="43.59338000" lon="13.02215000">
        <ele>127.00000</ele>
        <time>2010-01-01T04:56:43Z</time>
      </trkpt>
      <trkpt lat="43.59351000" lon="13.02209000">
        <ele>126.00000</ele>
        <time>2010-01-01T04:56:48Z</time>
      </trkpt>
      <trkpt lat="43.59389000" lon="13.02162000">
        <ele>120.00000</ele>
        <time>2010-01-01T04:57:08Z</time>
      </trkpt>
      <trkpt lat="43.59403000" lon="13.02148000">
        <ele>120.00000</ele>
        <time>2010-01-01T04:57:15Z</time>
      </trkpt>
      <trkpt lat="43.59419000" lon="13.02136000">
        <ele>119.00000</ele>
        <time>2010-01-01T04:57:23Z</time>
      </trkpt>
      <trkpt lat="43.59441000" lon="13.02127000">
        <ele>118.00000</ele>
        <time>2010-01-01T04:57:32Z</time>
      </trkpt>
      <trkpt lat="43.59468000" lon="13.02136000">
        <ele>118.00000</ele>
        <time>2010-01-01T04:57:43Z</time>
      </trkpt>
      <trkpt lat="43.59514000" lon="13.02187000">
        <ele>115.00000</ele>
        <time>2010-01-01T04:58:07Z</time>
      </trkpt>
      <trkpt lat="43.59545000" lon="13.02193000">
        <ele>111.00000</ele>
        <time>2010-01-01T04:58:19Z</time>
      </trkpt>
      <trkpt lat="43.59570000" lon="13.02189000">
        <ele>109.00000</ele>
        <time>2010-01-01T04:58:29Z</time>
      </trkpt>
      <trkpt lat="43.59590000" lon="13.02183000">
        <ele>108.00000</ele>
        <time>2010-01-01T04:58:37Z</time>
      </trkpt>
      <trkpt lat="43.59709000" lon="13.02142000">
        <ele>109.00000</ele>
        <time>2010-01-01T04:59:26Z</time>
      </trkpt>
      <trkpt lat="43.59751000" lon="13.02125000">
        <ele>110.00000</ele>
        <time>2010-01-01T04:59:44Z</time>
      </trkpt>
      <trkpt lat="43.59788000" lon="13.02117000">
        <ele>108.00000</ele>
        <time>2010-01-01T04:59:59Z</time>
      </trkpt>
      <trkpt lat="43.59804000" lon="13.02117000">
        <ele>107.00000</ele>
        <time>2010-01-01T05:00:05Z</time>
      </trkpt>
      <trkpt lat="43.59833000" lon="13.02123000">
        <ele>106.00000</ele>
        <time>2010-01-01T05:00:17Z</time>
      </trkpt>
      <trkpt lat="43.59907000" lon="13.02143000">
        <ele>103.00000</ele>
        <time>2010-01-01T05:00:47Z</time>
      </trkpt>
      <trkpt lat="43.59983000" lon="13.02160000">
        <ele>106.00000</ele>
        <time>2010-01-01T05:01:18Z</time>
      </trkpt>
      <trkpt lat="43.60004000" lon="13.02159000">
        <ele>106.00000</ele>
        <time>2010-01-01T05:01:27Z</time>
      </trkpt>
      <trkpt lat="43.60066000" lon="13.02149000">
        <ele>106.00000</ele>
        <time>2010-01-01T05:01:52Z</time>
      </trkpt>
      <trkpt lat="43.60102000" lon="13.02140000">
        <ele>106.00000</ele>
        <time>2010-01-01T05:02:06Z</time>
      </trkpt>
      <trkpt lat="43.60182000" lon="13.02125000">
        <ele>110.00000</ele>
        <time>2010-01-01T05:02:38Z</time>
      </trkpt>
      <trkpt lat="43.60205000" lon="13.02118000">
        <ele>110.00000</ele>
        <time>2010-01-01T05:02:48Z</time>
      </trkpt>
      <trkpt lat="43.60228000" lon="13.02123000">
        <ele>110.00000</ele>
        <time>2010-01-01T05:02:57Z</time>
      </trkpt>
      <trkpt lat="43.60242000" lon="13.02109000">
        <ele>112.00000</ele>
        <time>2010-01-01T05:03:04Z</time>
      </trkpt>
      <trkpt lat="43.60233000" lon="13.02108000">
        <ele>111.00000</ele>
        <time>2010-01-01T05:03:08Z</time>
      </trkpt>
      <trkpt lat="43.60221000" lon="13.02110000">
        <ele>110.00000</ele>
        <time>2010-01-01T05:03:13Z</time>
      </trkpt>
      <trkpt lat="43.60205000" lon="13.02118000">
        <ele>110.00000</ele>
        <time>2010-01-01T05:03:19Z</time>
      </trkpt>
      <trkpt lat="43.60228000" lon="13.02123000">
        <ele>110.00000</ele>
        <time>2010-01-01T05:03:29Z</time>
      </trkpt>
      <trkpt lat="43.60242000" lon="13.02109000">
        <ele>112.00000</ele>
        <time>2010-01-01T05:03:36Z</time>
      </trkpt>
      <trkpt lat="43.60236000" lon="13.02090000">
        <ele>111.00000</ele>
        <time>2010-01-01T05:03:42Z</time>
      </trkpt>
      <trkpt lat="43.60231000" lon="13.02056000">
        <ele>111.00000</ele>
        <time>2010-01-01T05:03:52Z</time>
      </trkpt>
      <trkpt lat="43.60228000" lon="13.01787000">
        <ele>117.00000</ele>
        <time>2010-01-01T05:05:10Z</time>
      </trkpt>
      <trkpt lat="43.60225000" lon="13.01743000">
        <ele>118.00000</ele>
        <time>2010-01-01T05:05:22Z</time>
      </trkpt>
      <trkpt lat="43.60211000" lon="13.01658000">
        <ele>117.00000</ele>
        <time>2010-01-01T05:05:48Z</time>
      </trkpt>
      <trkpt lat="43.60194000" lon="13.01584000">
        <ele>115.00000</ele>
        <time>2010-01-01T05:06:10Z</time>
      </trkpt>
      <trkpt lat="43.60109000" lon="13.01255000">
        <ele>116.00000</ele>
        <time>2010-01-01T05:07:52Z</time>
      </trkpt>
      <trkpt lat="43.60084000" lon="13.00879000">
        <ele>118.00000</ele>
        <time>2010-01-01T05:09:41Z</time>
      </trkpt>
      <trkpt lat="43.60082000" lon="13.00833000">
        <ele>117.00000</ele>
        <time>2010-01-01T05:09:54Z</time>
      </trkpt>
      <trkpt lat="43.60085000" lon="13.00802000">
        <ele>118.00000</ele>
        <time>2010-01-01T05:10:03Z</time>
      </trkpt>
      <trkpt lat="43.60091000" lon="13.00777000">
        <ele>119.00000</ele>
        <time>2010-01-01T05:10:11Z</time>
      </trkpt>
      <trkpt lat="43.60101000" lon="13.00747000">
        <ele>120.00000</ele>
        <time>2010-01-01T05:10:21Z</time>
      </trkpt>
      <trkpt lat="43.60110000" lon="13.00704000">
        <ele>120.00000</ele>
        <time>2010-01-01T05:10:34Z</time>
      </trkpt>
      <trkpt lat="43.60111000" lon="13.00660000">
        <ele>121.00000</ele>
        <time>2010-01-01T05:10:46Z</time>
      </trkpt>
      <trkpt lat="43.60110000" lon="13.00639000">
        <ele>121.00000</ele>
        <time>2010-01-01T05:10:52Z</time>
      </trkpt>
      <trkpt lat="43.60102000" lon="13.00612000">
        <ele>121.00000</ele>
        <time>2010-01-01T05:11:01Z</time>
      </trkpt>
      <trkpt lat="43.60092000" lon="13.00591000">
        <ele>121.00000</ele>
        <time>2010-01-01T05:11:08Z</time>
      </trkpt>
      <trkpt lat="43.60032000" lon="13.00517000">
        <ele>121.00000</ele>
        <time>2010-01-01T05:11:40Z</time>
      </trkpt>
      <trkpt lat="43.59858000" lon="13.00205000">
        <ele>121.00000</ele>
        <time>2010-01-01T05:13:35Z</time>
      </trkpt>
      <trkpt lat="43.59783000" lon="13.00081000">
        <ele>123.00000</ele>
        <time>2010-01-01T05:14:21Z</time>
      </trkpt>
      <trkpt lat="43.59737000" lon="13.00000000">
        <ele>123.00000</ele>
        <time>2010-01-01T05:14:51Z</time>
      </trkpt>
      <trkpt lat="43.59736000" lon="13.00000000">
        <ele>123.00000</ele>
        <time>2010-01-01T05:14:52Z</time>
      </trkpt>
      <trkpt lat="43.59625000" lon="12.99804000">
        <ele>126.00000</ele>
        <time>2010-01-01T05:16:04Z</time>
      </trkpt>
      <trkpt lat="43.59612000" lon="12.99767000">
        <ele>126.00000</ele>
        <time>2010-01-01T05:16:16Z</time>
      </trkpt>
      <trkpt lat="43.59613000" lon="12.99742000">
        <ele>127.00000</ele>
        <time>2010-01-01T05:16:23Z</time>
      </trkpt>
      <trkpt lat="43.59618000" lon="12.99705000">
        <ele>128.00000</ele>
        <time>2010-01-01T05:16:34Z</time>
      </trkpt>
      <trkpt lat="43.59651000" lon="12.99551000">
        <ele>130.00000</ele>
        <time>2010-01-01T05:17:20Z</time>
      </trkpt>
      <trkpt lat="43.59666000" lon="12.99470000">
        <ele>132.00000</ele>
        <time>2010-01-01T05:17:45Z</time>
      </trkpt>
      <trkpt lat="43.59671000" lon="12.99438000">
        <ele>133.00000</ele>
        <time>2010-01-01T05:17:54Z</time>
      </trkpt>
      <trkpt lat="43.59671000" lon="12.99393000">
        <ele>136.00000</ele>
        <time>2010-01-01T05:18:07Z</time>
      </trkpt>
      <trkpt lat="43.59660000" lon="12.99277000">
        <ele>144.00000</ele>
        <time>2010-01-01T05:18:41Z</time>
      </trkpt>
      <trkpt lat="43.59649000" lon="12.99237000">
        <ele>144.00000</ele>
        <time>2010-01-01T05:18:54Z</time>
      </trkpt>
      <trkpt lat="43.59646000" lon="12.99198000">
        <ele>146.00000</ele>
        <time>2010-01-01T05:19:05Z</time>
      </trkpt>
      <trkpt lat="43.59650000" lon="12.99171000">
        <ele>148.00000</ele>
        <time>2010-01-01T05:19:13Z</time>
      </trkpt>
      <trkpt lat="43.59668000" lon="12.99131000">
        <ele>151.00000</ele>
        <time>2010-01-01T05:19:27Z</time>
      </trkpt>
      <trkpt lat="43.59688000" lon="12.99106000">
        <ele>153.00000</ele>
        <time>2010-01-01T05:19:37Z</time>
      </trkpt>
      <trkpt lat="43.59720000" lon="12.99078000">
        <ele>159.00000</ele>
        <time>2010-01-01T05:19:52Z</time>
      </trkpt>
      <trkpt lat="43.59787000" lon="12.99020000">
        <ele>163.00000</ele>
        <time>2010-01-01T05:20:24Z</time>
      </trkpt>
      <trkpt lat="43.59818000" lon="12.99009000">
        <ele>165.00000</ele>
        <time>2010-01-01T05:20:37Z</time>
      </trkpt>
      <trkpt lat="43.59835000" lon="12.99006000">
        <ele>165.00000</ele>
        <time>2010-01-01T05:20:44Z</time>
      </trkpt>
      <trkpt lat="43.59852000" lon="12.99007000">
        <ele>165.00000</ele>
        <time>2010-01-01T05:20:51Z</time>
      </trkpt>
      <trkpt lat="43.59862000" lon="12.99011000">
        <ele>165.00000</ele>
        <time>2010-01-01T05:20:55Z</time>
      </trkpt>
      <trkpt lat="43.59877000" lon="12.99023000">
        <ele>167.00000</ele>
        <time>2010-01-01T05:21:02Z</time>
      </trkpt>
      <trkpt lat="43.59913000" lon="12.99059000">
        <ele>171.00000</ele>
        <time>2010-01-01T05:21:20Z</time>
      </trkpt>
      <trkpt lat="43.59948000" lon="12.99088000">
        <ele>177.00000</ele>
        <time>2010-01-01T05:21:36Z</time>
      </trkpt>
      <trkpt lat="43.59973000" lon="12.99105000">
        <ele>180.00000</ele>
        <time>2010-01-01T05:21:47Z</time>
      </trkpt>
      <trkpt lat="43.60016000" lon="12.99117000">
        <ele>183.00000</ele>
        <time>2010-01-01T05:22:05Z</time>
      </trkpt>
      <trkpt lat="43.60110000" lon="12.99137000">
        <ele>183.00000</ele>
        <time>2010-01-01T05:22:43Z</time>
      </trkpt>
      <trkpt lat="43.60130000" lon="12.99140000">
        <ele>184.00000</ele>
        <time>2010-01-01T05:22:51Z</time>
      </trkpt>
      <trkpt lat="43.60153000" lon="12.99139000">
        <ele>185.00000</ele>
        <time>2010-01-01T05:23:00Z</time>
      </trkpt>
      <trkpt lat="43.60180000" lon="12.99123000">
        <ele>188.00000</ele>
        <time>2010-01-01T05:23:12Z</time>
      </trkpt>
      <trkpt lat="43.60199000" lon="12.99092000">
        <ele>191.00000</ele>
        <time>2010-01-01T05:23:23Z</time>
      </trkpt>
      <trkpt lat="43.60215000" lon="12.99060000">
        <ele>193.00000</ele>
        <time>2010-01-01T05:23:35Z</time>
      </trkpt>
      <trkpt lat="43.60250000" lon="12.98982000">
        <ele>197.00000</ele>
        <time>2010-01-01T05:24:01Z</time>
      </trkpt>
      <trkpt lat="43.60289000" lon="12.98907000">
        <ele>202.00000</ele>
        <time>2010-01-01T05:24:28Z</time>
      </trkpt>
      <trkpt lat="43.60299000" lon="12.98889000">
        <ele>204.00000</ele>
        <time>2010-01-01T05:24:35Z</time>
      </trkpt>
      <trkpt lat="43.60316000" lon="12.98863000">
        <ele>207.00000</ele>
        <time>2010-01-01T05:24:45Z</time>
      </trkpt>
      <trkpt lat="43.60357000" lon="12.98813000">
        <ele>212.00000</ele>
        <time>2010-01-01T05:25:07Z</time>
      </trkpt>
      <trkpt lat="43.60383000" lon="12.98790000">
        <ele>214.00000</ele>
        <time>2010-01-01T05:25:19Z</time>
      </trkpt>
      <trkpt lat="43.60397000" lon="12.98766000">
        <ele>215.00000</ele>
        <time>2010-01-01T05:25:28Z</time>
      </trkpt>
      <trkpt lat="43.60409000" lon="12.98735000">
        <ele>216.00000</ele>
        <time>2010-01-01T05:25:38Z</time>
      </trkpt>
      <trkpt lat="43.60430000" lon="12.98651000">
        <ele>214.00000</ele>
        <time>2010-01-01T05:26:04Z</time>
      </trkpt>
      <trkpt lat="43.60447000" lon="12.98609000">
        <ele>213.00000</ele>
        <time>2010-01-01T05:26:18Z</time>
      </trkpt>
      <trkpt lat="43.60479000" lon="12.98559000">
        <ele>208.00000</ele>
        <time>2010-01-01T05:26:37Z</time>
      </trkpt>
      <trkpt lat="43.60517000" lon="12.98516000">
        <ele>207.00000</ele>
        <time>2010-01-01T05:26:57Z</time>
      </trkpt>
      <trkpt lat="43.60537000" lon="12.98489000">
        <ele>210.00000</ele>
        <time>2010-01-01T05:27:08Z</time>
      </trkpt>
      <trkpt lat="43.60607000" lon="12.98418000">
        <ele>215.00000</ele>
        <time>2010-01-01T05:27:43Z</time>
      </trkpt>
      <trkpt lat="43.60630000" lon="12.98398000">
        <ele>216.00000</ele>
        <time>2010-01-01T05:27:54Z</time>
      </trkpt>
      <trkpt lat="43.60675000" lon="12.98351000">
        <ele>218.00000</ele>
        <time>2010-01-01T05:28:16Z</time>
      </trkpt>
      <trkpt lat="43.60691000" lon="12.98338000">
        <ele>218.00000</ele>
        <time>2010-01-01T05:28:24Z</time>
      </trkpt>
      <trkpt lat="43.60723000" lon="12.98319000">
        <ele>217.00000</ele>
        <time>2010-01-01T05:28:38Z</time>
      </trkpt>
      <trkpt lat="43.60768000" lon="12.98285000">
        <ele>214.00000</ele>
        <time>2010-01-01T05:28:58Z</time>
      </trkpt>
      <trkpt lat="43.60792000" lon="12.98260000">
        <ele>211.00000</ele>
        <time>2010-01-01T05:29:10Z</time>
      </trkpt>
      <trkpt lat="43.60809000" lon="12.98233000">
        <ele>210.00000</ele>
        <time>2010-01-01T05:29:21Z</time>
      </trkpt>
      <trkpt lat="43.60817000" lon="12.98211000">
        <ele>209.00000</ele>
        <time>2010-01-01T05:29:28Z</time>
      </trkpt>
      <trkpt lat="43.60823000" lon="12.98183000">
        <ele>208.00000</ele>
        <time>2010-01-01T05:29:36Z</time>
      </trkpt>
      <trkpt lat="43.60823000" lon="12.98150000">
        <ele>208.00000</ele>
        <time>2010-01-01T05:29:46Z</time>
      </trkpt>
      <trkpt lat="43.60819000" lon="12.98115000">
        <ele>209.00000</ele>
        <time>2010-01-01T05:29:56Z</time>
      </trkpt>
      <trkpt lat="43.60800000" lon="12.98036000">
        <ele>208.00000</ele>
        <time>2010-01-01T05:30:20Z</time>
      </trkpt>
      <trkpt lat="43.60782000" lon="12.97956000">
        <ele>209.00000</ele>
        <time>2010-01-01T05:30:44Z</time>
      </trkpt>
      <trkpt lat="43.60776290" lon="12.97908290">
        <ele>210.00000</ele>
        <time>2010-01-01T05:30:59Z</time>
      </trkpt>
      <trkpt lat="43.60769150" lon="12.97866750">
        <ele>209.00000</ele>
        <time>2010-01-01T05:31:11Z</time>
      </trkpt>
      <trkpt lat="43.60757700" lon="12.97819420">
        <ele>208.00000</ele>
        <time>2010-01-01T05:31:25Z</time>
      </trkpt>
      <trkpt lat="43.60764760" lon="12.97770620">
        <ele>211.00000</ele>
        <time>2010-01-01T05:31:40Z</time>
      </trkpt>
      <trkpt lat="43.60786340" lon="12.97744350">
        <ele>211.00000</ele>
        <time>2010-01-01T05:31:51Z</time>
      </trkpt>
      <trkpt lat="43.60811440" lon="12.97747810">
        <ele>209.00000</ele>
        <time>2010-01-01T05:32:01Z</time>
      </trkpt>
      <trkpt lat="43.60845390" lon="12.97742150">
        <ele>210.00000</ele>
        <time>2010-01-01T05:32:15Z</time>
      </trkpt>
      <trkpt lat="43.60853390" lon="12.97743320">
        <ele>210.00000</ele>
        <time>2010-01-01T05:32:18Z</time>
      </trkpt>
      <trkpt lat="43.60862490" lon="12.97744510">
        <ele>211.00000</ele>
        <time>2010-01-01T05:32:22Z</time>
      </trkpt>
      <trkpt lat="43.60861500" lon="12.97696920">
        <ele>215.00000</ele>
        <time>2010-01-01T05:32:36Z</time>
      </trkpt>
      <trkpt lat="43.60700820" lon="12.97623720">
        <ele>224.00000</ele>
        <time>2010-01-01T05:33:43Z</time>
      </trkpt>
      <trkpt lat="43.60638290" lon="12.97588370">
        <ele>235.00000</ele>
        <time>2010-01-01T05:34:11Z</time>
      </trkpt>
      <trkpt lat="43.60560890" lon="12.97524160">
        <ele>241.00000</ele>
        <time>2010-01-01T05:34:47Z</time>
      </trkpt>
      <trkpt lat="43.60540000" lon="12.97503000">
        <ele>241.00000</ele>
        <time>2010-01-01T05:34:57Z</time>
      </trkpt>
      <trkpt lat="43.60532000" lon="12.97478000">
        <ele>243.00000</ele>
        <time>2010-01-01T05:35:05Z</time>
      </trkpt>
      <trkpt lat="43.60519000" lon="12.97440000">
        <ele>245.00000</ele>
        <time>2010-01-01T05:35:17Z</time>
      </trkpt>
      <trkpt lat="43.60506000" lon="12.97409000">
        <ele>245.00000</ele>
        <time>2010-01-01T05:35:28Z</time>
      </trkpt>
      <trkpt lat="43.60491000" lon="12.97383000">
        <ele>244.00000</ele>
        <time>2010-01-01T05:35:37Z</time>
      </trkpt>
      <trkpt lat="43.60454000" lon="12.97350000">
        <ele>244.00000</ele>
        <time>2010-01-01T05:35:55Z</time>
      </trkpt>
      <trkpt lat="43.60438000" lon="12.97339000">
        <ele>246.00000</ele>
        <time>2010-01-01T05:36:02Z</time>
      </trkpt>
      <trkpt lat="43.60321000" lon="12.97301000">
        <ele>251.00000</ele>
        <time>2010-01-01T05:36:50Z</time>
      </trkpt>
      <trkpt lat="43.60271000" lon="12.97294000">
        <ele>253.00000</ele>
        <time>2010-01-01T05:37:10Z</time>
      </trkpt>
      <trkpt lat="43.60232000" lon="12.97291000">
        <ele>253.00000</ele>
        <time>2010-01-01T05:37:26Z</time>
      </trkpt>
      <trkpt lat="43.60116000" lon="12.97293000">
        <ele>262.00000</ele>
        <time>2010-01-01T05:38:12Z</time>
      </trkpt>
      <trkpt lat="43.60069000" lon="12.97289000">
        <ele>262.00000</ele>
        <time>2010-01-01T05:38:31Z</time>
      </trkpt>
      <trkpt lat="43.60059000" lon="12.97284000">
        <ele>261.00000</ele>
        <time>2010-01-01T05:38:35Z</time>
      </trkpt>
      <trkpt lat="43.60051000" lon="12.97278000">
        <ele>261.00000</ele>
        <time>2010-01-01T05:38:39Z</time>
      </trkpt>
      <trkpt lat="43.59973000" lon="12.97180000">
        <ele>261.00000</ele>
        <time>2010-01-01T05:39:21Z</time>
      </trkpt>
      <trkpt lat="43.59948000" lon="12.97154000">
        <ele>258.00000</ele>
        <time>2010-01-01T05:39:34Z</time>
      </trkpt>
      <trkpt lat="43.59869000" lon="12.97086000">
        <ele>254.00000</ele>
        <time>2010-01-01T05:40:11Z</time>
      </trkpt>
      <trkpt lat="43.59779000" lon="12.97016000">
        <ele>249.00000</ele>
        <time>2010-01-01T05:40:52Z</time>
      </trkpt>
      <trkpt lat="43.59759000" lon="12.97003000">
        <ele>248.00000</ele>
        <time>2010-01-01T05:41:01Z</time>
      </trkpt>
      <trkpt lat="43.59699000" lon="12.96980000">
        <ele>251.00000</ele>
        <time>2010-01-01T05:41:26Z</time>
      </trkpt>
      <trkpt lat="43.59671000" lon="12.96965000">
        <ele>252.00000</ele>
        <time>2010-01-01T05:41:38Z</time>
      </trkpt>
      <trkpt lat="43.59652000" lon="12.96949000">
        <ele>254.00000</ele>
        <time>2010-01-01T05:41:47Z</time>
      </trkpt>
      <trkpt lat="43.59566000" lon="12.96858000">
        <ele>257.00000</ele>
        <time>2010-01-01T05:42:30Z</time>
      </trkpt>
      <trkpt lat="43.59542000" lon="12.96837000">
        <ele>258.00000</ele>
        <time>2010-01-01T05:42:42Z</time>
      </trkpt>
      <trkpt lat="43.59532000" lon="12.96831000">
        <ele>259.00000</ele>
        <time>2010-01-01T05:42:46Z</time>
      </trkpt>
      <trkpt lat="43.59505000" lon="12.96820000">
        <ele>257.00000</ele>
        <time>2010-01-01T05:42:57Z</time>
      </trkpt>
      <trkpt lat="43.59484000" lon="12.96818000">
        <ele>255.00000</ele>
        <time>2010-01-01T05:43:06Z</time>
      </trkpt>
      <trkpt lat="43.59447000" lon="12.96818000">
        <ele>252.00000</ele>
        <time>2010-01-01T05:43:21Z</time>
      </trkpt>
      <trkpt lat="43.59437000" lon="12.96809000">
        <ele>251.00000</ele>
        <time>2010-01-01T05:43:25Z</time>
      </trkpt>
      <trkpt lat="43.59430000" lon="12.96793000">
        <ele>250.00000</ele>
        <time>2010-01-01T05:43:31Z</time>
      </trkpt>
      <trkpt lat="43.59432000" lon="12.96735000">
        <ele>248.00000</ele>
        <time>2010-01-01T05:43:48Z</time>
      </trkpt>
      <trkpt lat="43.59416000" lon="12.96577000">
        <ele>239.00000</ele>
        <time>2010-01-01T05:44:34Z</time>
      </trkpt>
      <trkpt lat="43.59410000" lon="12.96532000">
        <ele>238.00000</ele>
        <time>2010-01-01T05:44:47Z</time>
      </trkpt>
      <trkpt lat="43.59401000" lon="12.96492000">
        <ele>238.00000</ele>
        <time>2010-01-01T05:44:59Z</time>
      </trkpt>
      <trkpt lat="43.59365000" lon="12.96389000">
        <ele>240.00000</ele>
        <time>2010-01-01T05:45:33Z</time>
      </trkpt>
      <trkpt lat="43.59353000" lon="12.96365000">
        <ele>239.00000</ele>
        <time>2010-01-01T05:45:41Z</time>
      </trkpt>
      <trkpt lat="43.59327000" lon="12.96320000">
        <ele>240.00000</ele>
        <time>2010-01-01T05:45:58Z</time>
      </trkpt>
      <trkpt lat="43.59316000" lon="12.96299000">
        <ele>241.00000</ele>
        <time>2010-01-01T05:46:05Z</time>
      </trkpt>
      <trkpt lat="43.59279000" lon="12.96182000">
        <ele>237.00000</ele>
        <time>2010-01-01T05:46:42Z</time>
      </trkpt>
      <trkpt lat="43.59267000" lon="12.96155000">
        <ele>234.00000</ele>
        <time>2010-01-01T05:46:51Z</time>
      </trkpt>
      <trkpt lat="43.59237000" lon="12.96101000">
        <ele>233.00000</ele>
        <time>2010-01-01T05:47:11Z</time>
      </trkpt>
      <trkpt lat="43.59107000" lon="12.95836000">
        <ele>221.00000</ele>
        <time>2010-01-01T05:48:44Z</time>
      </trkpt>
      <trkpt lat="43.59073000" lon="12.95760000">
        <ele>224.00000</ele>
        <time>2010-01-01T05:49:10Z</time>
      </trkpt>
      <trkpt lat="43.59073000" lon="12.95759000">
        <ele>224.00000</ele>
        <time>2010-01-01T05:49:10Z</time>
      </trkpt>
      <trkpt lat="43.59055000" lon="12.95721000">
        <ele>227.00000</ele>
        <time>2010-01-01T05:49:23Z</time>
      </trkpt>
      <trkpt lat="43.59043000" lon="12.95702000">
        <ele>228.00000</ele>
        <time>2010-01-01T05:49:31Z</time>
      </trkpt>
      <trkpt lat="43.58998000" lon="12.95645000">
        <ele>233.00000</ele>
        <time>2010-01-01T05:49:55Z</time>
      </trkpt>
      <trkpt lat="43.58983000" lon="12.95632000">
        <ele>236.00000</ele>
        <time>2010-01-01T05:50:02Z</time>
      </trkpt>
      <trkpt lat="43.58911000" lon="12.95593000">
        <ele>250.00000</ele>
        <time>2010-01-01T05:50:33Z</time>
      </trkpt>
      <trkpt lat="43.58885000" lon="12.95576000">
        <ele>253.00000</ele>
        <time>2010-01-01T05:50:45Z</time>
      </trkpt>
      <trkpt lat="43.58859000" lon="12.95550000">
        <ele>254.00000</ele>
        <time>2010-01-01T05:50:57Z</time>
      </trkpt>
      <trkpt lat="43.58826000" lon="12.95512000">
        <ele>253.00000</ele>
        <time>2010-01-01T05:51:15Z</time>
      </trkpt>
      <trkpt lat="43.58814000" lon="12.95504000">
        <ele>253.00000</ele>
        <time>2010-01-01T05:51:20Z</time>
      </trkpt>
      <trkpt lat="43.58805000" lon="12.95498000">
        <ele>253.00000</ele>
        <time>2010-01-01T05:51:24Z</time>
      </trkpt>
      <trkpt lat="43.58748000" lon="12.95480000">
        <ele>255.00000</ele>
        <time>2010-01-01T05:51:47Z</time>
      </trkpt>
      <trkpt lat="43.58724000" lon="12.95467000">
        <ele>254.00000</ele>
        <time>2010-01-01T05:51:58Z</time>
      </trkpt>
      <trkpt lat="43.58709000" lon="12.95451000">
        <ele>253.00000</ele>
        <time>2010-01-01T05:52:05Z</time>
      </trkpt>
      <trkpt lat="43.58682000" lon="12.95408000">
        <ele>254.00000</ele>
        <time>2010-01-01T05:52:22Z</time>
      </trkpt>
      <trkpt lat="43.58667000" lon="12.95391000">
        <ele>255.00000</ele>
        <time>2010-01-01T05:52:30Z</time>
      </trkpt>
      <trkpt lat="43.58590000" lon="12.95326000">
        <ele>253.00000</ele>
        <time>2010-01-01T05:53:06Z</time>
      </trkpt>
      <trkpt lat="43.58581000" lon="12.95317000">
        <ele>254.00000</ele>
        <time>2010-01-01T05:53:10Z</time>
      </trkpt>
      <trkpt lat="43.58569000" lon="12.95304000">
        <ele>255.00000</ele>
        <time>2010-01-01T05:53:16Z</time>
      </trkpt>
      <trkpt lat="43.58510000" lon="12.95222000">
        <ele>256.00000</ele>
        <time>2010-01-01T05:53:50Z</time>
      </trkpt>
      <trkpt lat="43.58379000" lon="12.95085000">
        <ele>268.00000</ele>
        <time>2010-01-01T05:54:56Z</time>
      </trkpt>
      <trkpt lat="43.58366000" lon="12.95075000">
        <ele>268.00000</ele>
        <time>2010-01-01T05:55:02Z</time>
      </trkpt>
      <trkpt lat="43.58351000" lon="12.95066000">
        <ele>268.00000</ele>
        <time>2010-01-01T05:55:08Z</time>
      </trkpt>
      <trkpt lat="43.58334000" lon="12.95061000">
        <ele>269.00000</ele>
        <time>2010-01-01T05:55:15Z</time>
      </trkpt>
      <trkpt lat="43.58284000" lon="12.95052000">
        <ele>272.00000</ele>
        <time>2010-01-01T05:55:35Z</time>
      </trkpt>
      <trkpt lat="43.58228000" lon="12.95033000">
        <ele>276.00000</ele>
        <time>2010-01-01T05:55:58Z</time>
      </trkpt>
      <trkpt lat="43.58178000" lon="12.95004000">
        <ele>281.00000</ele>
        <time>2010-01-01T05:56:20Z</time>
      </trkpt>
      <trkpt lat="43.58168000" lon="12.94994000">
        <ele>281.00000</ele>
        <time>2010-01-01T05:56:25Z</time>
      </trkpt>
      <trkpt lat="43.58106000" lon="12.94924000">
        <ele>286.00000</ele>
        <time>2010-01-01T05:56:57Z</time>
      </trkpt>
      <trkpt lat="43.58076000" lon="12.94865000">
        <ele>292.00000</ele>
        <time>2010-01-01T05:57:18Z</time>
      </trkpt>
      <trkpt lat="43.58045000" lon="12.94814000">
        <ele>294.00000</ele>
        <time>2010-01-01T05:57:37Z</time>
      </trkpt>
      <trkpt lat="43.58010000" lon="12.94748000">
        <ele>297.00000</ele>
        <time>2010-01-01T05:58:01Z</time>
      </trkpt>
      <trkpt lat="43.57997000" lon="12.94719000">
        <ele>298.00000</ele>
        <time>2010-01-01T05:58:11Z</time>
      </trkpt>
      <trkpt lat="43.57997000" lon="12.94718000">
        <ele>298.00000</ele>
        <time>2010-01-01T05:58:11Z</time>
      </trkpt>
      <trkpt lat="43.57986000" lon="12.94694000">
        <ele>299.00000</ele>
        <time>2010-01-01T05:58:19Z</time>
      </trkpt>
      <trkpt lat="43.57916000" lon="12.94597000">
        <ele>310.00000</ele>
        <time>2010-01-01T05:58:59Z</time>
      </trkpt>
      <trkpt lat="43.57859000" lon="12.94530000">
        <ele>310.00000</ele>
        <time>2010-01-01T05:59:29Z</time>
      </trkpt>
      <trkpt lat="43.57816000" lon="12.94477000">
        <ele>308.00000</ele>
        <time>2010-01-01T05:59:52Z</time>
      </trkpt>
      <trkpt lat="43.57799000" lon="12.94473000">
        <ele>307.00000</ele>
        <time>2010-01-01T05:59:59Z</time>
      </trkpt>
      <trkpt lat="43.57733000" lon="12.94425000">
        <ele>307.00000</ele>
        <time>2010-01-01T06:00:29Z</time>
      </trkpt>
      <trkpt lat="43.57719000" lon="12.94418000">
        <ele>309.00000</ele>
        <time>2010-01-01T06:00:35Z</time>
      </trkpt>
      <trkpt lat="43.57641000" lon="12.94389000">
        <ele>313.00000</ele>
        <time>2010-01-01T06:01:07Z</time>
      </trkpt>
      <trkpt lat="43.57545000" lon="12.94334000">
        <ele>315.00000</ele>
        <time>2010-01-01T06:01:49Z</time>
      </trkpt>
      <trkpt lat="43.57517000" lon="12.94327000">
        <ele>313.00000</ele>
        <time>2010-01-01T06:02:00Z</time>
      </trkpt>
      <trkpt lat="43.57493000" lon="12.94324000">
        <ele>311.00000</ele>
        <time>2010-01-01T06:02:10Z</time>
      </trkpt>
      <trkpt lat="43.57359000" lon="12.94351000">
        <ele>307.00000</ele>
        <time>2010-01-01T06:03:04Z</time>
      </trkpt>
      <trkpt lat="43.57326000" lon="12.94355000">
        <ele>308.00000</ele>
        <time>2010-01-01T06:03:17Z</time>
      </trkpt>
      <trkpt lat="43.57296000" lon="12.94369000">
        <ele>310.00000</ele>
        <time>2010-01-01T06:03:30Z</time>
      </trkpt>
      <trkpt lat="43.57266000" lon="12.94387000">
        <ele>311.00000</ele>
        <time>2010-01-01T06:03:43Z</time>
      </trkpt>
      <trkpt lat="43.57223000" lon="12.94425000">
        <ele>309.00000</ele>
        <time>2010-01-01T06:04:03Z</time>
      </trkpt>
      <trkpt lat="43.57181000" lon="12.94454000">
        <ele>309.00000</ele>
        <time>2010-01-01T06:04:22Z</time>
      </trkpt>
      <trkpt lat="43.57088630" lon="12.94523600">
        <ele>307.00000</ele>
        <time>2010-01-01T06:05:04Z</time>
      </trkpt>
      <trkpt lat="43.57006010" lon="12.94492750">
        <ele>303.00000</ele>
        <time>2010-01-01T06:05:39Z</time>
      </trkpt>
      <trkpt lat="43.56940010" lon="12.94460740">
        <ele>293.00000</ele>
        <time>2010-01-01T06:06:07Z</time>
      </trkpt>
      <trkpt lat="43.57086810" lon="12.94529560">
        <ele>307.00000</ele>
        <time>2010-01-01T06:07:09Z</time>
      </trkpt>
      <trkpt lat="43.57181000" lon="12.94454000">
        <ele>309.00000</ele>
        <time>2010-01-01T06:07:52Z</time>
      </trkpt>
      <trkpt lat="43.57179000" lon="12.94389000">
        <ele>314.00000</ele>
        <time>2010-01-01T06:08:11Z</time>
      </trkpt>
      <trkpt lat="43.57188000" lon="12.94379000">
        <ele>315.00000</ele>
        <time>2010-01-01T06:08:16Z</time>
      </trkpt>
      <trkpt lat="43.57190000" lon="12.94370000">
        <ele>316.00000</ele>
        <time>2010-01-01T06:08:19Z</time>
      </trkpt>
      <trkpt lat="43.57190000" lon="12.94350000">
        <ele>316.00000</ele>
        <time>2010-01-01T06:08:24Z</time>
      </trkpt>
      <trkpt lat="43.57187000" lon="12.94339000">
        <ele>316.00000</ele>
        <time>2010-01-01T06:08:28Z</time>
      </trkpt>
      <trkpt lat="43.57185000" lon="12.94315000">
        <ele>316.00000</ele>
        <time>2010-01-01T06:08:35Z</time>
      </trkpt>
      <trkpt lat="43.57186000" lon="12.94291000">
        <ele>316.00000</ele>
        <time>2010-01-01T06:08:42Z</time>
      </trkpt>
      <trkpt lat="43.57190000" lon="12.94250000">
        <ele>315.00000</ele>
        <time>2010-01-01T06:08:54Z</time>
      </trkpt>
      <trkpt lat="43.57191000" lon="12.94230000">
        <ele>314.00000</ele>
        <time>2010-01-01T06:09:00Z</time>
      </trkpt>
      <trkpt lat="43.57196000" lon="12.94213000">
        <ele>314.00000</ele>
        <time>2010-01-01T06:09:05Z</time>
      </trkpt>
      <trkpt lat="43.57214000" lon="12.94176000">
        <ele>316.00000</ele>
        <time>2010-01-01T06:09:18Z</time>
      </trkpt>
      <trkpt lat="43.57222000" lon="12.94153000">
        <ele>318.00000</ele>
        <time>2010-01-01T06:09:25Z</time>
      </trkpt>
      <trkpt lat="43.57226000" lon="12.94137000">
        <ele>320.00000</ele>
        <time>2010-01-01T06:09:30Z</time>
      </trkpt>
      <trkpt lat="43.57224000" lon="12.94091000">
        <ele>325.00000</ele>
        <time>2010-01-01T06:09:43Z</time>
      </trkpt>
      <trkpt lat="43.57219000" lon="12.94060000">
        <ele>329.00000</ele>
        <time>2010-01-01T06:09:53Z</time>
      </trkpt>
      <trkpt lat="43.57208000" lon="12.94016000">
        <ele>334.00000</ele>
        <time>2010-01-01T06:10:06Z</time>
      </trkpt>
      <trkpt lat="43.57205000" lon="12.94008000">
        <ele>334.00000</ele>
        <time>2010-01-01T06:10:09Z</time>
      </trkpt>
      <trkpt lat="43.57204000" lon="12.93995000">
        <ele>335.00000</ele>
        <time>2010-01-01T06:10:13Z</time>
      </trkpt>
      <trkpt lat="43.57208000" lon="12.93981000">
        <ele>337.00000</ele>
        <time>2010-01-01T06:10:17Z</time>
      </trkpt>
      <trkpt lat="43.57228000" lon="12.93944000">
        <ele>347.00000</ele>
        <time>2010-01-01T06:10:30Z</time>
      </trkpt>
      <trkpt lat="43.57229000" lon="12.93938000">
        <ele>347.00000</ele>
        <time>2010-01-01T06:10:32Z</time>
      </trkpt>
      <trkpt lat="43.57226000" lon="12.93929000">
        <ele>347.00000</ele>
        <time>2010-01-01T06:10:35Z</time>
      </trkpt>
      <trkpt lat="43.57225000" lon="12.93918000">
        <ele>347.00000</ele>
        <time>2010-01-01T06:10:38Z</time>
      </trkpt>
      <trkpt lat="43.57226000" lon="12.93911000">
        <ele>347.00000</ele>
        <time>2010-01-01T06:10:40Z</time>
      </trkpt>
      <trkpt lat="43.57232000" lon="12.93895000">
        <ele>349.00000</ele>
        <time>2010-01-01T06:10:46Z</time>
      </trkpt>
      <trkpt lat="43.57247000" lon="12.93869000">
        <ele>353.00000</ele>
        <time>2010-01-01T06:10:55Z</time>
      </trkpt>
      <trkpt lat="43.57263000" lon="12.93848000">
        <ele>357.00000</ele>
        <time>2010-01-01T06:11:04Z</time>
      </trkpt>
      <trkpt lat="43.57274000" lon="12.93839000">
        <ele>359.00000</ele>
        <time>2010-01-01T06:11:09Z</time>
      </trkpt>
      <trkpt lat="43.57243000" lon="12.93734000">
        <ele>367.00000</ele>
        <time>2010-01-01T06:11:42Z</time>
      </trkpt>
      <trkpt lat="43.57233000" lon="12.93709000">
        <ele>369.00000</ele>
        <time>2010-01-01T06:11:50Z</time>
      </trkpt>
      <trkpt lat="43.57169000" lon="12.93620000">
        <ele>374.00000</ele>
        <time>2010-01-01T06:12:27Z</time>
      </trkpt>
      <trkpt lat="43.57163000" lon="12.93610000">
        <ele>374.00000</ele>
        <time>2010-01-01T06:12:30Z</time>
      </trkpt>
      <trkpt lat="43.57159000" lon="12.93598000">
        <ele>374.00000</ele>
        <time>2010-01-01T06:12:34Z</time>
      </trkpt>
      <trkpt lat="43.57143000" lon="12.93507000">
        <ele>372.00000</ele>
        <time>2010-01-01T06:13:01Z</time>
      </trkpt>
      <trkpt lat="43.57133000" lon="12.93480000">
        <ele>371.00000</ele>
        <time>2010-01-01T06:13:10Z</time>
      </trkpt>
      <trkpt lat="43.57124000" lon="12.93463000">
        <ele>370.00000</ele>
        <time>2010-01-01T06:13:16Z</time>
      </trkpt>
      <trkpt lat="43.57123000" lon="12.93463000">
        <ele>370.00000</ele>
        <time>2010-01-01T06:13:17Z</time>
      </trkpt>
      <trkpt lat="43.57085000" lon="12.93397000">
        <ele>365.00000</ele>
        <time>2010-01-01T06:13:41Z</time>
      </trkpt>
      <trkpt lat="43.57077000" lon="12.93373000">
        <ele>365.00000</ele>
        <time>2010-01-01T06:13:49Z</time>
      </trkpt>
      <trkpt lat="43.57052000" lon="12.93257000">
        <ele>361.00000</ele>
        <time>2010-01-01T06:14:24Z</time>
      </trkpt>
      <trkpt lat="43.57043000" lon="12.93229000">
        <ele>361.00000</ele>
        <time>2010-01-01T06:14:33Z</time>
      </trkpt>
      <trkpt lat="43.56997000" lon="12.93143000">
        <ele>367.00000</ele>
        <time>2010-01-01T06:15:04Z</time>
      </trkpt>
      <trkpt lat="43.56976000" lon="12.93117000">
        <ele>362.00000</ele>
        <time>2010-01-01T06:15:15Z</time>
      </trkpt>
      <trkpt lat="43.56959000" lon="12.93103000">
        <ele>358.00000</ele>
        <time>2010-01-01T06:15:23Z</time>
      </trkpt>
      <trkpt lat="43.56943000" lon="12.93092000">
        <ele>356.00000</ele>
        <time>2010-01-01T06:15:30Z</time>
      </trkpt>
      <trkpt lat="43.56926000" lon="12.93088000">
        <ele>355.00000</ele>
        <time>2010-01-01T06:15:37Z</time>
      </trkpt>
      <trkpt lat="43.56913000" lon="12.93089000">
        <ele>356.00000</ele>
        <time>2010-01-01T06:15:42Z</time>
      </trkpt>
      <trkpt lat="43.56862000" lon="12.93107000">
        <ele>352.00000</ele>
        <time>2010-01-01T06:16:03Z</time>
      </trkpt>
      <trkpt lat="43.56846000" lon="12.93109000">
        <ele>350.00000</ele>
        <time>2010-01-01T06:16:10Z</time>
      </trkpt>
      <trkpt lat="43.56808000" lon="12.93097000">
        <ele>346.00000</ele>
        <time>2010-01-01T06:16:25Z</time>
      </trkpt>
      <trkpt lat="43.56769000" lon="12.93082000">
        <ele>346.00000</ele>
        <time>2010-01-01T06:16:42Z</time>
      </trkpt>
      <trkpt lat="43.56761000" lon="12.93076000">
        <ele>346.00000</ele>
        <time>2010-01-01T06:16:45Z</time>
      </trkpt>
      <trkpt lat="43.56739000" lon="12.93032000">
        <ele>344.00000</ele>
        <time>2010-01-01T06:17:01Z</time>
      </trkpt>
      <trkpt lat="43.56731000" lon="12.93021000">
        <ele>343.00000</ele>
        <time>2010-01-01T06:17:05Z</time>
      </trkpt>
      <trkpt lat="43.56722000" lon="12.93013000">
        <ele>343.00000</ele>
        <time>2010-01-01T06:17:10Z</time>
      </trkpt>
      <trkpt lat="43.56706000" lon="12.93008000">
        <ele>343.00000</ele>
        <time>2010-01-01T06:17:16Z</time>
      </trkpt>
      <trkpt lat="43.56667000" lon="12.93005000">
        <ele>342.00000</ele>
        <time>2010-01-01T06:17:32Z</time>
      </trkpt>
      <trkpt lat="43.56638070" lon="12.92978450">
        <ele>335.00000</ele>
        <time>2010-01-01T06:17:46Z</time>
      </trkpt>
      <trkpt lat="43.56618000" lon="12.92948880">
        <ele>332.00000</ele>
        <time>2010-01-01T06:17:57Z</time>
      </trkpt>
      <trkpt lat="43.56606570" lon="12.92923630">
        <ele>327.00000</ele>
        <time>2010-01-01T06:18:06Z</time>
      </trkpt>
      <trkpt lat="43.56591380" lon="12.92909300">
        <ele>322.00000</ele>
        <time>2010-01-01T06:18:13Z</time>
      </trkpt>
      <trkpt lat="43.56583530" lon="12.92902290">
        <ele>321.00000</ele>
        <time>2010-01-01T06:18:17Z</time>
      </trkpt>
      <trkpt lat="43.56574000" lon="12.92890000">
        <ele>321.00000</ele>
        <time>2010-01-01T06:18:22Z</time>
      </trkpt>
      <trkpt lat="43.56547000" lon="12.92875000">
        <ele>320.00000</ele>
        <time>2010-01-01T06:18:34Z</time>
      </trkpt>
      <trkpt lat="43.56493000" lon="12.92855000">
        <ele>322.00000</ele>
        <time>2010-01-01T06:18:56Z</time>
      </trkpt>
      <trkpt lat="43.56448000" lon="12.92820000">
        <ele>321.00000</ele>
        <time>2010-01-01T06:19:17Z</time>
      </trkpt>
      <trkpt lat="43.56266000" lon="12.92656000">
        <ele>325.00000</ele>
        <time>2010-01-01T06:20:44Z</time>
      </trkpt>
      <trkpt lat="43.56246000" lon="12.92644000">
        <ele>327.00000</ele>
        <time>2010-01-01T06:20:53Z</time>
      </trkpt>
      <trkpt lat="43.56241000" lon="12.92642000">
        <ele>327.00000</ele>
        <time>2010-01-01T06:20:55Z</time>
      </trkpt>
      <trkpt lat="43.56179000" lon="12.92643000">
        <ele>329.00000</ele>
        <time>2010-01-01T06:21:20Z</time>
      </trkpt>
      <trkpt lat="43.56155000" lon="12.92648000">
        <ele>329.00000</ele>
        <time>2010-01-01T06:21:29Z</time>
      </trkpt>
      <trkpt lat="43.56143000" lon="12.92652000">
        <ele>329.00000</ele>
        <time>2010-01-01T06:21:34Z</time>
      </trkpt>
      <trkpt lat="43.55986000" lon="12.92738000">
        <ele>336.00000</ele>
        <time>2010-01-01T06:22:42Z</time>
      </trkpt>
      <trkpt lat="43.55976000" lon="12.92741000">
        <ele>337.00000</ele>
        <time>2010-01-01T06:22:46Z</time>
      </trkpt>
      <trkpt lat="43.55965000" lon="12.92742000">
        <ele>337.00000</ele>
        <time>2010-01-01T06:22:51Z</time>
      </trkpt>
      <trkpt lat="43.55954000" lon="12.92740000">
        <ele>338.00000</ele>
        <time>2010-01-01T06:22:55Z</time>
      </trkpt>
      <trkpt lat="43.55902000" lon="12.92717000">
        <ele>341.00000</ele>
        <time>2010-01-01T06:23:17Z</time>
      </trkpt>
      <trkpt lat="43.55889000" lon="12.92712000">
        <ele>343.00000</ele>
        <time>2010-01-01T06:23:22Z</time>
      </trkpt>
      <trkpt lat="43.55879000" lon="12.92711000">
        <ele>343.00000</ele>
        <time>2010-01-01T06:23:26Z</time>
      </trkpt>
      <trkpt lat="43.55871000" lon="12.92713000">
        <ele>343.00000</ele>
        <time>2010-01-01T06:23:29Z</time>
      </trkpt>
      <trkpt lat="43.55825000" lon="12.92746000">
        <ele>344.00000</ele>
        <time>2010-01-01T06:23:50Z</time>
      </trkpt>
      <trkpt lat="43.55805000" lon="12.92751000">
        <ele>343.00000</ele>
        <time>2010-01-01T06:23:58Z</time>
      </trkpt>
      <trkpt lat="43.55795000" lon="12.92750000">
        <ele>342.00000</ele>
        <time>2010-01-01T06:24:02Z</time>
      </trkpt>
      <trkpt lat="43.55701000" lon="12.92703000">
        <ele>347.00000</ele>
        <time>2010-01-01T06:24:42Z</time>
      </trkpt>
      <trkpt lat="43.55700000" lon="12.92703000">
        <ele>347.00000</ele>
        <time>2010-01-01T06:24:43Z</time>
      </trkpt>
      <trkpt lat="43.55646000" lon="12.92676000">
        <ele>346.00000</ele>
        <time>2010-01-01T06:25:06Z</time>
      </trkpt>
      <trkpt lat="43.55523000" lon="12.92630000">
        <ele>346.00000</ele>
        <time>2010-01-01T06:25:57Z</time>
      </trkpt>
      <trkpt lat="43.55509000" lon="12.92622000">
        <ele>346.00000</ele>
        <time>2010-01-01T06:26:03Z</time>
      </trkpt>
      <trkpt lat="43.55454000" lon="12.92576000">
        <ele>348.00000</ele>
        <time>2010-01-01T06:26:29Z</time>
      </trkpt>
      <trkpt lat="43.55445000" lon="12.92574000">
        <ele>349.00000</ele>
        <time>2010-01-01T06:26:32Z</time>
      </trkpt>
      <trkpt lat="43.55390000" lon="12.92572000">
        <ele>352.00000</ele>
        <time>2010-01-01T06:26:54Z</time>
      </trkpt>
      <trkpt lat="43.55375000" lon="12.92568000">
        <ele>351.00000</ele>
        <time>2010-01-01T06:27:00Z</time>
      </trkpt>
      <trkpt lat="43.55359000" lon="12.92560000">
        <ele>350.00000</ele>
        <time>2010-01-01T06:27:07Z</time>
      </trkpt>
      <trkpt lat="43.55326000" lon="12.92538000">
        <ele>347.00000</ele>
        <time>2010-01-01T06:27:22Z</time>
      </trkpt>
      <trkpt lat="43.55306000" lon="12.92518000">
        <ele>347.00000</ele>
        <time>2010-01-01T06:27:32Z</time>
      </trkpt>
      <trkpt lat="43.55280000" lon="12.92478000">
        <ele>348.00000</ele>
        <time>2010-01-01T06:27:47Z</time>
      </trkpt>
      <trkpt lat="43.55258000" lon="12.92435000">
        <ele>349.00000</ele>
        <time>2010-01-01T06:28:03Z</time>
      </trkpt>
      <trkpt lat="43.55252000" lon="12.92412000">
        <ele>349.00000</ele>
        <time>2010-01-01T06:28:10Z</time>
      </trkpt>
      <trkpt lat="43.55250000" lon="12.92392000">
        <ele>349.00000</ele>
        <time>2010-01-01T06:28:16Z</time>
      </trkpt>
      <trkpt lat="43.55254000" lon="12.92359000">
        <ele>349.00000</ele>
        <time>2010-01-01T06:28:25Z</time>
      </trkpt>
      <trkpt lat="43.55297000" lon="12.92164000">
        <ele>351.00000</ele>
        <time>2010-01-01T06:29:24Z</time>
      </trkpt>
      <trkpt lat="43.55301000" lon="12.92138000">
        <ele>348.00000</ele>
        <time>2010-01-01T06:29:32Z</time>
      </trkpt>
      <trkpt lat="43.55299000" lon="12.92111000">
        <ele>345.00000</ele>
        <time>2010-01-01T06:29:40Z</time>
      </trkpt>
      <trkpt lat="43.55259000" lon="12.91990000">
        <ele>345.00000</ele>
        <time>2010-01-01T06:30:19Z</time>
      </trkpt>
      <trkpt lat="43.55250000" lon="12.91976000">
        <ele>344.00000</ele>
        <time>2010-01-01T06:30:24Z</time>
      </trkpt>
      <trkpt lat="43.55231000" lon="12.91963000">
        <ele>344.00000</ele>
        <time>2010-01-01T06:30:33Z</time>
      </trkpt>
      <trkpt lat="43.55140000" lon="12.91938000">
        <ele>340.00000</ele>
        <time>2010-01-01T06:31:10Z</time>
      </trkpt>
      <trkpt lat="43.55110000" lon="12.91934000">
        <ele>340.00000</ele>
        <time>2010-01-01T06:31:22Z</time>
      </trkpt>
      <trkpt lat="43.55034000" lon="12.91938000">
        <ele>338.00000</ele>
        <time>2010-01-01T06:31:52Z</time>
      </trkpt>
      <trkpt lat="43.55023000" lon="12.91938000">
        <ele>337.00000</ele>
        <time>2010-01-01T06:31:57Z</time>
      </trkpt>
      <trkpt lat="43.55013000" lon="12.91933000">
        <ele>337.00000</ele>
        <time>2010-01-01T06:32:01Z</time>
      </trkpt>
      <trkpt lat="43.54961000" lon="12.91895000">
        <ele>336.00000</ele>
        <time>2010-01-01T06:32:24Z</time>
      </trkpt>
      <trkpt lat="43.54949000" lon="12.91891000">
        <ele>335.00000</ele>
        <time>2010-01-01T06:32:29Z</time>
      </trkpt>
      <trkpt lat="43.54871000" lon="12.91909000">
        <ele>330.00000</ele>
        <time>2010-01-01T06:33:01Z</time>
      </trkpt>
      <trkpt lat="43.54852000" lon="12.91909000">
        <ele>329.00000</ele>
        <time>2010-01-01T06:33:09Z</time>
      </trkpt>
      <trkpt lat="43.54805000" lon="12.91903000">
        <ele>327.00000</ele>
        <time>2010-01-01T06:33:28Z</time>
      </trkpt>
      <trkpt lat="43.54793000" lon="12.91903000">
        <ele>326.00000</ele>
        <time>2010-01-01T06:33:32Z</time>
      </trkpt>
      <trkpt lat="43.54760000" lon="12.91912000">
        <ele>323.00000</ele>
        <time>2010-01-01T06:33:46Z</time>
      </trkpt>
      <trkpt lat="43.54744000" lon="12.91912000">
        <ele>322.00000</ele>
        <time>2010-01-01T06:33:52Z</time>
      </trkpt>
      <trkpt lat="43.54685000" lon="12.91901000">
        <ele>320.00000</ele>
        <time>2010-01-01T06:34:16Z</time>
      </trkpt>
      <trkpt lat="43.54668000" lon="12.91902000">
        <ele>320.00000</ele>
        <time>2010-01-01T06:34:23Z</time>
      </trkpt>
      <trkpt lat="43.54651000" lon="12.91907000">
        <ele>319.00000</ele>
        <time>2010-01-01T06:34:30Z</time>
      </trkpt>
      <trkpt lat="43.54631000" lon="12.91920000">
        <ele>317.00000</ele>
        <time>2010-01-01T06:34:39Z</time>
      </trkpt>
      <trkpt lat="43.54578000" lon="12.91979000">
        <ele>307.00000</ele>
        <time>2010-01-01T06:35:06Z</time>
      </trkpt>
      <trkpt lat="43.54530000" lon="12.92027000">
        <ele>306.00000</ele>
        <time>2010-01-01T06:35:30Z</time>
      </trkpt>
      <trkpt lat="43.54512000" lon="12.92042000">
        <ele>306.00000</ele>
        <time>2010-01-01T06:35:38Z</time>
      </trkpt>
      <trkpt lat="43.54492000" lon="12.92052000">
        <ele>305.00000</ele>
        <time>2010-01-01T06:35:47Z</time>
      </trkpt>
      <trkpt lat="43.54474000" lon="12.92056000">
        <ele>305.00000</ele>
        <time>2010-01-01T06:35:54Z</time>
      </trkpt>
      <trkpt lat="43.54421000" lon="12.92058000">
        <ele>302.00000</ele>
        <time>2010-01-01T06:36:15Z</time>
      </trkpt>
      <trkpt lat="43.54414000" lon="12.92061000">
        <ele>302.00000</ele>
        <time>2010-01-01T06:36:18Z</time>
      </trkpt>
      <trkpt lat="43.54406000" lon="12.92072000">
        <ele>301.00000</ele>
        <time>2010-01-01T06:36:23Z</time>
      </trkpt>
      <trkpt lat="43.54389000" lon="12.92101000">
        <ele>300.00000</ele>
        <time>2010-01-01T06:36:33Z</time>
      </trkpt>
      <trkpt lat="43.54385000" lon="12.92113000">
        <ele>301.00000</ele>
        <time>2010-01-01T06:36:37Z</time>
      </trkpt>
      <trkpt lat="43.54376000" lon="12.92185000">
        <ele>304.00000</ele>
        <time>2010-01-01T06:36:58Z</time>
      </trkpt>
      <trkpt lat="43.54374000" lon="12.92202000">
        <ele>303.00000</ele>
        <time>2010-01-01T06:37:03Z</time>
      </trkpt>
      <trkpt lat="43.54369000" lon="12.92218000">
        <ele>303.00000</ele>
        <time>2010-01-01T06:37:08Z</time>
      </trkpt>
      <trkpt lat="43.54334000" lon="12.92283000">
        <ele>308.00000</ele>
        <time>2010-01-01T06:37:32Z</time>
      </trkpt>
      <trkpt lat="43.54330000" lon="12.92302000">
        <ele>307.00000</ele>
        <time>2010-01-01T06:37:38Z</time>
      </trkpt>
      <trkpt lat="43.54323000" lon="12.92408000">
        <ele>308.00000</ele>
        <time>2010-01-01T06:38:09Z</time>
      </trkpt>
      <trkpt lat="43.54320000" lon="12.92423000">
        <ele>309.00000</ele>
        <time>2010-01-01T06:38:13Z</time>
      </trkpt>
      <trkpt lat="43.54316000" lon="12.92430000">
        <ele>309.00000</ele>
        <time>2010-01-01T06:38:16Z</time>
      </trkpt>
      <trkpt lat="43.54305000" lon="12.92441000">
        <ele>309.00000</ele>
        <time>2010-01-01T06:38:21Z</time>
      </trkpt>
      <trkpt lat="43.54254000" lon="12.92459000">
        <ele>307.00000</ele>
        <time>2010-01-01T06:38:42Z</time>
      </trkpt>
      <trkpt lat="43.54244000" lon="12.92464000">
        <ele>307.00000</ele>
        <time>2010-01-01T06:38:46Z</time>
      </trkpt>
      <trkpt lat="43.54234000" lon="12.92475000">
        <ele>306.00000</ele>
        <time>2010-01-01T06:38:52Z</time>
      </trkpt>
      <trkpt lat="43.54193000" lon="12.92558000">
        <ele>301.00000</ele>
        <time>2010-01-01T06:39:21Z</time>
      </trkpt>
      <trkpt lat="43.54185000" lon="12.92566000">
        <ele>300.00000</ele>
        <time>2010-01-01T06:39:25Z</time>
      </trkpt>
      <trkpt lat="43.54178000" lon="12.92567000">
        <ele>300.00000</ele>
        <time>2010-01-01T06:39:27Z</time>
      </trkpt>
      <trkpt lat="43.54141000" lon="12.92555000">
        <ele>297.00000</ele>
        <time>2010-01-01T06:39:43Z</time>
      </trkpt>
      <trkpt lat="43.54126000" lon="12.92541000">
        <ele>293.00000</ele>
        <time>2010-01-01T06:39:50Z</time>
      </trkpt>
      <trkpt lat="43.54118000" lon="12.92506000">
        <ele>294.00000</ele>
        <time>2010-01-01T06:40:01Z</time>
      </trkpt>
      <trkpt lat="43.54098000" lon="12.92435000">
        <ele>300.00000</ele>
        <time>2010-01-01T06:40:23Z</time>
      </trkpt>
      <trkpt lat="43.54091000" lon="12.92417000">
        <ele>300.00000</ele>
        <time>2010-01-01T06:40:29Z</time>
      </trkpt>
      <trkpt lat="43.54072000" lon="12.92394000">
        <ele>297.00000</ele>
        <time>2010-01-01T06:40:39Z</time>
      </trkpt>
      <trkpt lat="43.54032000" lon="12.92357000">
        <ele>294.00000</ele>
        <time>2010-01-01T06:40:58Z</time>
      </trkpt>
      <trkpt lat="43.53993000" lon="12.92324000">
        <ele>290.00000</ele>
        <time>2010-01-01T06:41:16Z</time>
      </trkpt>
      <trkpt lat="43.53972000" lon="12.92311000">
        <ele>287.00000</ele>
        <time>2010-01-01T06:41:26Z</time>
      </trkpt>
      <trkpt lat="43.53938000" lon="12.92282000">
        <ele>289.00000</ele>
        <time>2010-01-01T06:41:42Z</time>
      </trkpt>
      <trkpt lat="43.53923000" lon="12.92275000">
        <ele>289.00000</ele>
        <time>2010-01-01T06:41:48Z</time>
      </trkpt>
      <trkpt lat="43.53891000" lon="12.92266000">
        <ele>288.00000</ele>
        <time>2010-01-01T06:42:01Z</time>
      </trkpt>
      <trkpt lat="43.53878000" lon="12.92266000">
        <ele>287.00000</ele>
        <time>2010-01-01T06:42:06Z</time>
      </trkpt>
      <trkpt lat="43.53864000" lon="12.92271000">
        <ele>285.00000</ele>
        <time>2010-01-01T06:42:12Z</time>
      </trkpt>
      <trkpt lat="43.53817000" lon="12.92295000">
        <ele>278.00000</ele>
        <time>2010-01-01T06:42:32Z</time>
      </trkpt>
      <trkpt lat="43.53796000" lon="12.92300000">
        <ele>275.00000</ele>
        <time>2010-01-01T06:42:41Z</time>
      </trkpt>
      <trkpt lat="43.53779000" lon="12.92299000">
        <ele>273.00000</ele>
        <time>2010-01-01T06:42:47Z</time>
      </trkpt>
      <trkpt lat="43.53757000" lon="12.92291000">
        <ele>273.00000</ele>
        <time>2010-01-01T06:42:56Z</time>
      </trkpt>
      <trkpt lat="43.53708000" lon="12.92258000">
        <ele>274.00000</ele>
        <time>2010-01-01T06:43:18Z</time>
      </trkpt>
      <trkpt lat="43.53698000" lon="12.92259000">
        <ele>273.00000</ele>
        <time>2010-01-01T06:43:22Z</time>
      </trkpt>
      <trkpt lat="43.53649000" lon="12.92273000">
        <ele>271.00000</ele>
        <time>2010-01-01T06:43:42Z</time>
      </trkpt>
      <trkpt lat="43.53631000" lon="12.92275000">
        <ele>272.00000</ele>
        <time>2010-01-01T06:43:50Z</time>
      </trkpt>
      <trkpt lat="43.53616000" lon="12.92269000">
        <ele>274.00000</ele>
        <time>2010-01-01T06:43:56Z</time>
      </trkpt>
      <trkpt lat="43.53615000" lon="12.92269000">
        <ele>274.00000</ele>
        <time>2010-01-01T06:43:56Z</time>
      </trkpt>
      <trkpt lat="43.53613000" lon="12.92268000">
        <ele>275.00000</ele>
        <time>2010-01-01T06:43:57Z</time>
      </trkpt>
      <trkpt lat="43.53607000" lon="12.92255000">
        <ele>278.00000</ele>
        <time>2010-01-01T06:44:02Z</time>
      </trkpt>
      <trkpt lat="43.53587000" lon="12.92228000">
        <ele>283.00000</ele>
        <time>2010-01-01T06:44:13Z</time>
      </trkpt>
      <trkpt lat="43.53579000" lon="12.92215000">
        <ele>285.00000</ele>
        <time>2010-01-01T06:44:18Z</time>
      </trkpt>
      <trkpt lat="43.53561000" lon="12.92195000">
        <ele>285.00000</ele>
        <time>2010-01-01T06:44:27Z</time>
      </trkpt>
      <trkpt lat="43.53552000" lon="12.92182000">
        <ele>285.00000</ele>
        <time>2010-01-01T06:44:32Z</time>
      </trkpt>
      <trkpt lat="43.53542000" lon="12.92161000">
        <ele>285.00000</ele>
        <time>2010-01-01T06:44:39Z</time>
      </trkpt>
      <trkpt lat="43.53533000" lon="12.92150000">
        <ele>281.00000</ele>
        <time>2010-01-01T06:44:44Z</time>
      </trkpt>
      <trkpt lat="43.53526000" lon="12.92126000">
        <ele>280.00000</ele>
        <time>2010-01-01T06:44:52Z</time>
      </trkpt>
      <trkpt lat="43.53519000" lon="12.92111000">
        <ele>280.00000</ele>
        <time>2010-01-01T06:44:57Z</time>
      </trkpt>
      <trkpt lat="43.53508000" lon="12.92094000">
        <ele>279.00000</ele>
        <time>2010-01-01T06:45:04Z</time>
      </trkpt>
      <trkpt lat="43.53495000" lon="12.92086000">
        <ele>278.00000</ele>
        <time>2010-01-01T06:45:09Z</time>
      </trkpt>
      <trkpt lat="43.53273000" lon="12.92005000">
        <ele>264.00000</ele>
        <time>2010-01-01T06:46:41Z</time>
      </trkpt>
      <trkpt lat="43.53263000" lon="12.92006000">
        <ele>263.00000</ele>
        <time>2010-01-01T06:46:45Z</time>
      </trkpt>
      <trkpt lat="43.53253000" lon="12.92013000">
        <ele>261.00000</ele>
        <time>2010-01-01T06:46:50Z</time>
      </trkpt>
      <trkpt lat="43.53245000" lon="12.92022000">
        <ele>260.00000</ele>
        <time>2010-01-01T06:46:54Z</time>
      </trkpt>
      <trkpt lat="43.53237000" lon="12.92040000">
        <ele>259.00000</ele>
        <time>2010-01-01T06:47:00Z</time>
      </trkpt>
      <trkpt lat="43.53237000" lon="12.92056000">
        <ele>258.00000</ele>
        <time>2010-01-01T06:47:05Z</time>
      </trkpt>
      <trkpt lat="43.53239000" lon="12.92074000">
        <ele>257.00000</ele>
        <time>2010-01-01T06:47:10Z</time>
      </trkpt>
      <trkpt lat="43.53245000" lon="12.92088000">
        <ele>256.00000</ele>
        <time>2010-01-01T06:47:15Z</time>
      </trkpt>
      <trkpt lat="43.53348000" lon="12.92236000">
        <ele>263.00000</ele>
        <time>2010-01-01T06:48:14Z</time>
      </trkpt>
      <trkpt lat="43.53385000" lon="12.92292000">
        <ele>260.00000</ele>
        <time>2010-01-01T06:48:36Z</time>
      </trkpt>
      <trkpt lat="43.53513000" lon="12.92509000">
        <ele>265.00000</ele>
        <time>2010-01-01T06:49:57Z</time>
      </trkpt>
      <trkpt lat="43.53523000" lon="12.92530000">
        <ele>264.00000</ele>
        <time>2010-01-01T06:50:05Z</time>
      </trkpt>
      <trkpt lat="43.53526000" lon="12.92550000">
        <ele>266.00000</ele>
        <time>2010-01-01T06:50:11Z</time>
      </trkpt>
      <trkpt lat="43.53533000" lon="12.92609000">
        <ele>269.00000</ele>
        <time>2010-01-01T06:50:28Z</time>
      </trkpt>
      <trkpt lat="43.53533000" lon="12.92608000">
        <ele>269.00000</ele>
        <time>2010-01-01T06:50:28Z</time>
      </trkpt>
      <trkpt lat="43.53551000" lon="12.92774000">
        <ele>272.00000</ele>
        <time>2010-01-01T06:51:17Z</time>
      </trkpt>
      <trkpt lat="43.53549000" lon="12.92791000">
        <ele>272.00000</ele>
        <time>2010-01-01T06:51:22Z</time>
      </trkpt>
      <trkpt lat="43.53544000" lon="12.92809000">
        <ele>273.00000</ele>
        <time>2010-01-01T06:51:27Z</time>
      </trkpt>
      <trkpt lat="43.53519000" lon="12.92852000">
        <ele>278.00000</ele>
        <time>2010-01-01T06:51:43Z</time>
      </trkpt>
      <trkpt lat="43.53364000" lon="12.93098000">
        <ele>293.00000</ele>
        <time>2010-01-01T06:53:18Z</time>
      </trkpt>
      <trkpt lat="43.53358000" lon="12.93118000">
        <ele>296.00000</ele>
        <time>2010-01-01T06:53:24Z</time>
      </trkpt>
      <trkpt lat="43.53357000" lon="12.93132000">
        <ele>298.00000</ele>
        <time>2010-01-01T06:53:28Z</time>
      </trkpt>
      <trkpt lat="43.53382000" lon="12.93252000">
        <ele>299.00000</ele>
        <time>2010-01-01T06:54:05Z</time>
      </trkpt>
      <trkpt lat="43.53381000" lon="12.93269000">
        <ele>299.00000</ele>
        <time>2010-01-01T06:54:10Z</time>
      </trkpt>
      <trkpt lat="43.53375000" lon="12.93282000">
        <ele>301.00000</ele>
        <time>2010-01-01T06:54:14Z</time>
      </trkpt>
      <trkpt lat="43.53367000" lon="12.93291000">
        <ele>302.00000</ele>
        <time>2010-01-01T06:54:18Z</time>
      </trkpt>
      <trkpt lat="43.53291000" lon="12.93340000">
        <ele>312.00000</ele>
        <time>2010-01-01T06:54:52Z</time>
      </trkpt>
      <trkpt lat="43.53271000" lon="12.93351000">
        <ele>312.00000</ele>
        <time>2010-01-01T06:55:00Z</time>
      </trkpt>
      <trkpt lat="43.53250000" lon="12.93353000">
        <ele>314.00000</ele>
        <time>2010-01-01T06:55:09Z</time>
      </trkpt>
      <trkpt lat="43.53134000" lon="12.93342000">
        <ele>326.00000</ele>
        <time>2010-01-01T06:55:55Z</time>
      </trkpt>
      <trkpt lat="43.53119000" lon="12.93338000">
        <ele>326.00000</ele>
        <time>2010-01-01T06:56:01Z</time>
      </trkpt>
      <trkpt lat="43.53044000" lon="12.93294000">
        <ele>336.00000</ele>
        <time>2010-01-01T06:56:34Z</time>
      </trkpt>
      <trkpt lat="43.52897000" lon="12.93252000">
        <ele>353.00000</ele>
        <time>2010-01-01T06:57:34Z</time>
      </trkpt>
      <trkpt lat="43.52884000" lon="12.93253000">
        <ele>354.00000</ele>
        <time>2010-01-01T06:57:39Z</time>
      </trkpt>
      <trkpt lat="43.52874000" lon="12.93260000">
        <ele>355.00000</ele>
        <time>2010-01-01T06:57:44Z</time>
      </trkpt>
      <trkpt lat="43.52868000" lon="12.93281000">
        <ele>355.00000</ele>
        <time>2010-01-01T06:57:50Z</time>
      </trkpt>
      <trkpt lat="43.52869000" lon="12.93291000">
        <ele>355.00000</ele>
        <time>2010-01-01T06:57:53Z</time>
      </trkpt>
      <trkpt lat="43.52871000" lon="12.93297000">
        <ele>355.00000</ele>
        <time>2010-01-01T06:57:55Z</time>
      </trkpt>
      <trkpt lat="43.52897000" lon="12.93348000">
        <ele>351.00000</ele>
        <time>2010-01-01T06:58:13Z</time>
      </trkpt>
      <trkpt lat="43.52899000" lon="12.93359000">
        <ele>351.00000</ele>
        <time>2010-01-01T06:58:17Z</time>
      </trkpt>
      <trkpt lat="43.52900000" lon="12.93378000">
        <ele>352.00000</ele>
        <time>2010-01-01T06:58:22Z</time>
      </trkpt>
      <trkpt lat="43.52899000" lon="12.93403000">
        <ele>352.00000</ele>
        <time>2010-01-01T06:58:29Z</time>
      </trkpt>
      <trkpt lat="43.52883000" lon="12.93544000">
        <ele>359.00000</ele>
        <time>2010-01-01T06:59:11Z</time>
      </trkpt>
      <trkpt lat="43.52876000" lon="12.93558000">
        <ele>360.00000</ele>
        <time>2010-01-01T06:59:16Z</time>
      </trkpt>
      <trkpt lat="43.52869000" lon="12.93566000">
        <ele>360.00000</ele>
        <time>2010-01-01T06:59:19Z</time>
      </trkpt>
      <trkpt lat="43.52824000" lon="12.93605000">
        <ele>365.00000</ele>
        <time>2010-01-01T06:59:41Z</time>
      </trkpt>
      <trkpt lat="43.52815000" lon="12.93616000">
        <ele>367.00000</ele>
        <time>2010-01-01T06:59:46Z</time>
      </trkpt>
      <trkpt lat="43.52809000" lon="12.93628000">
        <ele>369.00000</ele>
        <time>2010-01-01T06:59:50Z</time>
      </trkpt>
      <trkpt lat="43.52807000" lon="12.93651000">
        <ele>370.00000</ele>
        <time>2010-01-01T06:59:57Z</time>
      </trkpt>
      <trkpt lat="43.52816000" lon="12.93700000">
        <ele>370.00000</ele>
        <time>2010-01-01T07:00:11Z</time>
      </trkpt>
      <trkpt lat="43.52815000" lon="12.93712000">
        <ele>370.00000</ele>
        <time>2010-01-01T07:00:15Z</time>
      </trkpt>
      <trkpt lat="43.52811000" lon="12.93723000">
        <ele>371.00000</ele>
        <time>2010-01-01T07:00:18Z</time>
      </trkpt>
      <trkpt lat="43.52805000" lon="12.93732000">
        <ele>373.00000</ele>
        <time>2010-01-01T07:00:22Z</time>
      </trkpt>
      <trkpt lat="43.52766000" lon="12.93767000">
        <ele>381.00000</ele>
        <time>2010-01-01T07:00:40Z</time>
      </trkpt>
      <trkpt lat="43.52761000" lon="12.93775000">
        <ele>382.00000</ele>
        <time>2010-01-01T07:00:44Z</time>
      </trkpt>
      <trkpt lat="43.52757000" lon="12.93787000">
        <ele>382.00000</ele>
        <time>2010-01-01T07:00:47Z</time>
      </trkpt>
      <trkpt lat="43.52755000" lon="12.93797000">
        <ele>383.00000</ele>
        <time>2010-01-01T07:00:50Z</time>
      </trkpt>
      <trkpt lat="43.52762000" lon="12.93879000">
        <ele>386.00000</ele>
        <time>2010-01-01T07:01:14Z</time>
      </trkpt>
      <trkpt lat="43.52761000" lon="12.93890000">
        <ele>387.00000</ele>
        <time>2010-01-01T07:01:18Z</time>
      </trkpt>
      <trkpt lat="43.52757000" lon="12.93898000">
        <ele>387.00000</ele>
        <time>2010-01-01T07:01:20Z</time>
      </trkpt>
      <trkpt lat="43.52751000" lon="12.93904000">
        <ele>387.00000</ele>
        <time>2010-01-01T07:01:23Z</time>
      </trkpt>
      <trkpt lat="43.52738000" lon="12.93908000">
        <ele>384.00000</ele>
        <time>2010-01-01T07:01:29Z</time>
      </trkpt>
      <trkpt lat="43.52731000" lon="12.93907000">
        <ele>383.00000</ele>
        <time>2010-01-01T07:01:31Z</time>
      </trkpt>
      <trkpt lat="43.52664000" lon="12.93866000">
        <ele>376.00000</ele>
        <time>2010-01-01T07:02:01Z</time>
      </trkpt>
      <trkpt lat="43.52650000" lon="12.93861000">
        <ele>375.00000</ele>
        <time>2010-01-01T07:02:07Z</time>
      </trkpt>
      <trkpt lat="43.52637000" lon="12.93860000">
        <ele>373.00000</ele>
        <time>2010-01-01T07:02:12Z</time>
      </trkpt>
      <trkpt lat="43.52607000" lon="12.93864000">
        <ele>370.00000</ele>
        <time>2010-01-01T07:02:24Z</time>
      </trkpt>
      <trkpt lat="43.52576000" lon="12.93863000">
        <ele>366.00000</ele>
        <time>2010-01-01T07:02:36Z</time>
      </trkpt>
      <trkpt lat="43.52566000" lon="12.93854000">
        <ele>365.00000</ele>
        <time>2010-01-01T07:02:41Z</time>
      </trkpt>
      <trkpt lat="43.52557000" lon="12.93839000">
        <ele>364.00000</ele>
        <time>2010-01-01T07:02:47Z</time>
      </trkpt>
      <trkpt lat="43.52528000" lon="12.93771000">
        <ele>363.00000</ele>
        <time>2010-01-01T07:03:10Z</time>
      </trkpt>
      <trkpt lat="43.52527000" lon="12.93771000">
        <ele>363.00000</ele>
        <time>2010-01-01T07:03:10Z</time>
      </trkpt>
      <trkpt lat="43.52499000" lon="12.93704000">
        <ele>363.00000</ele>
        <time>2010-01-01T07:03:32Z</time>
      </trkpt>
      <trkpt lat="43.52494000" lon="12.93700000">
        <ele>363.00000</ele>
        <time>2010-01-01T07:03:35Z</time>
      </trkpt>
      <trkpt lat="43.52488000" lon="12.93699000">
        <ele>362.00000</ele>
        <time>2010-01-01T07:03:37Z</time>
      </trkpt>
      <trkpt lat="43.52482000" lon="12.93702000">
        <ele>361.00000</ele>
        <time>2010-01-01T07:03:40Z</time>
      </trkpt>
      <trkpt lat="43.52478000" lon="12.93711000">
        <ele>360.00000</ele>
        <time>2010-01-01T07:03:43Z</time>
      </trkpt>
      <trkpt lat="43.52479000" lon="12.93721000">
        <ele>360.00000</ele>
        <time>2010-01-01T07:03:46Z</time>
      </trkpt>
      <trkpt lat="43.52520000" lon="12.93873000">
        <ele>351.00000</ele>
        <time>2010-01-01T07:04:33Z</time>
      </trkpt>
      <trkpt lat="43.52525000" lon="12.93900000">
        <ele>348.00000</ele>
        <time>2010-01-01T07:04:41Z</time>
      </trkpt>
      <trkpt lat="43.52524000" lon="12.93917000">
        <ele>345.00000</ele>
        <time>2010-01-01T07:04:46Z</time>
      </trkpt>
      <trkpt lat="43.52464000" lon="12.93963000">
        <ele>339.00000</ele>
        <time>2010-01-01T07:05:13Z</time>
      </trkpt>
      <trkpt lat="43.52445000" lon="12.93961000">
        <ele>339.00000</ele>
        <time>2010-01-01T07:05:21Z</time>
      </trkpt>
      <trkpt lat="43.52391000" lon="12.93934000">
        <ele>340.00000</ele>
        <time>2010-01-01T07:05:44Z</time>
      </trkpt>
      <trkpt lat="43.52331000" lon="12.93883000">
        <ele>344.00000</ele>
        <time>2010-01-01T07:06:12Z</time>
      </trkpt>
      <trkpt lat="43.52300000" lon="12.93875000">
        <ele>343.00000</ele>
        <time>2010-01-01T07:06:25Z</time>
      </trkpt>
      <trkpt lat="43.52291000" lon="12.93876000">
        <ele>343.00000</ele>
        <time>2010-01-01T07:06:28Z</time>
      </trkpt>
      <trkpt lat="43.52285000" lon="12.93881000">
        <ele>342.00000</ele>
        <time>2010-01-01T07:06:31Z</time>
      </trkpt>
      <trkpt lat="43.52278000" lon="12.93890000">
        <ele>343.00000</ele>
        <time>2010-01-01T07:06:35Z</time>
      </trkpt>
      <trkpt lat="43.52274000" lon="12.93900000">
        <ele>344.00000</ele>
        <time>2010-01-01T07:06:38Z</time>
      </trkpt>
      <trkpt lat="43.52274000" lon="12.93906000">
        <ele>344.00000</ele>
        <time>2010-01-01T07:06:40Z</time>
      </trkpt>
      <trkpt lat="43.52276000" lon="12.93916000">
        <ele>344.00000</ele>
        <time>2010-01-01T07:06:43Z</time>
      </trkpt>
      <trkpt lat="43.52304000" lon="12.93961000">
        <ele>344.00000</ele>
        <time>2010-01-01T07:07:00Z</time>
      </trkpt>
      <trkpt lat="43.52354000" lon="12.94059000">
        <ele>343.00000</ele>
        <time>2010-01-01T07:07:35Z</time>
      </trkpt>
      <trkpt lat="43.52363000" lon="12.94084000">
        <ele>343.00000</ele>
        <time>2010-01-01T07:07:43Z</time>
      </trkpt>
      <trkpt lat="43.52374000" lon="12.94256000">
        <ele>351.00000</ele>
        <time>2010-01-01T07:08:33Z</time>
      </trkpt>
      <trkpt lat="43.52368000" lon="12.94277000">
        <ele>352.00000</ele>
        <time>2010-01-01T07:08:40Z</time>
      </trkpt>
      <trkpt lat="43.52353000" lon="12.94290000">
        <ele>352.00000</ele>
        <time>2010-01-01T07:08:47Z</time>
      </trkpt>
      <trkpt lat="43.52337000" lon="12.94299000">
        <ele>353.00000</ele>
        <time>2010-01-01T07:08:54Z</time>
      </trkpt>
      <trkpt lat="43.52283000" lon="12.94299000">
        <ele>361.00000</ele>
        <time>2010-01-01T07:09:15Z</time>
      </trkpt>
      <trkpt lat="43.52274000" lon="12.94303000">
        <ele>362.00000</ele>
        <time>2010-01-01T07:09:19Z</time>
      </trkpt>
      <trkpt lat="43.52269000" lon="12.94313000">
        <ele>362.00000</ele>
        <time>2010-01-01T07:09:23Z</time>
      </trkpt>
      <trkpt lat="43.52268000" lon="12.94326000">
        <ele>362.00000</ele>
        <time>2010-01-01T07:09:27Z</time>
      </trkpt>
      <trkpt lat="43.52283000" lon="12.94522000">
        <ele>362.00000</ele>
        <time>2010-01-01T07:10:24Z</time>
      </trkpt>
      <trkpt lat="43.52281000" lon="12.94537000">
        <ele>363.00000</ele>
        <time>2010-01-01T07:10:28Z</time>
      </trkpt>
      <trkpt lat="43.52279000" lon="12.94545000">
        <ele>363.00000</ele>
        <time>2010-01-01T07:10:31Z</time>
      </trkpt>
      <trkpt lat="43.52271000" lon="12.94555000">
        <ele>362.00000</ele>
        <time>2010-01-01T07:10:35Z</time>
      </trkpt>
      <trkpt lat="43.52261000" lon="12.94557000">
        <ele>361.00000</ele>
        <time>2010-01-01T07:10:39Z</time>
      </trkpt>
      <trkpt lat="43.52248000" lon="12.94552000">
        <ele>361.00000</ele>
        <time>2010-01-01T07:10:44Z</time>
      </trkpt>
      <trkpt lat="43.52202000" lon="12.94500000">
        <ele>362.00000</ele>
        <time>2010-01-01T07:11:08Z</time>
      </trkpt>
      <trkpt lat="43.52165000" lon="12.94483000">
        <ele>361.00000</ele>
        <time>2010-01-01T07:11:24Z</time>
      </trkpt>
      <trkpt lat="43.52130000" lon="12.94470000">
        <ele>360.00000</ele>
        <time>2010-01-01T07:11:38Z</time>
      </trkpt>
      <trkpt lat="43.52101000" lon="12.94468000">
        <ele>359.00000</ele>
        <time>2010-01-01T07:11:50Z</time>
      </trkpt>
      <trkpt lat="43.51992000" lon="12.94498000">
        <ele>348.00000</ele>
        <time>2010-01-01T07:12:35Z</time>
      </trkpt>
      <trkpt lat="43.51978000" lon="12.94494000">
        <ele>348.00000</ele>
        <time>2010-01-01T07:12:40Z</time>
      </trkpt>
      <trkpt lat="43.51931000" lon="12.94466000">
        <ele>348.00000</ele>
        <time>2010-01-01T07:13:01Z</time>
      </trkpt>
      <trkpt lat="43.51887000" lon="12.94435000">
        <ele>345.00000</ele>
        <time>2010-01-01T07:13:21Z</time>
      </trkpt>
      <trkpt lat="43.51871000" lon="12.94413000">
        <ele>349.00000</ele>
        <time>2010-01-01T07:13:30Z</time>
      </trkpt>
      <trkpt lat="43.51861000" lon="12.94415000">
        <ele>349.00000</ele>
        <time>2010-01-01T07:13:34Z</time>
      </trkpt>
      <trkpt lat="43.51858000" lon="12.94438000">
        <ele>347.00000</ele>
        <time>2010-01-01T07:13:40Z</time>
      </trkpt>
      <trkpt lat="43.51865000" lon="12.94479000">
        <ele>344.00000</ele>
        <time>2010-01-01T07:13:53Z</time>
      </trkpt>
      <trkpt lat="43.51872000" lon="12.94543000">
        <ele>341.00000</ele>
        <time>2010-01-01T07:14:11Z</time>
      </trkpt>
      <trkpt lat="43.51875000" lon="12.94605000">
        <ele>337.00000</ele>
        <time>2010-01-01T07:14:29Z</time>
      </trkpt>
      <trkpt lat="43.51859000" lon="12.94697000">
        <ele>334.00000</ele>
        <time>2010-01-01T07:14:57Z</time>
      </trkpt>
      <trkpt lat="43.51847000" lon="12.94753000">
        <ele>330.00000</ele>
        <time>2010-01-01T07:15:14Z</time>
      </trkpt>
      <trkpt lat="43.51827000" lon="12.94783000">
        <ele>329.00000</ele>
        <time>2010-01-01T07:15:26Z</time>
      </trkpt>
      <trkpt lat="43.51800000" lon="12.94801000">
        <ele>327.00000</ele>
        <time>2010-01-01T07:15:38Z</time>
      </trkpt>
      <trkpt lat="43.51748000" lon="12.94775000">
        <ele>330.00000</ele>
        <time>2010-01-01T07:16:00Z</time>
      </trkpt>
      <trkpt lat="43.51724000" lon="12.94767000">
        <ele>329.00000</ele>
        <time>2010-01-01T07:16:10Z</time>
      </trkpt>
      <trkpt lat="43.51700000" lon="12.94771000">
        <ele>329.00000</ele>
        <time>2010-01-01T07:16:19Z</time>
      </trkpt>
      <trkpt lat="43.51688000" lon="12.94782000">
        <ele>329.00000</ele>
        <time>2010-01-01T07:16:25Z</time>
      </trkpt>
      <trkpt lat="43.51675000" lon="12.94802000">
        <ele>326.00000</ele>
        <time>2010-01-01T07:16:33Z</time>
      </trkpt>
      <trkpt lat="43.51660000" lon="12.94834000">
        <ele>323.00000</ele>
        <time>2010-01-01T07:16:44Z</time>
      </trkpt>
      <trkpt lat="43.51638000" lon="12.94864000">
        <ele>321.00000</ele>
        <time>2010-01-01T07:16:56Z</time>
      </trkpt>
      <trkpt lat="43.51615000" lon="12.94877000">
        <ele>322.00000</ele>
        <time>2010-01-01T07:17:06Z</time>
      </trkpt>
      <trkpt lat="43.51548000" lon="12.94894000">
        <ele>325.00000</ele>
        <time>2010-01-01T07:17:34Z</time>
      </trkpt>
      <trkpt lat="43.51508000" lon="12.94908000">
        <ele>320.00000</ele>
        <time>2010-01-01T07:17:50Z</time>
      </trkpt>
      <trkpt lat="43.51462000" lon="12.94934000">
        <ele>314.00000</ele>
        <time>2010-01-01T07:18:10Z</time>
      </trkpt>
      <trkpt lat="43.51402000" lon="12.94950000">
        <ele>312.00000</ele>
        <time>2010-01-01T07:18:34Z</time>
      </trkpt>
      <trkpt lat="43.51347000" lon="12.94937000">
        <ele>314.00000</ele>
        <time>2010-01-01T07:18:57Z</time>
      </trkpt>
      <trkpt lat="43.51232000" lon="12.94914000">
        <ele>313.00000</ele>
        <time>2010-01-01T07:19:43Z</time>
      </trkpt>
      <trkpt lat="43.51188000" lon="12.94893000">
        <ele>312.00000</ele>
        <time>2010-01-01T07:20:02Z</time>
      </trkpt>
      <trkpt lat="43.51162000" lon="12.94874000">
        <ele>315.00000</ele>
        <time>2010-01-01T07:20:14Z</time>
      </trkpt>
      <trkpt lat="43.51122000" lon="12.94853000">
        <ele>316.00000</ele>
        <time>2010-01-01T07:20:31Z</time>
      </trkpt>
      <trkpt lat="43.51086000" lon="12.94843000">
        <ele>312.00000</ele>
        <time>2010-01-01T07:20:46Z</time>
      </trkpt>
      <trkpt lat="43.51067000" lon="12.94835000">
        <ele>309.00000</ele>
        <time>2010-01-01T07:20:54Z</time>
      </trkpt>
      <trkpt lat="43.51058000" lon="12.94825000">
        <ele>309.00000</ele>
        <time>2010-01-01T07:20:58Z</time>
      </trkpt>
      <trkpt lat="43.51015000" lon="12.94752000">
        <ele>312.00000</ele>
        <time>2010-01-01T07:21:25Z</time>
      </trkpt>
      <trkpt lat="43.50998000" lon="12.94730000">
        <ele>309.00000</ele>
        <time>2010-01-01T07:21:35Z</time>
      </trkpt>
      <trkpt lat="43.50969000" lon="12.94782000">
        <ele>304.00000</ele>
        <time>2010-01-01T07:21:54Z</time>
      </trkpt>
      <trkpt lat="43.50931000" lon="12.94832000">
        <ele>307.00000</ele>
        <time>2010-01-01T07:22:15Z</time>
      </trkpt>
      <trkpt lat="43.50923000" lon="12.94854000">
        <ele>309.00000</ele>
        <time>2010-01-01T07:22:22Z</time>
      </trkpt>
      <trkpt lat="43.50921000" lon="12.94868000">
        <ele>310.00000</ele>
        <time>2010-01-01T07:22:26Z</time>
      </trkpt>
      <trkpt lat="43.50924000" lon="12.94885000">
        <ele>310.00000</ele>
        <time>2010-01-01T07:22:31Z</time>
      </trkpt>
      <trkpt lat="43.50929000" lon="12.94900000">
        <ele>312.00000</ele>
        <time>2010-01-01T07:22:36Z</time>
      </trkpt>
      <trkpt lat="43.50929000" lon="12.94912000">
        <ele>314.00000</ele>
        <time>2010-01-01T07:22:40Z</time>
      </trkpt>
      <trkpt lat="43.50926000" lon="12.94922000">
        <ele>317.00000</ele>
        <time>2010-01-01T07:22:43Z</time>
      </trkpt>
      <trkpt lat="43.50919000" lon="12.94930000">
        <ele>322.00000</ele>
        <time>2010-01-01T07:22:46Z</time>
      </trkpt>
      <trkpt lat="43.50910000" lon="12.94929000">
        <ele>324.00000</ele>
        <time>2010-01-01T07:22:50Z</time>
      </trkpt>
      <trkpt lat="43.50903000" lon="12.94922000">
        <ele>324.00000</ele>
        <time>2010-01-01T07:22:53Z</time>
      </trkpt>
      <trkpt lat="43.50865000" lon="12.94844000">
        <ele>318.00000</ele>
        <time>2010-01-01T07:23:21Z</time>
      </trkpt>
      <trkpt lat="43.50713000" lon="12.94654000">
        <ele>333.00000</ele>
        <time>2010-01-01T07:24:43Z</time>
      </trkpt>
      <trkpt lat="43.50696000" lon="12.94639000">
        <ele>332.00000</ele>
        <time>2010-01-01T07:24:51Z</time>
      </trkpt>
      <trkpt lat="43.50685000" lon="12.94636000">
        <ele>333.00000</ele>
        <time>2010-01-01T07:24:55Z</time>
      </trkpt>
      <trkpt lat="43.50676000" lon="12.94637000">
        <ele>334.00000</ele>
        <time>2010-01-01T07:24:59Z</time>
      </trkpt>
      <trkpt lat="43.50664000" lon="12.94642000">
        <ele>336.00000</ele>
        <time>2010-01-01T07:25:04Z</time>
      </trkpt>
      <trkpt lat="43.50551000" lon="12.94727000">
        <ele>352.00000</ele>
        <time>2010-01-01T07:25:56Z</time>
      </trkpt>
      <trkpt lat="43.50530410" lon="12.94746680">
        <ele>354.00000</ele>
        <time>2010-01-01T07:26:06Z</time>
      </trkpt>
      <trkpt lat="43.50498000" lon="12.94789000">
        <ele>359.00000</ele>
        <time>2010-01-01T07:26:23Z</time>
      </trkpt>
      <trkpt lat="43.50496000" lon="12.94784000">
        <ele>359.00000</ele>
        <time>2010-01-01T07:26:25Z</time>
      </trkpt>
      <trkpt lat="43.50497000" lon="12.94778000">
        <ele>358.00000</ele>
        <time>2010-01-01T07:26:27Z</time>
      </trkpt>
      <trkpt lat="43.50496000" lon="12.94784000">
        <ele>359.00000</ele>
        <time>2010-01-01T07:26:29Z</time>
      </trkpt>
      <trkpt lat="43.50498000" lon="12.94789000">
        <ele>359.00000</ele>
        <time>2010-01-01T07:26:30Z</time>
      </trkpt>
      <trkpt lat="43.50461900" lon="12.94840160">
        <ele>357.00000</ele>
        <time>2010-01-01T07:26:51Z</time>
      </trkpt>
      <trkpt lat="43.50473680" lon="12.94892260">
        <ele>354.00000</ele>
        <time>2010-01-01T07:27:07Z</time>
      </trkpt>
      <trkpt lat="43.50497860" lon="12.94927040">
        <ele>353.00000</ele>
        <time>2010-01-01T07:27:21Z</time>
      </trkpt>
      <trkpt lat="43.50511000" lon="12.94954000">
        <ele>353.00000</ele>
        <time>2010-01-01T07:27:30Z</time>
      </trkpt>
      <trkpt lat="43.50537000" lon="12.95058000">
        <ele>354.00000</ele>
        <time>2010-01-01T07:28:02Z</time>
      </trkpt>
      <trkpt lat="43.50542000" lon="12.95071000">
        <ele>353.00000</ele>
        <time>2010-01-01T07:28:07Z</time>
      </trkpt>
      <trkpt lat="43.50555000" lon="12.95087000">
        <ele>352.00000</ele>
        <time>2010-01-01T07:28:13Z</time>
      </trkpt>
      <trkpt lat="43.50573000" lon="12.95095000">
        <ele>351.00000</ele>
        <time>2010-01-01T07:28:21Z</time>
      </trkpt>
      <trkpt lat="43.50594000" lon="12.95098000">
        <ele>351.00000</ele>
        <time>2010-01-01T07:28:30Z</time>
      </trkpt>
      <trkpt lat="43.50779000" lon="12.95110000">
        <ele>356.00000</ele>
        <time>2010-01-01T07:29:44Z</time>
      </trkpt>
      <trkpt lat="43.50801000" lon="12.95115000">
        <ele>355.00000</ele>
        <time>2010-01-01T07:29:53Z</time>
      </trkpt>
      <trkpt lat="43.50807000" lon="12.95118000">
        <ele>355.00000</ele>
        <time>2010-01-01T07:29:55Z</time>
      </trkpt>
      <trkpt lat="43.50820000" lon="12.95129000">
        <ele>355.00000</ele>
        <time>2010-01-01T07:30:01Z</time>
      </trkpt>
      <trkpt lat="43.50836000" lon="12.95145000">
        <ele>354.00000</ele>
        <time>2010-01-01T07:30:09Z</time>
      </trkpt>
      <trkpt lat="43.50880000" lon="12.95211000">
        <ele>351.00000</ele>
        <time>2010-01-01T07:30:35Z</time>
      </trkpt>
      <trkpt lat="43.50895000" lon="12.95231000">
        <ele>350.00000</ele>
        <time>2010-01-01T07:30:44Z</time>
      </trkpt>
      <trkpt lat="43.50912000" lon="12.95244000">
        <ele>352.00000</ele>
        <time>2010-01-01T07:30:51Z</time>
      </trkpt>
      <trkpt lat="43.50972000" lon="12.95261000">
        <ele>356.00000</ele>
        <time>2010-01-01T07:31:16Z</time>
      </trkpt>
      <trkpt lat="43.50992000" lon="12.95268000">
        <ele>356.00000</ele>
        <time>2010-01-01T07:31:24Z</time>
      </trkpt>
      <trkpt lat="43.51016000" lon="12.95284000">
        <ele>353.00000</ele>
        <time>2010-01-01T07:31:35Z</time>
      </trkpt>
      <trkpt lat="43.51116000" lon="12.95359000">
        <ele>349.00000</ele>
        <time>2010-01-01T07:32:20Z</time>
      </trkpt>
      <trkpt lat="43.51131000" lon="12.95374000">
        <ele>348.00000</ele>
        <time>2010-01-01T07:32:28Z</time>
      </trkpt>
      <trkpt lat="43.51147000" lon="12.95397000">
        <ele>348.00000</ele>
        <time>2010-01-01T07:32:37Z</time>
      </trkpt>
      <trkpt lat="43.51162000" lon="12.95423000">
        <ele>348.00000</ele>
        <time>2010-01-01T07:32:47Z</time>
      </trkpt>
      <trkpt lat="43.51201000" lon="12.95508000">
        <ele>351.00000</ele>
        <time>2010-01-01T07:33:16Z</time>
      </trkpt>
      <trkpt lat="43.51216000" lon="12.95536000">
        <ele>351.00000</ele>
        <time>2010-01-01T07:33:26Z</time>
      </trkpt>
      <trkpt lat="43.51229000" lon="12.95549000">
        <ele>351.00000</ele>
        <time>2010-01-01T07:33:32Z</time>
      </trkpt>
      <trkpt lat="43.51241000" lon="12.95559000">
        <ele>351.00000</ele>
        <time>2010-01-01T07:33:38Z</time>
      </trkpt>
      <trkpt lat="43.51278000" lon="12.95570000">
        <ele>352.00000</ele>
        <time>2010-01-01T07:33:53Z</time>
      </trkpt>
      <trkpt lat="43.51295000" lon="12.95578000">
        <ele>352.00000</ele>
        <time>2010-01-01T07:34:00Z</time>
      </trkpt>
      <trkpt lat="43.51320000" lon="12.95594000">
        <ele>352.00000</ele>
        <time>2010-01-01T07:34:11Z</time>
      </trkpt>
      <trkpt lat="43.51332000" lon="12.95604000">
        <ele>353.00000</ele>
        <time>2010-01-01T07:34:17Z</time>
      </trkpt>
      <trkpt lat="43.51343000" lon="12.95610000">
        <ele>353.00000</ele>
        <time>2010-01-01T07:34:22Z</time>
      </trkpt>
      <trkpt lat="43.51352000" lon="12.95611000">
        <ele>354.00000</ele>
        <time>2010-01-01T07:34:25Z</time>
      </trkpt>
      <trkpt lat="43.51391000" lon="12.95613000">
        <ele>354.00000</ele>
        <time>2010-01-01T07:34:41Z</time>
      </trkpt>
      <trkpt lat="43.51408000" lon="12.95618000">
        <ele>355.00000</ele>
        <time>2010-01-01T07:34:48Z</time>
      </trkpt>
      <trkpt lat="43.51428000" lon="12.95637000">
        <ele>354.00000</ele>
        <time>2010-01-01T07:34:58Z</time>
      </trkpt>
      <trkpt lat="43.51440000" lon="12.95655000">
        <ele>355.00000</ele>
        <time>2010-01-01T07:35:05Z</time>
      </trkpt>
      <trkpt lat="43.51445000" lon="12.95672000">
        <ele>356.00000</ele>
        <time>2010-01-01T07:35:10Z</time>
      </trkpt>
      <trkpt lat="43.51452000" lon="12.95730000">
        <ele>353.00000</ele>
        <time>2010-01-01T07:35:27Z</time>
      </trkpt>
      <trkpt lat="43.51460000" lon="12.95747000">
        <ele>352.00000</ele>
        <time>2010-01-01T07:35:33Z</time>
      </trkpt>
      <trkpt lat="43.51470000" lon="12.95758000">
        <ele>352.00000</ele>
        <time>2010-01-01T07:35:38Z</time>
      </trkpt>
      <trkpt lat="43.51483000" lon="12.95765000">
        <ele>352.00000</ele>
        <time>2010-01-01T07:35:44Z</time>
      </trkpt>
      <trkpt lat="43.51553000" lon="12.95780000">
        <ele>354.00000</ele>
        <time>2010-01-01T07:36:12Z</time>
      </trkpt>
      <trkpt lat="43.51595000" lon="12.95794000">
        <ele>351.00000</ele>
        <time>2010-01-01T07:36:29Z</time>
      </trkpt>
      <trkpt lat="43.51612000" lon="12.95806000">
        <ele>349.00000</ele>
        <time>2010-01-01T07:36:37Z</time>
      </trkpt>
      <trkpt lat="43.51724000" lon="12.95901000">
        <ele>342.00000</ele>
        <time>2010-01-01T07:37:30Z</time>
      </trkpt>
      <trkpt lat="43.51780000" lon="12.95953000">
        <ele>337.00000</ele>
        <time>2010-01-01T07:37:57Z</time>
      </trkpt>
      <trkpt lat="43.51790000" lon="12.95959000">
        <ele>337.00000</ele>
        <time>2010-01-01T07:38:01Z</time>
      </trkpt>
      <trkpt lat="43.51801000" lon="12.95964000">
        <ele>336.00000</ele>
        <time>2010-01-01T07:38:06Z</time>
      </trkpt>
      <trkpt lat="43.51819000" lon="12.95967000">
        <ele>335.00000</ele>
        <time>2010-01-01T07:38:13Z</time>
      </trkpt>
      <trkpt lat="43.51832000" lon="12.95966000">
        <ele>334.00000</ele>
        <time>2010-01-01T07:38:18Z</time>
      </trkpt>
      <trkpt lat="43.51850000" lon="12.95955000">
        <ele>333.00000</ele>
        <time>2010-01-01T07:38:26Z</time>
      </trkpt>
      <trkpt lat="43.51855000" lon="12.95949000">
        <ele>333.00000</ele>
        <time>2010-01-01T07:38:29Z</time>
      </trkpt>
      <trkpt lat="43.51855000" lon="12.95950000">
        <ele>333.00000</ele>
        <time>2010-01-01T07:38:29Z</time>
      </trkpt>
      <trkpt lat="43.52001000" lon="12.95797000">
        <ele>325.00000</ele>
        <time>2010-01-01T07:39:42Z</time>
      </trkpt>
      <trkpt lat="43.52011000" lon="12.95788000">
        <ele>325.00000</ele>
        <time>2010-01-01T07:39:47Z</time>
      </trkpt>
      <trkpt lat="43.52022000" lon="12.95784000">
        <ele>324.00000</ele>
        <time>2010-01-01T07:39:52Z</time>
      </trkpt>
      <trkpt lat="43.52033000" lon="12.95785000">
        <ele>323.00000</ele>
        <time>2010-01-01T07:39:56Z</time>
      </trkpt>
      <trkpt lat="43.52048000" lon="12.95795000">
        <ele>321.00000</ele>
        <time>2010-01-01T07:40:03Z</time>
      </trkpt>
      <trkpt lat="43.52056000" lon="12.95812000">
        <ele>320.00000</ele>
        <time>2010-01-01T07:40:09Z</time>
      </trkpt>
      <trkpt lat="43.52065000" lon="12.95847000">
        <ele>319.00000</ele>
        <time>2010-01-01T07:40:19Z</time>
      </trkpt>
      <trkpt lat="43.52083000" lon="12.95949000">
        <ele>315.00000</ele>
        <time>2010-01-01T07:40:50Z</time>
      </trkpt>
      <trkpt lat="43.52092000" lon="12.95982000">
        <ele>312.00000</ele>
        <time>2010-01-01T07:41:00Z</time>
      </trkpt>
      <trkpt lat="43.52102000" lon="12.96006000">
        <ele>311.00000</ele>
        <time>2010-01-01T07:41:08Z</time>
      </trkpt>
      <trkpt lat="43.52116000" lon="12.96036000">
        <ele>310.00000</ele>
        <time>2010-01-01T07:41:19Z</time>
      </trkpt>
      <trkpt lat="43.52327000" lon="12.96336000">
        <ele>302.00000</ele>
        <time>2010-01-01T07:43:20Z</time>
      </trkpt>
      <trkpt lat="43.52349000" lon="12.96361000">
        <ele>301.00000</ele>
        <time>2010-01-01T07:43:31Z</time>
      </trkpt>
      <trkpt lat="43.52435000" lon="12.96443000">
        <ele>303.00000</ele>
        <time>2010-01-01T07:44:13Z</time>
      </trkpt>
      <trkpt lat="43.52457000" lon="12.96465000">
        <ele>302.00000</ele>
        <time>2010-01-01T07:44:24Z</time>
      </trkpt>
      <trkpt lat="43.52495000" lon="12.96519000">
        <ele>297.00000</ele>
        <time>2010-01-01T07:44:46Z</time>
      </trkpt>
      <trkpt lat="43.52509000" lon="12.96533000">
        <ele>294.00000</ele>
        <time>2010-01-01T07:44:53Z</time>
      </trkpt>
      <trkpt lat="43.52529000" lon="12.96544000">
        <ele>292.00000</ele>
        <time>2010-01-01T07:45:01Z</time>
      </trkpt>
      <trkpt lat="43.52547000" lon="12.96549000">
        <ele>292.00000</ele>
        <time>2010-01-01T07:45:09Z</time>
      </trkpt>
      <trkpt lat="43.52622000" lon="12.96539000">
        <ele>295.00000</ele>
        <time>2010-01-01T07:45:39Z</time>
      </trkpt>
      <trkpt lat="43.52644000" lon="12.96538000">
        <ele>296.00000</ele>
        <time>2010-01-01T07:45:48Z</time>
      </trkpt>
      <trkpt lat="43.52671000" lon="12.96544000">
        <ele>295.00000</ele>
        <time>2010-01-01T07:45:59Z</time>
      </trkpt>
      <trkpt lat="43.52702000" lon="12.96559000">
        <ele>297.00000</ele>
        <time>2010-01-01T07:46:12Z</time>
      </trkpt>
      <trkpt lat="43.52732000" lon="12.96576000">
        <ele>297.00000</ele>
        <time>2010-01-01T07:46:25Z</time>
      </trkpt>
      <trkpt lat="43.52816000" lon="12.96629000">
        <ele>292.00000</ele>
        <time>2010-01-01T07:47:02Z</time>
      </trkpt>
      <trkpt lat="43.52858000" lon="12.96648000">
        <ele>290.00000</ele>
        <time>2010-01-01T07:47:19Z</time>
      </trkpt>
      <trkpt lat="43.52880000" lon="12.96652000">
        <ele>289.00000</ele>
        <time>2010-01-01T07:47:28Z</time>
      </trkpt>
      <trkpt lat="43.52919000" lon="12.96647000">
        <ele>291.00000</ele>
        <time>2010-01-01T07:47:44Z</time>
      </trkpt>
      <trkpt lat="43.53048000" lon="12.96620000">
        <ele>292.00000</ele>
        <time>2010-01-01T07:48:36Z</time>
      </trkpt>
      <trkpt lat="43.53066000" lon="12.96620000">
        <ele>292.00000</ele>
        <time>2010-01-01T07:48:43Z</time>
      </trkpt>
      <trkpt lat="43.53080000" lon="12.96625000">
        <ele>293.00000</ele>
        <time>2010-01-01T07:48:49Z</time>
      </trkpt>
      <trkpt lat="43.53117000" lon="12.96652000">
        <ele>293.00000</ele>
        <time>2010-01-01T07:49:06Z</time>
      </trkpt>
      <trkpt lat="43.53142000" lon="12.96684000">
        <ele>291.00000</ele>
        <time>2010-01-01T07:49:20Z</time>
      </trkpt>
      <trkpt lat="43.53166000" lon="12.96720000">
        <ele>290.00000</ele>
        <time>2010-01-01T07:49:34Z</time>
      </trkpt>
      <trkpt lat="43.53202000" lon="12.96799000">
        <ele>289.00000</ele>
        <time>2010-01-01T07:50:01Z</time>
      </trkpt>
      <trkpt lat="43.53234000" lon="12.96850000">
        <ele>292.00000</ele>
        <time>2010-01-01T07:50:21Z</time>
      </trkpt>
      <trkpt lat="43.53249000" lon="12.96869000">
        <ele>293.00000</ele>
        <time>2010-01-01T07:50:29Z</time>
      </trkpt>
      <trkpt lat="43.53263000" lon="12.96880000">
        <ele>292.00000</ele>
        <time>2010-01-01T07:50:35Z</time>
      </trkpt>
      <trkpt lat="43.53287000" lon="12.96891000">
        <ele>292.00000</ele>
        <time>2010-01-01T07:50:45Z</time>
      </trkpt>
      <trkpt lat="43.53441000" lon="12.96921000">
        <ele>295.00000</ele>
        <time>2010-01-01T07:51:47Z</time>
      </trkpt>
      <trkpt lat="43.53501000" lon="12.96937000">
        <ele>301.00000</ele>
        <time>2010-01-01T07:52:12Z</time>
      </trkpt>
      <trkpt lat="43.53529000" lon="12.96963000">
        <ele>299.00000</ele>
        <time>2010-01-01T07:52:25Z</time>
      </trkpt>
      <trkpt lat="43.53538000" lon="12.96979000">
        <ele>299.00000</ele>
        <time>2010-01-01T07:52:31Z</time>
      </trkpt>
      <trkpt lat="43.53547000" lon="12.97003000">
        <ele>299.00000</ele>
        <time>2010-01-01T07:52:39Z</time>
      </trkpt>
      <trkpt lat="43.53553000" lon="12.97045000">
        <ele>298.00000</ele>
        <time>2010-01-01T07:52:52Z</time>
      </trkpt>
      <trkpt lat="43.53552000" lon="12.97076000">
        <ele>299.00000</ele>
        <time>2010-01-01T07:53:01Z</time>
      </trkpt>
      <trkpt lat="43.53549000" lon="12.97091000">
        <ele>298.00000</ele>
        <time>2010-01-01T07:53:05Z</time>
      </trkpt>
      <trkpt lat="43.53543000" lon="12.97106000">
        <ele>296.00000</ele>
        <time>2010-01-01T07:53:10Z</time>
      </trkpt>
      <trkpt lat="43.53526000" lon="12.97147000">
        <ele>292.00000</ele>
        <time>2010-01-01T07:53:24Z</time>
      </trkpt>
      <trkpt lat="43.53522000" lon="12.97166000">
        <ele>294.00000</ele>
        <time>2010-01-01T07:53:30Z</time>
      </trkpt>
      <trkpt lat="43.53522000" lon="12.97191000">
        <ele>294.00000</ele>
        <time>2010-01-01T07:53:37Z</time>
      </trkpt>
      <trkpt lat="43.53529000" lon="12.97228000">
        <ele>293.00000</ele>
        <time>2010-01-01T07:53:48Z</time>
      </trkpt>
      <trkpt lat="43.53538000" lon="12.97249000">
        <ele>294.00000</ele>
        <time>2010-01-01T07:53:55Z</time>
      </trkpt>
      <trkpt lat="43.53552000" lon="12.97274000">
        <ele>295.00000</ele>
        <time>2010-01-01T07:54:04Z</time>
      </trkpt>
      <trkpt lat="43.53564000" lon="12.97299000">
        <ele>296.00000</ele>
        <time>2010-01-01T07:54:13Z</time>
      </trkpt>
      <trkpt lat="43.53568000" lon="12.97319000">
        <ele>295.00000</ele>
        <time>2010-01-01T07:54:19Z</time>
      </trkpt>
      <trkpt lat="43.53567000" lon="12.97336000">
        <ele>293.00000</ele>
        <time>2010-01-01T07:54:24Z</time>
      </trkpt>
      <trkpt lat="43.53565000" lon="12.97349000">
        <ele>293.00000</ele>
        <time>2010-01-01T07:54:28Z</time>
      </trkpt>
      <trkpt lat="43.53559000" lon="12.97363000">
        <ele>292.00000</ele>
        <time>2010-01-01T07:54:32Z</time>
      </trkpt>
      <trkpt lat="43.53544000" lon="12.97389000">
        <ele>292.00000</ele>
        <time>2010-01-01T07:54:42Z</time>
      </trkpt>
      <trkpt lat="43.53529000" lon="12.97424000">
        <ele>289.00000</ele>
        <time>2010-01-01T07:54:54Z</time>
      </trkpt>
      <trkpt lat="43.53489000" lon="12.97543000">
        <ele>284.00000</ele>
        <time>2010-01-01T07:55:32Z</time>
      </trkpt>
      <trkpt lat="43.53420000" lon="12.97757000">
        <ele>276.00000</ele>
        <time>2010-01-01T07:56:40Z</time>
      </trkpt>
      <trkpt lat="43.53349000" lon="12.97979000">
        <ele>268.00000</ele>
        <time>2010-01-01T07:57:50Z</time>
      </trkpt>
      <trkpt lat="43.53338000" lon="12.98030000">
        <ele>266.00000</ele>
        <time>2010-01-01T07:58:06Z</time>
      </trkpt>
      <trkpt lat="43.53337000" lon="12.98045000">
        <ele>266.00000</ele>
        <time>2010-01-01T07:58:10Z</time>
      </trkpt>
      <trkpt lat="43.53341000" lon="12.98082000">
        <ele>268.00000</ele>
        <time>2010-01-01T07:58:21Z</time>
      </trkpt>
      <trkpt lat="43.53348000" lon="12.98119000">
        <ele>268.00000</ele>
        <time>2010-01-01T07:58:32Z</time>
      </trkpt>
      <trkpt lat="43.53362000" lon="12.98158000">
        <ele>269.00000</ele>
        <time>2010-01-01T07:58:45Z</time>
      </trkpt>
      <trkpt lat="43.53379000" lon="12.98183000">
        <ele>269.00000</ele>
        <time>2010-01-01T07:58:55Z</time>
      </trkpt>
      <trkpt lat="43.53398000" lon="12.98205000">
        <ele>270.00000</ele>
        <time>2010-01-01T07:59:05Z</time>
      </trkpt>
      <trkpt lat="43.53521000" lon="12.98333000">
        <ele>273.00000</ele>
        <time>2010-01-01T08:00:06Z</time>
      </trkpt>
      <trkpt lat="43.53528000" lon="12.98343000">
        <ele>275.00000</ele>
        <time>2010-01-01T08:00:10Z</time>
      </trkpt>
      <trkpt lat="43.53551000" lon="12.98387000">
        <ele>277.00000</ele>
        <time>2010-01-01T08:00:26Z</time>
      </trkpt>
      <trkpt lat="43.53551000" lon="12.98386000">
        <ele>277.00000</ele>
        <time>2010-01-01T08:00:26Z</time>
      </trkpt>
      <trkpt lat="43.53592000" lon="12.98472000">
        <ele>274.00000</ele>
        <time>2010-01-01T08:00:56Z</time>
      </trkpt>
      <trkpt lat="43.53599000" lon="12.98489000">
        <ele>275.00000</ele>
        <time>2010-01-01T08:01:02Z</time>
      </trkpt>
      <trkpt lat="43.53602000" lon="12.98507000">
        <ele>275.00000</ele>
        <time>2010-01-01T08:01:07Z</time>
      </trkpt>
      <trkpt lat="43.53604000" lon="12.98528000">
        <ele>275.00000</ele>
        <time>2010-01-01T08:01:13Z</time>
      </trkpt>
      <trkpt lat="43.53600000" lon="12.98546000">
        <ele>275.00000</ele>
        <time>2010-01-01T08:01:19Z</time>
      </trkpt>
      <trkpt lat="43.53594000" lon="12.98563000">
        <ele>275.00000</ele>
        <time>2010-01-01T08:01:24Z</time>
      </trkpt>
      <trkpt lat="43.53569000" lon="12.98600000">
        <ele>273.00000</ele>
        <time>2010-01-01T08:01:39Z</time>
      </trkpt>
      <trkpt lat="43.53555000" lon="12.98630000">
        <ele>272.00000</ele>
        <time>2010-01-01T08:01:49Z</time>
      </trkpt>
      <trkpt lat="43.53547000" lon="12.98664000">
        <ele>273.00000</ele>
        <time>2010-01-01T08:02:00Z</time>
      </trkpt>
      <trkpt lat="43.53544000" lon="12.98709000">
        <ele>273.00000</ele>
        <time>2010-01-01T08:02:13Z</time>
      </trkpt>
      <trkpt lat="43.53549000" lon="12.98746000">
        <ele>273.00000</ele>
        <time>2010-01-01T08:02:24Z</time>
      </trkpt>
      <trkpt lat="43.53558000" lon="12.98783000">
        <ele>274.00000</ele>
        <time>2010-01-01T08:02:35Z</time>
      </trkpt>
      <trkpt lat="43.53578000" lon="12.98829000">
        <ele>275.00000</ele>
        <time>2010-01-01T08:02:51Z</time>
      </trkpt>
      <trkpt lat="43.53626000" lon="12.98909000">
        <ele>272.00000</ele>
        <time>2010-01-01T08:03:21Z</time>
      </trkpt>
      <trkpt lat="43.53679000" lon="12.99006000">
        <ele>274.00000</ele>
        <time>2010-01-01T08:03:56Z</time>
      </trkpt>
      <trkpt lat="43.53694000" lon="12.99044000">
        <ele>272.00000</ele>
        <time>2010-01-01T08:04:09Z</time>
      </trkpt>
      <trkpt lat="43.53704000" lon="12.99088000">
        <ele>268.00000</ele>
        <time>2010-01-01T08:04:22Z</time>
      </trkpt>
      <trkpt lat="43.53719000" lon="12.99167000">
        <ele>268.00000</ele>
        <time>2010-01-01T08:04:46Z</time>
      </trkpt>
      <trkpt lat="43.53726000" lon="12.99192000">
        <ele>266.00000</ele>
        <time>2010-01-01T08:04:53Z</time>
      </trkpt>
      <trkpt lat="43.53734000" lon="12.99214000">
        <ele>263.00000</ele>
        <time>2010-01-01T08:05:01Z</time>
      </trkpt>
      <trkpt lat="43.53751000" lon="12.99242000">
        <ele>261.00000</ele>
        <time>2010-01-01T08:05:11Z</time>
      </trkpt>
      <trkpt lat="43.53775000" lon="12.99271000">
        <ele>258.00000</ele>
        <time>2010-01-01T08:05:24Z</time>
      </trkpt>
      <trkpt lat="43.53835000" lon="12.99322000">
        <ele>258.00000</ele>
        <time>2010-01-01T08:05:52Z</time>
      </trkpt>
      <trkpt lat="43.53863000" lon="12.99334000">
        <ele>260.00000</ele>
        <time>2010-01-01T08:06:04Z</time>
      </trkpt>
      <trkpt lat="43.53895000" lon="12.99338000">
        <ele>261.00000</ele>
        <time>2010-01-01T08:06:17Z</time>
      </trkpt>
      <trkpt lat="43.53923000" lon="12.99333000">
        <ele>262.00000</ele>
        <time>2010-01-01T08:06:28Z</time>
      </trkpt>
      <trkpt lat="43.53964000" lon="12.99322000">
        <ele>258.00000</ele>
        <time>2010-01-01T08:06:45Z</time>
      </trkpt>
      <trkpt lat="43.54001000" lon="12.99312000">
        <ele>253.00000</ele>
        <time>2010-01-01T08:07:00Z</time>
      </trkpt>
      <trkpt lat="43.54073000" lon="12.99287000">
        <ele>255.00000</ele>
        <time>2010-01-01T08:07:30Z</time>
      </trkpt>
      <trkpt lat="43.54103000" lon="12.99284000">
        <ele>255.00000</ele>
        <time>2010-01-01T08:07:42Z</time>
      </trkpt>
      <trkpt lat="43.54143000" lon="12.99289000">
        <ele>256.00000</ele>
        <time>2010-01-01T08:07:58Z</time>
      </trkpt>
      <trkpt lat="43.54160000" lon="12.99293000">
        <ele>256.00000</ele>
        <time>2010-01-01T08:08:05Z</time>
      </trkpt>
      <trkpt lat="43.54251000" lon="12.99324000">
        <ele>252.00000</ele>
        <time>2010-01-01T08:08:42Z</time>
      </trkpt>
      <trkpt lat="43.54272000" lon="12.99334000">
        <ele>252.00000</ele>
        <time>2010-01-01T08:08:51Z</time>
      </trkpt>
      <trkpt lat="43.54291000" lon="12.99349000">
        <ele>251.00000</ele>
        <time>2010-01-01T08:09:00Z</time>
      </trkpt>
      <trkpt lat="43.54305000" lon="12.99364000">
        <ele>250.00000</ele>
        <time>2010-01-01T08:09:07Z</time>
      </trkpt>
      <trkpt lat="43.54323000" lon="12.99387000">
        <ele>251.00000</ele>
        <time>2010-01-01T08:09:17Z</time>
      </trkpt>
      <trkpt lat="43.54364870" lon="12.99448470">
        <ele>250.00000</ele>
        <time>2010-01-01T08:09:41Z</time>
      </trkpt>
      <trkpt lat="43.54403570" lon="12.99485970">
        <ele>253.00000</ele>
        <time>2010-01-01T08:10:00Z</time>
      </trkpt>
      <trkpt lat="43.54423280" lon="12.99501500">
        <ele>254.00000</ele>
        <time>2010-01-01T08:10:09Z</time>
      </trkpt>
      <trkpt lat="43.54471690" lon="12.99513740">
        <ele>257.00000</ele>
        <time>2010-01-01T08:10:29Z</time>
      </trkpt>
      <trkpt lat="43.54493880" lon="12.99521040">
        <ele>257.00000</ele>
        <time>2010-01-01T08:10:38Z</time>
      </trkpt>
      <trkpt lat="43.54519720" lon="12.99524790">
        <ele>258.00000</ele>
        <time>2010-01-01T08:10:48Z</time>
      </trkpt>
      <trkpt lat="43.54549720" lon="12.99530160">
        <ele>260.00000</ele>
        <time>2010-01-01T08:11:01Z</time>
      </trkpt>
      <trkpt lat="43.54576810" lon="12.99539330">
        <ele>260.00000</ele>
        <time>2010-01-01T08:11:12Z</time>
      </trkpt>
      <trkpt lat="43.54597350" lon="12.99563300">
        <ele>260.00000</ele>
        <time>2010-01-01T08:11:22Z</time>
      </trkpt>
      <trkpt lat="43.54642090" lon="12.99626070">
        <ele>261.00000</ele>
        <time>2010-01-01T08:11:48Z</time>
      </trkpt>
      <trkpt lat="43.54662110" lon="12.99658030">
        <ele>257.00000</ele>
        <time>2010-01-01T08:12:00Z</time>
      </trkpt>
      <trkpt lat="43.54673000" lon="12.99660000">
        <ele>257.00000</ele>
        <time>2010-01-01T08:12:05Z</time>
      </trkpt>
      <trkpt lat="43.54711000" lon="12.99663000">
        <ele>253.00000</ele>
        <time>2010-01-01T08:12:20Z</time>
      </trkpt>
      <trkpt lat="43.54734000" lon="12.99671000">
        <ele>250.00000</ele>
        <time>2010-01-01T08:12:29Z</time>
      </trkpt>
      <trkpt lat="43.54797000" lon="12.99678000">
        <ele>243.00000</ele>
        <time>2010-01-01T08:12:55Z</time>
      </trkpt>
      <trkpt lat="43.54831000" lon="12.99718000">
        <ele>237.00000</ele>
        <time>2010-01-01T08:13:13Z</time>
      </trkpt>
      <trkpt lat="43.54888000" lon="12.99775000">
        <ele>231.00000</ele>
        <time>2010-01-01T08:13:41Z</time>
      </trkpt>
      <trkpt lat="43.54919000" lon="12.99808000">
        <ele>227.00000</ele>
        <time>2010-01-01T08:13:56Z</time>
      </trkpt>
      <trkpt lat="43.55020000" lon="12.99926000">
        <ele>214.00000</ele>
        <time>2010-01-01T08:14:49Z</time>
      </trkpt>
      <trkpt lat="43.55040000" lon="12.99967000">
        <ele>212.00000</ele>
        <time>2010-01-01T08:15:04Z</time>
      </trkpt>
      <trkpt lat="43.55068000" lon="13.00042000">
        <ele>209.00000</ele>
        <time>2010-01-01T08:15:28Z</time>
      </trkpt>
      <trkpt lat="43.55084000" lon="13.00067000">
        <ele>207.00000</ele>
        <time>2010-01-01T08:15:38Z</time>
      </trkpt>
      <trkpt lat="43.55103000" lon="13.00085000">
        <ele>207.00000</ele>
        <time>2010-01-01T08:15:47Z</time>
      </trkpt>
      <trkpt lat="43.55157000" lon="13.00112000">
        <ele>208.00000</ele>
        <time>2010-01-01T08:16:10Z</time>
      </trkpt>
      <trkpt lat="43.55230000" lon="13.00144000">
        <ele>211.00000</ele>
        <time>2010-01-01T08:16:41Z</time>
      </trkpt>
      <trkpt lat="43.55261000" lon="13.00160000">
        <ele>210.00000</ele>
        <time>2010-01-01T08:16:54Z</time>
      </trkpt>
      <trkpt lat="43.55280000" lon="13.00167000">
        <ele>209.00000</ele>
        <time>2010-01-01T08:17:02Z</time>
      </trkpt>
      <trkpt lat="43.55305000" lon="13.00169000">
        <ele>208.00000</ele>
        <time>2010-01-01T08:17:12Z</time>
      </trkpt>
      <trkpt lat="43.55332000" lon="13.00164000">
        <ele>206.00000</ele>
        <time>2010-01-01T08:17:23Z</time>
      </trkpt>
      <trkpt lat="43.55446000" lon="13.00139000">
        <ele>200.00000</ele>
        <time>2010-01-01T08:18:09Z</time>
      </trkpt>
      <trkpt lat="43.55541000" lon="13.00143000">
        <ele>193.00000</ele>
        <time>2010-01-01T08:18:47Z</time>
      </trkpt>
      <trkpt lat="43.55571000" lon="13.00142000">
        <ele>191.00000</ele>
        <time>2010-01-01T08:18:59Z</time>
      </trkpt>
      <trkpt lat="43.55710000" lon="13.00128000">
        <ele>187.00000</ele>
        <time>2010-01-01T08:19:55Z</time>
      </trkpt>
      <trkpt lat="43.55781000" lon="13.00119000">
        <ele>190.00000</ele>
        <time>2010-01-01T08:20:23Z</time>
      </trkpt>
      <trkpt lat="43.55800000" lon="13.00122000">
        <ele>189.00000</ele>
        <time>2010-01-01T08:20:31Z</time>
      </trkpt>
      <trkpt lat="43.55799000" lon="13.00122000">
        <ele>189.00000</ele>
        <time>2010-01-01T08:20:31Z</time>
      </trkpt>
      <trkpt lat="43.55810000" lon="13.00123000">
        <ele>188.00000</ele>
        <time>2010-01-01T08:20:36Z</time>
      </trkpt>
      <trkpt lat="43.55830000" lon="13.00134000">
        <ele>187.00000</ele>
        <time>2010-01-01T08:20:45Z</time>
      </trkpt>
      <trkpt lat="43.55854000" lon="13.00152000">
        <ele>187.00000</ele>
        <time>2010-01-01T08:20:55Z</time>
      </trkpt>
      <trkpt lat="43.55997000" lon="13.00272000">
        <ele>183.00000</ele>
        <time>2010-01-01T08:22:02Z</time>
      </trkpt>
      <trkpt lat="43.56035000" lon="13.00298000">
        <ele>180.00000</ele>
        <time>2010-01-01T08:22:19Z</time>
      </trkpt>
      <trkpt lat="43.56202000" lon="13.00404000">
        <ele>178.00000</ele>
        <time>2010-01-01T08:23:33Z</time>
      </trkpt>
      <trkpt lat="43.56258000" lon="13.00442000">
        <ele>181.00000</ele>
        <time>2010-01-01T08:23:58Z</time>
      </trkpt>
      <trkpt lat="43.56291000" lon="13.00470000">
        <ele>183.00000</ele>
        <time>2010-01-01T08:24:14Z</time>
      </trkpt>
      <trkpt lat="43.56400000" lon="13.00575000">
        <ele>186.00000</ele>
        <time>2010-01-01T08:25:07Z</time>
      </trkpt>
      <trkpt lat="43.56503000" lon="13.00689000">
        <ele>190.00000</ele>
        <time>2010-01-01T08:26:00Z</time>
      </trkpt>
      <trkpt lat="43.56545000" lon="13.00717000">
        <ele>191.00000</ele>
        <time>2010-01-01T08:26:18Z</time>
      </trkpt>
      <trkpt lat="43.56581000" lon="13.00733000">
        <ele>193.00000</ele>
        <time>2010-01-01T08:26:33Z</time>
      </trkpt>
      <trkpt lat="43.56634000" lon="13.00751000">
        <ele>191.00000</ele>
        <time>2010-01-01T08:26:55Z</time>
      </trkpt>
      <trkpt lat="43.56717000" lon="13.00799000">
        <ele>194.00000</ele>
        <time>2010-01-01T08:27:31Z</time>
      </trkpt>
      <trkpt lat="43.56748000" lon="13.00819000">
        <ele>194.00000</ele>
        <time>2010-01-01T08:27:45Z</time>
      </trkpt>
      <trkpt lat="43.56857000" lon="13.00899000">
        <ele>188.00000</ele>
        <time>2010-01-01T08:28:34Z</time>
      </trkpt>
      <trkpt lat="43.56895000" lon="13.00929000">
        <ele>187.00000</ele>
        <time>2010-01-01T08:28:52Z</time>
      </trkpt>
      <trkpt lat="43.57025000" lon="13.01046000">
        <ele>189.00000</ele>
        <time>2010-01-01T08:29:54Z</time>
      </trkpt>
      <trkpt lat="43.57148000" lon="13.01154000">
        <ele>197.00000</ele>
        <time>2010-01-01T08:30:52Z</time>
      </trkpt>
      <trkpt lat="43.57178000" lon="13.01185000">
        <ele>198.00000</ele>
        <time>2010-01-01T08:31:07Z</time>
      </trkpt>
      <trkpt lat="43.57214000" lon="13.01235000">
        <ele>202.00000</ele>
        <time>2010-01-01T08:31:28Z</time>
      </trkpt>
      <trkpt lat="43.57247000" lon="13.01261000">
        <ele>200.00000</ele>
        <time>2010-01-01T08:31:43Z</time>
      </trkpt>
      <trkpt lat="43.57310000" lon="13.01315000">
        <ele>198.00000</ele>
        <time>2010-01-01T08:32:13Z</time>
      </trkpt>
      <trkpt lat="43.57365000" lon="13.01372000">
        <ele>197.00000</ele>
        <time>2010-01-01T08:32:40Z</time>
      </trkpt>
      <trkpt lat="43.57387000" lon="13.01403000">
        <ele>197.00000</ele>
        <time>2010-01-01T08:32:53Z</time>
      </trkpt>
      <trkpt lat="43.57407000" lon="13.01438000">
        <ele>195.00000</ele>
        <time>2010-01-01T08:33:06Z</time>
      </trkpt>
      <trkpt lat="43.57430000" lon="13.01485000">
        <ele>194.00000</ele>
        <time>2010-01-01T08:33:22Z</time>
      </trkpt>
      <trkpt lat="43.57445000" lon="13.01528000">
        <ele>195.00000</ele>
        <time>2010-01-01T08:33:36Z</time>
      </trkpt>
      <trkpt lat="43.57468000" lon="13.01583000">
        <ele>195.00000</ele>
        <time>2010-01-01T08:33:54Z</time>
      </trkpt>
      <trkpt lat="43.57484000" lon="13.01618000">
        <ele>196.00000</ele>
        <time>2010-01-01T08:34:06Z</time>
      </trkpt>
      <trkpt lat="43.57575000" lon="13.01795000">
        <ele>200.00000</ele>
        <time>2010-01-01T08:35:09Z</time>
      </trkpt>
      <trkpt lat="43.57596000" lon="13.01820000">
        <ele>199.00000</ele>
        <time>2010-01-01T08:35:21Z</time>
      </trkpt>
      <trkpt lat="43.57622000" lon="13.01849000">
        <ele>200.00000</ele>
        <time>2010-01-01T08:35:34Z</time>
      </trkpt>
      <trkpt lat="43.57641350" lon="13.01915800">
        <ele>203.00000</ele>
        <time>2010-01-01T08:35:55Z</time>
      </trkpt>
      <trkpt lat="43.57652220" lon="13.01966350">
        <ele>207.00000</ele>
        <time>2010-01-01T08:36:10Z</time>
      </trkpt>
      <trkpt lat="43.57657470" lon="13.02008880">
        <ele>208.00000</ele>
        <time>2010-01-01T08:36:23Z</time>
      </trkpt>
      <trkpt lat="43.57656200" lon="13.02078160">
        <ele>209.00000</ele>
        <time>2010-01-01T08:36:43Z</time>
      </trkpt>
      <trkpt lat="43.57651360" lon="13.02123720">
        <ele>209.00000</ele>
        <time>2010-01-01T08:36:56Z</time>
      </trkpt>
      <trkpt lat="43.57651920" lon="13.02165060">
        <ele>209.00000</ele>
        <time>2010-01-01T08:37:08Z</time>
      </trkpt>
      <trkpt lat="43.57652510" lon="13.02178050">
        <ele>208.00000</ele>
        <time>2010-01-01T08:37:12Z</time>
      </trkpt>
      <trkpt lat="43.57653090" lon="13.02202420">
        <ele>206.00000</ele>
        <time>2010-01-01T08:37:19Z</time>
      </trkpt>
      <trkpt lat="43.57664560" lon="13.02226550">
        <ele>206.00000</ele>
        <time>2010-01-01T08:37:27Z</time>
      </trkpt>
      <trkpt lat="43.57691220" lon="13.02236480">
        <ele>209.00000</ele>
        <time>2010-01-01T08:37:38Z</time>
      </trkpt>
      <trkpt lat="43.57717640" lon="13.02246810">
        <ele>212.00000</ele>
        <time>2010-01-01T08:37:49Z</time>
      </trkpt>
      <trkpt lat="43.57730570" lon="13.02257560">
        <ele>211.00000</ele>
        <time>2010-01-01T08:37:55Z</time>
      </trkpt>
      <trkpt lat="43.57706190" lon="13.02258790">
        <ele>208.00000</ele>
        <time>2010-01-01T08:38:05Z</time>
      </trkpt>
      <trkpt lat="43.57664560" lon="13.02247300">
        <ele>203.00000</ele>
        <time>2010-01-01T08:38:22Z</time>
      </trkpt>
      <trkpt lat="43.57618590" lon="13.02254410">
        <ele>198.00000</ele>
        <time>2010-01-01T08:38:41Z</time>
      </trkpt>
      <trkpt lat="43.57585020" lon="13.02258900">
        <ele>196.00000</ele>
        <time>2010-01-01T08:38:54Z</time>
      </trkpt>
      <trkpt lat="43.57554100" lon="13.02263170">
        <ele>193.00000</ele>
        <time>2010-01-01T08:39:07Z</time>
      </trkpt>
      <trkpt lat="43.57504780" lon="13.02280380">
        <ele>188.00000</ele>
        <time>2010-01-01T08:39:27Z</time>
      </trkpt>
      <trkpt lat="43.57451430" lon="13.02307760">
        <ele>184.00000</ele>
        <time>2010-01-01T08:39:50Z</time>
      </trkpt>
      <trkpt lat="43.57402560" lon="13.02333790">
        <ele>181.00000</ele>
        <time>2010-01-01T08:40:11Z</time>
      </trkpt>
      <trkpt lat="43.57370710" lon="13.02348930">
        <ele>180.00000</ele>
        <time>2010-01-01T08:40:24Z</time>
      </trkpt>
      <trkpt lat="43.57359050" lon="13.02366830">
        <ele>179.00000</ele>
        <time>2010-01-01T08:40:31Z</time>
      </trkpt>
      <trkpt lat="43.57361210" lon="13.02382340">
        <ele>177.00000</ele>
        <time>2010-01-01T08:40:36Z</time>
      </trkpt>
      <trkpt lat="43.57380360" lon="13.02392750">
        <ele>176.00000</ele>
        <time>2010-01-01T08:40:44Z</time>
      </trkpt>
      <trkpt lat="43.57399430" lon="13.02385750">
        <ele>175.00000</ele>
        <time>2010-01-01T08:40:52Z</time>
      </trkpt>
      <trkpt lat="43.57424030" lon="13.02371380">
        <ele>176.00000</ele>
        <time>2010-01-01T08:41:03Z</time>
      </trkpt>
      <trkpt lat="43.57446340" lon="13.02374530">
        <ele>176.00000</ele>
        <time>2010-01-01T08:41:11Z</time>
      </trkpt>
      <trkpt lat="43.57451420" lon="13.02389650">
        <ele>174.00000</ele>
        <time>2010-01-01T08:41:16Z</time>
      </trkpt>
      <trkpt lat="43.57447180" lon="13.02406670">
        <ele>171.00000</ele>
        <time>2010-01-01T08:41:22Z</time>
      </trkpt>
      <trkpt lat="43.57428900" lon="13.02420620">
        <ele>170.00000</ele>
        <time>2010-01-01T08:41:30Z</time>
      </trkpt>
      <trkpt lat="43.57384110" lon="13.02449250">
        <ele>171.00000</ele>
        <time>2010-01-01T08:41:50Z</time>
      </trkpt>
      <trkpt lat="43.57335740" lon="13.02503300">
        <ele>165.00000</ele>
        <time>2010-01-01T08:42:15Z</time>
      </trkpt>
      <trkpt lat="43.57305580" lon="13.02524480">
        <ele>162.00000</ele>
        <time>2010-01-01T08:42:28Z</time>
      </trkpt>
      <trkpt lat="43.57278940" lon="13.02536700">
        <ele>159.00000</ele>
        <time>2010-01-01T08:42:39Z</time>
      </trkpt>
      <trkpt lat="43.57254310" lon="13.02561120">
        <ele>158.00000</ele>
        <time>2010-01-01T08:42:52Z</time>
      </trkpt>
      <trkpt lat="43.57240890" lon="13.02587570">
        <ele>158.00000</ele>
        <time>2010-01-01T08:43:01Z</time>
      </trkpt>
      <trkpt lat="43.57230540" lon="13.02617720">
        <ele>157.00000</ele>
        <time>2010-01-01T08:43:11Z</time>
      </trkpt>
      <trkpt lat="43.57211260" lon="13.02648510">
        <ele>157.00000</ele>
        <time>2010-01-01T08:43:22Z</time>
      </trkpt>
      <trkpt lat="43.57177030" lon="13.02681280">
        <ele>157.00000</ele>
        <time>2010-01-01T08:43:39Z</time>
      </trkpt>
      <trkpt lat="43.57152000" lon="13.02701950">
        <ele>156.00000</ele>
        <time>2010-01-01T08:43:51Z</time>
      </trkpt>
      <trkpt lat="43.57117930" lon="13.02733010">
        <ele>154.00000</ele>
        <time>2010-01-01T08:44:07Z</time>
      </trkpt>
      <trkpt lat="43.57074350" lon="13.02768720">
        <ele>154.00000</ele>
        <time>2010-01-01T08:44:27Z</time>
      </trkpt>
      <trkpt lat="43.57048050" lon="13.02795000">
        <ele>154.00000</ele>
        <time>2010-01-01T08:44:40Z</time>
      </trkpt>
      <trkpt lat="43.56998280" lon="13.02831740">
        <ele>151.00000</ele>
        <time>2010-01-01T08:45:03Z</time>
      </trkpt>
      <trkpt lat="43.56967490" lon="13.02841100">
        <ele>150.00000</ele>
        <time>2010-01-01T08:45:16Z</time>
      </trkpt>
      <trkpt lat="43.56937000" lon="13.02839060">
        <ele>150.00000</ele>
        <time>2010-01-01T08:45:28Z</time>
      </trkpt>
      <trkpt lat="43.56803250" lon="13.02812510">
        <ele>149.00000</ele>
        <time>2010-01-01T08:46:22Z</time>
      </trkpt>
      <trkpt lat="43.56782200" lon="13.02810450">
        <ele>150.00000</ele>
        <time>2010-01-01T08:46:30Z</time>
      </trkpt>
      <trkpt lat="43.56743820" lon="13.02815000">
        <ele>148.00000</ele>
        <time>2010-01-01T08:46:46Z</time>
      </trkpt>
      <trkpt lat="43.56639440" lon="13.02859620">
        <ele>141.00000</ele>
        <time>2010-01-01T08:47:29Z</time>
      </trkpt>
      <trkpt lat="43.56591730" lon="13.02882730">
        <ele>139.00000</ele>
        <time>2010-01-01T08:47:50Z</time>
      </trkpt>
      <trkpt lat="43.56591730" lon="13.02913730">
        <ele>137.00000</ele>
        <time>2010-01-01T08:47:59Z</time>
      </trkpt>
      <trkpt lat="43.56633180" lon="13.02988400">
        <ele>136.00000</ele>
        <time>2010-01-01T08:48:26Z</time>
      </trkpt>
      <trkpt lat="43.56661340" lon="13.03029970">
        <ele>135.00000</ele>
        <time>2010-01-01T08:48:42Z</time>
      </trkpt>
      <trkpt lat="43.56662400" lon="13.03065050">
        <ele>131.00000</ele>
        <time>2010-01-01T08:48:53Z</time>
      </trkpt>
      <trkpt lat="43.56654960" lon="13.03066200">
        <ele>130.00000</ele>
        <time>2010-01-01T08:48:56Z</time>
      </trkpt>
      <trkpt lat="43.56632150" lon="13.03056610">
        <ele>129.00000</ele>
        <time>2010-01-01T08:49:05Z</time>
      </trkpt>
      <trkpt lat="43.56599390" lon="13.03016850">
        <ele>129.00000</ele>
        <time>2010-01-01T08:49:23Z</time>
      </trkpt>
      <trkpt lat="43.56555530" lon="13.02984110">
        <ele>126.00000</ele>
        <time>2010-01-01T08:49:43Z</time>
      </trkpt>
      <trkpt lat="43.56457920" lon="13.02931800">
        <ele>120.00000</ele>
        <time>2010-01-01T08:50:25Z</time>
      </trkpt>
      <trkpt lat="43.56440710" lon="13.02921990">
        <ele>119.00000</ele>
        <time>2010-01-01T08:50:32Z</time>
      </trkpt>
      <trkpt lat="43.56403700" lon="13.02932110">
        <ele>115.00000</ele>
        <time>2010-01-01T08:50:47Z</time>
      </trkpt>
      <trkpt lat="43.56201920" lon="13.03002750">
        <ele>112.00000</ele>
        <time>2010-01-01T08:52:10Z</time>
      </trkpt>
      <trkpt lat="43.56117280" lon="13.02820410">
        <ele>114.00000</ele>
        <time>2010-01-01T08:53:13Z</time>
      </trkpt>
      <trkpt lat="43.55871490" lon="13.02322970">
        <ele>121.00000</ele>
        <time>2010-01-01T08:56:08Z</time>
      </trkpt>
      <trkpt lat="43.55827770" lon="13.02231350">
        <ele>122.00000</ele>
        <time>2010-01-01T08:56:40Z</time>
      </trkpt>
    </trkseg>
  </trk>
</gpx>

